GFSSE_prec_cloud_003.txt.gz
Cloud_Cover
99 100 100 100 100 100 100 92 100 100 100 100 97 100 100 90 42 97 100 62 0 0 0 0 5 0 0 0 0 1 0 5 8 2 5 2 0 0 0 0 15 9 3
98 99 99 100 100 100 100 100 100 100 100 100 100 82 8 13 94 100 24 0 0 0 0 2 5 0 0 0 5 31 5 5 5 5 8 5 5 2 1 20 94 5 4
99 100 100 22 12 98 100 92 98 100 99 92 7 84 10 77 12 5 3 0 0 0 0 5 5 5 0 0 0 17 88 86 60 22 73 96 99 18 5 4 5 5 1
96 99 38 60 38 83 21 50 88 70 3 5 1 41 70 0 0 0 0 0 0 0 0 5 27 5 5 0 1 5 22 15 19 57 50 99 100 57 3 3 1 1 4
92 83 35 88 100 100 98 48 42 14 5 2 79 86 0 0 0 0 0 0 0 0 0 5 12 26 36 4 5 1 7 10 39 39 95 45 99 22 2 0 0 6 2
100 90 100 100 100 63 99 34 5 5 0 42 0 0 0 0 0 0 4 5 0 3 12 5 5 18 5 3 3 5 5 4 48 100 99 5 8 63 5 4 0 4 4
100 100 100 85 90 98 81 17 3 0 3 0 0 0 0 0 0 5 5 5 31 100 100 24 5 18 5 3 4 5 5 5 87 100 79 100 14 12 5 6 0 0 1
91 93 26 42 5 3 0 5 0 0 0 0 0 0 0 0 0 74 90 8 5 67 100 29 51 4 5 5 5 31 5 5 86 93 91 93 77 21 99 44 5 3 8
56 78 53 5 5 3 0 0 0 0 0 0 0 0 0 0 0 2 5 4 5 6 69 32 51 100 77 5 14 70 60 5 19 100 100 100 99 98 48 7 6 5 3
23 100 100 44 36 8 0 0 0 0 0 0 0 0 0 0 0 0 0 0 0 0 0 4 8 5 5 58 5 6 50 99 38 43 77 66 100 100 67 100 31 12 42
37 9 84 80 51 95 36 10 0 0 0 0 0 0 0 53 72 30 14 0 0 0 0 0 0 0 0 4 86 100 100 90 100 100 39 58 100 99 95 100 100 100 49
85 70 47 75 14 65 42 0 0 0 0 4 4 1 1 87 70 38 8 0 0 0 0 0 0 0 31 61 45 79 100 100 100 100 99 100 73 12 100 100 100 100 87
5 28 68 93 48 14 47 12 29 31 73 8 4 8 53 93 85 89 36 80 50 0 89 29 87 100 12 2 8 54 2 61 100 99 100 73 80 67 89 100 100 100 99
1 1 8 99 68 41 88 84 94 48 33 45 5 0 28 6 98 14 99 100 67 100 52 92 96 3 69 26 35 22 4 0 1 75 54 100 79 5 77 99 100 100 100
0 0 5 4 1 50 2 9 40 47 15 76 17 14 12 93 92 66 14 3 19 47 100 86 100 74 74 95 100 3 3 0 0 0 22 81 100 84 5 30 37 100 100
0 0 0 0 14 45 30 36 22 23 94 14 32 44 5 36 93 22 100 100 100 52 100 36 56 8 66 92 26 20 0 0 2 0 0 2 5 69 91 90 100 100 100
0 0 0 0 5 9 55 49 10 73 19 100 97 30 0 2 14 5 49 81 96 8 1 50 96 100 9 0 2 0 0 9 3 0 0 0 1 5 13 94 18 100 91
0 2 0 0 0 15 42 31 9 58 100 100 90 100 10 4 13 31 38 83 100 81 100 92 20 100 32 0 1 0 1 0 9 2 15 0 2 0 4 5 83 99 100
0 3 5 0 1 12 0 24 13 89 95 85 100 77 100 28 94 56 58 100 96 31 88 56 2 90 0 0 0 1 13 10 2 27 0 30 9 17 0 0 5 12 44
0 1 3 0 2 13 59 8 62 94 33 100 100 78 50 58 26 31 80 32 0 89 36 71 79 0 0 6 0 0 6 26 13 8 5 5 5 20 64 14 8 17 5
0 3 0 0 0 2 26 14 10 26 57 19 19 98 58 6 16 8 0 100 13 12 100 17 0 0 0 42 0 83 17 4 13 5 9 3 5 0 5 0 14 52 31
0 3 0 0 0 0 26 2 32 98 32 34 29 63 33 100 99 28 10 5 7 76 0 7 0 0 1 22 8 3 90 74 93 78 0 2 7 8 0 0 0 0 43
0 0 0 0 0 0 0 45 11 28 0 58 40 86 20 7 36 10 18 2 23 0 0 0 0 3 4 41 0 10 19 96 64 49 6 1 1 0 20 3 0 0 0
0 0 0 0 0 0 0 13 7 0 1 0 0 5 2 63 26 28 16 34 27 0 0 0 0 5 1 11 23 0 0 5 5 90 100 26 5 5 0 0 0 1 0
0 0 0 0 0 1 0 0 1 0 0 0 0 4 0 11 9 1 4 24 9 0 1 5 0 0 14 0 5 50 14 5 5 63 99 98 98 57 6 0 0 0 8
0 0 0 0 0 0 0 0 0 0 0 0 0 9 0 0 0 0 0 37 0 17 31 5 6 0 5 3 3 49 71 86 82 96 43 91 100 97 25 22 3 0 13

GFSSE_prec_cloud_006.txt.gz
Cloud_Cover
100 67 100 100 100 100 100 100 100 100 65 100 100 100 100 57 3 97 7 4 5 1 0 0 0 0 0 0 5 0 0 0 3 0 3 3 0 0 0 0 32 6 1
66 100 100 100 100 100 100 100 100 100 100 100 62 2 5 1 26 1 0 4 0 0 0 2 0 0 2 5 4 4 25 7 0 4 34 6 4 8 0 20 10 3 5
73 100 98 100 73 46 10 89 76 100 93 5 5 1 0 8 0 0 0 0 0 0 2 6 5 5 5 0 0 5 5 6 4 5 48 94 3 5 5 4 0 0 6
8 88 11 9 28 33 75 100 97 57 11 5 0 0 0 0 0 0 0 0 0 0 0 5 5 38 5 5 0 5 1 5 5 2 51 100 5 2 1 0 0 0 3
67 34 48 72 70 100 100 100 26 6 5 1 0 0 0 0 0 0 3 1 0 1 4 2 44 3 6 4 0 2 0 1 5 8 19 1 5 17 0 0 0 0 0
96 11 5 61 100 100 100 100 100 72 0 0 0 0 0 0 0 2 2 2 5 35 5 4 4 0 5 2 0 0 0 5 58 81 10 5 0 5 2 0 1 0 0
96 100 37 93 100 100 100 46 2 0 0 0 0 0 0 0 5 7 5 1 4 14 5 5 5 4 0 2 0 0 0 3 100 76 100 100 74 9 31 13 0 0 0
96 99 100 70 64 19 2 0 0 0 0 0 0 0 0 0 0 1 0 0 5 5 5 1 2 22 16 0 2 3 0 0 9 100 90 23 8 32 89 90 4 3 0
65 11 49 100 73 0 0 0 0 0 0 0 0 0 0 0 0 0 0 0 0 5 0 0 0 0 0 3 0 5 5 0 73 100 100 100 67 14 88 27 5 8 31
67 10 26 1 10 0 0 0 0 0 0 0 0 0 0 0 0 0 0 0 0 0 0 0 0 0 0 0 5 5 7 3 36 100 100 100 98 48 90 89 13 21 83
80 16 0 0 0 0 0 0 0 0 0 0 0 0 0 66 15 16 3 0 0 0 0 0 0 0 0 0 0 3 5 9 55 78 95 100 88 52 88 100 100 100 100
76 50 90 61 61 0 0 0 0 0 0 0 0 0 0 92 7 30 100 100 6 2 25 1 0 1 1 32 37 50 62 4 8 6 5 6 5 4 74 100 100 77 46
94 80 63 0 32 61 82 0 0 0 0 0 1 8 39 62 46 99 100 100 99 100 89 0 7 42 1 0 0 53 0 51 50 97 5 13 6 3 27 63 100 97 67
56 8 32 0 0 56 6 17 0 0 1 33 0 0 0 0 32 86 100 26 80 48 94 44 4 100 57 12 65 99 0 0 0 0 2 7 30 5 5 86 100 100 100
0 86 0 17 10 22 58 19 80 94 36 81 59 0 5 15 71 73 4 16 6 88 3 0 58 100 31 37 99 62 0 0 0 0 0 0 4 5 6 13 73 100 100
0 2 0 0 0 54 0 14 62 20 98 17 62 33 2 5 5 87 4 49 85 36 0 67 0 4 95 100 100 6 3 91 6 23 0 0 0 1 70 31 31 97 100
0 1 0 3 0 0 0 0 0 78 6 18 14 89 64 4 6 4 0 0 80 42 25 72 78 9 100 71 16 0 98 15 5 5 3 47 0 0 0 5 39 66 92
0 0 0 0 0 0 1 0 0 0 88 43 5 99 96 1 0 1 8 14 100 100 15 94 50 1 20 12 26 76 5 47 9 38 98 97 1 0 0 0 4 43 7
0 0 0 0 24 0 0 9 0 1 82 100 41 2 88 88 5 100 22 3 84 16 1 67 48 94 5 0 0 99 86 4 24 83 20 95 36 24 55 0 0 0 4
0 0 0 0 0 19 5 4 0 0 98 66 67 96 20 0 12 5 9 43 0 0 0 2 80 5 2 0 0 0 5 7 33 0 1 6 4 94 99 100 6 0 0
0 0 0 0 0 2 0 0 0 0 45 82 4 86 3 12 0 0 0 2 66 0 86 100 0 0 3 2 0 76 78 100 30 5 2 3 45 42 41 5 26 2 2
0 0 0 0 0 0 0 0 0 14 0 0 15 46 0 0 0 80 0 0 92 98 0 0 0 0 22 17 0 0 72 71 100 69 5 5 5 71 16 12 10 7 0
0 0 0 0 0 0 0 0 0 1 33 99 34 40 0 21 0 49 0 0 0 14 2 0 0 0 4 5 37 0 20 67 56 90 77 8 5 44 96 18 5 90 15
0 0 0 0 0 0 0 0 0 0 0 3 0 54 0 0 0 0 0 0 0 0 0 0 0 0 0 26 82 5 3 5 60 62 69 100 25 68 100 95 61 67 96
0 0 0 0 0 0 0 0 0 0 0 0 0 1 46 0 0 7 0 0 0 0 0 5 5 0 0 0 0 96 17 5 21 90 100 100 100 47 32 91 21 20 63
0 0 0 0 0 0 0 0 0 0 0 41 62 36 0 0 0 0 8 0 0 0 0 5 5 4 2 1 2 5 9 43 48 27 84 100 99 100 96 74 74 5 51

GFSSE_prec_cloud_009.txt.gz
Cloud_Cover
74 71 94 95 100 96 98 100 100 100 100 100 100 100 23 4 0 0 0 0 0 0 3 0 4 6 1 0 4 2 0 0 0 0 0 0 0 0 0 0 3 0 0
52 94 97 100 100 100 100 100 100 100 100 100 80 75 3 0 0 0 0 0 0 0 0 1 2 2 6 1 2 11 3 0 0 20 21 4 0 5 5 0 2 0 0
11 10 34 34 75 100 100 82 40 8 28 38 5 2 0 0 0 0 0 0 0 0 2 5 0 0 0 0 5 4 5 5 0 4 3 0 0 0 0 5 0 0 0
63 62 80 89 100 100 100 31 98 23 19 5 5 0 0 0 0 0 0 0 0 0 5 7 30 0 0 0 1 0 0 0 2 0 1 0 0 0 0 0 0 3 0
55 7 28 99 80 5 14 94 90 100 97 49 0 0 0 0 0 0 0 0 4 10 5 12 9 3 0 0 0 0 0 5 53 22 21 5 5 0 0 0 0 0 1
30 64 87 36 5 5 5 100 100 100 1 0 0 0 0 0 0 0 0 0 3 1 4 4 5 0 0 0 0 0 55 100 100 100 100 80 95 43 5 6 17 14 0
5 11 90 71 100 100 100 100 53 0 0 0 0 0 0 0 1 2 0 5 5 2 0 0 2 39 3 0 0 0 49 100 100 100 100 100 100 100 15 5 12 0 0
0 2 74 43 100 100 96 0 0 0 0 0 0 0 0 0 0 0 0 4 5 5 5 0 0 0 2 0 0 0 58 100 100 100 100 100 100 100 100 5 5 16 24
4 4 2 30 99 4 0 0 0 0 0 0 0 0 0 3 2 0 0 0 0 1 0 0 0 0 0 0 0 0 2 100 100 100 100 100 100 100 100 50 5 8 29
0 0 0 0 0 0 0 0 0 0 0 0 0 0 0 1 14 100 44 1 0 0 0 0 0 0 0 0 0 0 0 90 100 100 100 100 100 100 100 61 6 57 100
0 0 0 0 0 0 0 0 0 0 0 0 0 0 0 100 100 100 100 100 2 0 0 0 0 0 0 0 0 39 2 6 91 100 100 100 100 100 100 65 24 59 100
0 0 0 0 0 0 0 0 0 0 0 0 0 0 63 100 86 100 18 23 4 1 0 0 0 2 1 0 0 16 70 3 43 30 100 100 100 100 100 99 100 76 87
35 0 0 0 0 0 0 0 0 0 0 0 0 0 100 100 100 92 52 6 4 2 0 20 47 20 55 35 4 86 60 0 0 0 0 6 13 93 5 96 100 100 100
0 0 0 0 0 3 3 0 0 0 0 0 0 0 5 33 10 94 57 5 4 0 14 9 93 55 61 82 91 16 0 0 22 7 0 0 0 5 7 6 100 100 100
0 29 37 0 0 19 4 0 0 0 6 19 66 0 0 4 30 4 5 31 5 21 1 22 85 97 9 91 72 99 5 25 4 0 0 0 0 1 5 100 100 100 100
4 0 0 0 0 0 0 0 61 89 99 39 100 52 0 5 4 3 11 28 89 33 100 21 34 87 53 30 5 81 59 97 21 26 2 0 0 0 2 98 24 100 100
0 0 0 0 0 0 0 0 0 42 6 95 10 96 100 88 4 5 7 4 18 2 6 0 36 0 6 7 0 0 28 51 68 5 89 8 0 0 0 0 90 100 100
0 0 0 0 0 0 0 0 0 0 0 0 4 0 0 15 15 6 58 3 2 76 12 37 0 35 45 0 0 35 6 4 68 100 78 29 43 6 0 0 0 3 15
0 0 0 0 0 2 2 1 5 0 0 0 0 0 32 22 19 4 2 3 10 30 19 0 12 71 72 0 0 5 0 1 20 46 16 80 82 73 46 0 0 0 0
0 0 0 0 5 22 1 1 0 0 0 0 24 0 1 0 0 0 0 1 16 6 0 0 58 0 0 0 0 0 0 0 0 4 2 4 42 100 100 98 4 0 0
0 0 0 0 0 0 0 0 1 5 0 0 0 0 0 0 0 0 0 0 0 60 0 0 0 0 0 0 0 35 51 65 22 1 0 2 5 11 96 100 63 42 99
0 0 0 0 0 0 0 0 0 0 0 0 0 0 0 0 0 0 0 0 0 78 66 0 0 0 0 0 1 0 2 57 69 87 100 60 5 38 38 97 100 94 78
0 0 0 0 0 0 0 0 0 0 0 0 0 0 91 3 0 0 0 0 0 0 0 0 0 0 0 0 0 0 19 1 90 44 30 100 100 71 19 100 100 96 90
0 0 0 0 0 0 0 0 0 0 0 0 0 0 0 0 0 0 0 0 0 0 0 0 0 0 0 0 0 0 4 3 5 84 76 26 11 100 100 80 100 100 94
0 0 0 0 0 0 0 0 0 0 0 0 0 0 0 0 0 0 0 0 0 0 0 0 0 0 0 0 0 0 0 0 9 13 100 100 96 23 95 100 80 100 99
0 0 0 0 0 0 0 0 0 0 0 0 0 0 0 0 0 0 0 0 0 0 0 3 2 1 5 2 0 0 0 0 0 3 8 58 100 100 100 98 100 100 100

GFSSE_prec_cloud_012.txt.gz
Cloud_Cover
52 100 87 70 100 97 100 99 99 71 73 76 12 47 65 3 0 0 0 0 1 0 1 6 4 1 6 6 2 2 1 0 2 5 0 0 0 0 8 14 1 4 0
96 80 13 96 100 100 100 97 22 100 72 98 5 5 8 0 0 0 0 0 0 1 9 5 5 11 0 0 2 4 5 5 5 95 7 0 0 0 1 15 0 0 3
100 95 59 32 42 100 98 82 98 100 97 13 88 89 0 0 0 0 0 5 0 2 5 98 99 29 0 0 0 5 6 12 6 20 32 5 2 2 0 22 0 0 2
86 100 28 5 5 6 15 90 24 94 56 100 81 0 3 0 0 1 6 0 4 10 5 3 6 8 0 0 4 5 5 20 60 100 100 100 46 6 5 0 0 0 0
13 5 5 19 5 5 2 1 82 83 90 30 0 4 0 0 0 0 0 0 1 0 9 6 4 2 1 0 21 95 89 100 100 100 100 100 100 35 63 1 10 3 0
3 5 5 48 5 5 65 84 100 70 2 0 0 0 0 0 0 0 0 0 0 0 0 0 5 13 0 0 3 99 99 100 100 100 100 92 100 100 100 11 5 1 7
0 0 2 5 20 56 78 14 0 0 0 0 0 0 0 0 0 0 0 0 0 0 0 0 2 21 3 0 22 100 100 100 100 100 100 100 100 100 100 100 10 5 5
1 0 0 4 5 5 2 0 0 0 0 0 0 0 0 3 1 0 0 2 0 0 0 0 0 0 5 0 7 67 100 100 100 100 100 100 89 100 100 100 16 5 11
3 0 0 0 0 0 0 0 0 0 0 0 0 0 8 5 5 3 4 0 0 0 0 0 0 0 0 1 37 36 97 100 100 100 100 100 100 100 100 100 99 62 7
0 0 0 0 0 0 0 0 0 0 0 0 0 62 86 67 97 99 4 0 0 0 0 0 0 0 0 2 0 6 21 100 100 85 100 100 100 100 100 100 100 98 57
0 0 0 0 0 0 0 0 0 0 0 0 51 100 82 86 20 87 26 0 0 0 0 0 0 0 0 0 0 3 4 91 100 100 100 100 100 100 100 100 100 100 98
0 0 0 0 0 0 0 0 0 0 0 0 71 100 38 82 44 84 5 0 0 2 0 2 0 0 0 0 0 10 95 37 9 10 58 95 100 100 100 100 100 100 99
0 0 0 0 0 0 0 0 3 0 0 0 4 100 47 100 84 50 25 2 0 3 0 5 0 68 48 2 92 100 76 48 0 0 0 0 52 100 100 100 100 82 93
0 0 0 0 0 0 0 0 0 0 0 0 0 0 6 56 25 37 4 0 0 0 0 0 48 98 5 100 23 12 3 1 14 51 0 0 0 38 100 100 100 100 67
0 0 0 0 0 0 0 0 0 0 0 0 0 0 0 0 0 1 4 0 3 1 1 21 99 52 84 3 5 5 6 92 4 2 5 4 0 0 62 100 100 100 100
0 0 0 0 0 0 0 0 0 0 0 0 13 14 0 0 0 0 5 1 5 2 45 81 0 99 34 67 54 1 79 48 41 28 5 8 10 4 0 63 100 100 91
0 0 0 0 0 0 0 0 0 0 13 0 17 1 100 7 12 5 2 0 0 2 4 28 10 6 27 10 1 0 32 0 83 16 68 46 6 14 1 0 90 100 100
0 0 0 0 0 0 0 0 0 1 18 40 1 0 0 0 2 0 1 5 0 0 3 0 0 10 100 83 0 44 11 0 73 99 19 6 5 5 5 1 0 4 2
0 0 0 0 0 0 2 0 0 0 0 3 0 0 0 0 0 0 0 0 0 47 0 0 0 7 53 0 0 2 3 6 1 0 5 83 31 10 15 5 0 3 0
0 0 0 2 5 5 0 0 0 0 0 0 0 0 0 0 0 0 0 0 0 0 0 0 57 0 0 0 0 0 1 18 0 0 0 4 18 75 99 100 5 4 1
0 0 0 5 0 0 0 2 4 5 0 0 0 0 0 0 0 0 0 0 0 0 0 0 0 0 0 0 0 0 5 8 15 5 0 2 5 0 3 5 31 44 63
0 0 0 0 0 0 0 0 0 0 0 0 0 0 0 0 0 0 0 0 0 0 0 0 0 0 0 0 0 0 0 83 99 33 5 51 58 5 5 1 27 100 100
0 0 0 0 0 0 0 0 0 0 0 0 0 0 0 0 0 0 0 0 0 0 0 0 0 0 0 0 1 0 0 0 26 43 74 100 100 97 59 43 7 6 96
0 0 0 0 0 0 0 0 0 0 0 0 0 0 0 73 14 0 0 0 0 0 0 0 0 0 0 0 0 0 0 0 0 2 58 41 100 100 100 100 53 5 8
0 0 0 0 0 0 0 0 0 0 0 0 0 0 0 0 0 0 0 0 0 0 0 0 0 0 0 4 5 0 0 4 0 4 1 0 8 34 97 100 100 100 32
0 0 0 0 0 0 0 0 0 0 0 0 0 0 0 0 0 0 0 0 0 0 0 0 0 0 0 0 0 0 0 1 1 4 5 5 34 100 65 56 97 100 100

GFSSE_prec_cloud_015.txt.gz
Cloud_Cover
96 100 100 100 100 100 100 100 33 4 3 85 100 7 100 52 0 0 2 0 7 6 5 22 5 5 6 2 0 0 6 5 5 5 5 5 17 8 3 15 7 0 8
87 100 100 100 46 88 28 5 86 53 24 100 8 100 9 0 0 0 3 0 0 5 36 42 14 5 5 2 5 5 7 5 8 5 43 36 20 31 9 0 4 0 7
98 100 100 12 5 5 5 5 5 58 52 11 42 0 0 0 0 1 0 1 3 5 5 25 24 7 4 5 5 35 18 90 100 100 100 100 26 94 18 1 5 4 4
34 7 5 3 4 4 5 4 0 5 40 65 0 0 0 0 4 1 0 0 0 2 11 6 10 6 3 63 7 97 100 100 100 100 100 100 100 65 90 8 3 3 2
25 5 5 5 5 6 5 6 94 100 16 0 0 0 0 0 0 0 0 1 13 4 3 5 2 5 42 40 66 100 100 100 100 100 100 98 99 100 100 18 5 6 0
1 0 0 0 0 2 2 35 5 0 0 0 0 0 0 0 0 0 0 1 0 0 0 4 2 0 5 27 66 100 100 100 100 100 100 100 50 57 100 84 5 5 4
0 0 0 0 0 0 3 0 0 0 0 0 0 0 1 4 4 0 0 0 0 0 0 0 0 2 4 65 97 100 100 100 100 100 100 100 26 69 100 100 100 38 18
0 0 2 0 0 0 0 0 0 0 0 0 0 8 5 5 0 0 0 3 0 0 0 0 0 4 5 65 57 100 100 100 100 100 99 99 90 80 100 100 100 96 99
0 0 0 0 0 0 0 0 0 0 0 0 31 7 0 7 5 5 0 0 0 0 0 0 0 1 89 93 100 100 100 100 100 100 97 97 100 58 69 100 99 100 98
0 0 0 0 0 0 0 0 0 0 0 36 31 4 6 84 16 8 5 0 0 0 0 0 0 0 4 5 5 6 66 100 100 100 100 100 100 100 90 34 60 99 100
21 1 0 0 0 0 0 0 0 0 1 100 100 46 18 21 36 58 5 4 0 0 0 0 0 0 1 2 0 1 6 6 31 50 54 68 100 100 100 94 100 88 100
34 44 7 6 1 12 0 0 0 0 9 100 100 70 94 85 33 10 62 4 0 0 0 0 1 0 0 0 33 70 92 64 10 0 0 0 28 100 100 100 91 100 100
8 29 37 11 11 4 0 6 25 8 5 60 99 100 100 100 14 5 5 5 1 0 0 0 0 68 3 0 3 100 29 0 2 0 0 0 0 56 100 100 100 100 100
8 0 12 12 17 10 0 16 16 5 13 23 12 0 1 11 5 5 5 15 6 0 0 0 22 100 66 86 78 4 0 24 0 22 0 0 0 0 98 100 100 100 100
0 0 0 2 1 1 0 13 28 13 2 0 0 2 3 2 3 5 5 7 4 6 2 70 80 100 100 100 99 19 15 98 9 0 2 4 3 4 17 85 100 100 100
0 0 0 0 0 0 0 0 3 0 0 0 0 0 0 0 3 2 0 0 0 3 45 58 38 90 100 65 100 0 24 96 6 0 1 4 18 2 5 26 6 42 56
0 0 0 0 0 0 0 0 0 0 0 0 17 95 17 24 0 4 0 0 0 0 0 0 79 2 57 59 96 17 14 0 99 0 0 0 5 5 4 5 5 5 0
0 0 0 0 0 0 0 0 0 0 0 0 5 0 41 0 0 0 0 0 0 0 0 0 0 0 61 100 20 0 4 18 35 87 0 1 0 6 5 5 5 5 0
0 0 0 0 0 0 0 0 0 0 0 0 0 0 0 0 0 0 0 0 0 0 0 0 0 0 0 1 0 0 0 0 0 0 29 32 16 2 0 2 3 5 5
0 0 0 0 0 3 0 0 0 1 0 0 0 0 0 0 0 0 0 0 0 0 0 0 0 0 0 0 0 0 0 0 0 0 1 4 4 75 98 29 3 3 1
0 0 0 3 5 0 0 0 0 0 0 0 0 0 0 0 0 0 0 0 0 0 0 0 0 0 0 0 0 0 0 0 40 0 2 5 68 9 8 5 4 5 5
0 0 0 3 0 0 0 0 0 0 0 0 0 0 0 0 0 0 0 0 0 0 0 0 0 0 0 0 0 0 0 4 86 0 0 0 9 60 16 99 63 12 15
0 0 0 0 0 0 0 0 1 0 0 1 0 0 0 0 0 0 0 0 0 0 0 0 0 0 0 1 2 0 0 0 0 49 0 6 1 7 80 100 100 100 100
0 0 0 0 0 0 0 0 0 0 0 0 0 0 0 0 0 23 0 0 0 8 0 0 0 0 0 5 4 0 0 0 0 3 2 0 4 27 48 92 100 100 100
0 0 0 0 0 0 0 0 0 0 0 0 0 0 0 0 0 16 0 0 0 2 0 0 0 0 0 0 0 0 0 0 0 0 0 0 0 0 4 5 47 92 87
0 0 0 0 0 0 0 0 0 0 0 2 0 0 0 7 3 0 0 0 0 0 0 0 0 0 0 0 0 0 0 0 0 0 0 1 5 0 0 0 0 0 2

GFSSE_prec_cloud_018.txt.gz
Cloud_Cover
100 100 100 100 100 100 100 100 94 27 75 95 89 81 100 6 0 1 0 1 0 5 4 3 5 5 0 2 48 96 91 8 5 5 11 5 46 79 14 1 3 8 2
100 100 100 100 73 89 24 2 0 3 6 8 82 77 0 0 0 0 0 2 0 2 2 1 5 5 0 5 20 100 100 100 96 78 100 79 5 8 15 2 0 10 4
100 100 100 100 82 4 0 5 2 2 8 18 4 0 0 28 0 0 4 0 0 4 5 4 8 2 4 4 100 100 100 100 100 100 100 100 100 62 67 76 6 1 0
59 9 15 6 3 5 5 36 28 95 55 0 0 0 0 0 0 3 0 0 0 0 1 6 1 25 38 84 100 100 76 100 78 99 90 96 84 89 20 81 91 15 5
5 0 1 0 0 0 2 12 4 1 0 0 0 2 0 5 9 0 0 9 0 0 0 0 6 20 20 35 100 99 95 89 94 53 98 100 81 95 100 100 67 92 44
0 0 0 0 0 0 4 0 0 0 0 0 0 0 0 2 0 0 20 20 18 0 2 1 2 5 100 100 100 100 81 95 5 100 100 97 90 79 70 100 100 78 72
2 0 1 0 0 0 1 0 0 0 0 0 0 0 0 0 0 3 0 0 0 5 0 1 4 0 5 97 100 100 100 32 7 49 76 98 100 100 94 73 100 100 96
0 0 0 0 0 0 0 2 1 0 0 0 0 2 0 0 0 0 0 0 3 0 0 0 5 1 5 91 100 100 100 88 100 80 100 100 47 94 100 94 100 89 100
0 0 0 0 0 0 0 0 0 0 0 0 0 3 5 1 1 0 0 0 0 0 1 2 2 5 0 3 16 56 94 99 100 100 100 98 87 100 67 22 100 100 100
0 0 0 0 0 0 0 0 0 0 0 5 5 5 5 0 5 4 4 0 0 0 0 2 27 0 0 0 0 0 0 0 1 3 5 97 100 100 100 100 100 100 94
15 6 0 0 0 0 0 0 0 4 43 81 5 5 5 22 5 5 5 0 0 0 0 1 0 0 0 0 0 0 0 2 0 0 1 3 100 100 100 100 100 66 71
36 35 3 0 0 4 0 0 0 5 99 82 4 5 5 5 5 5 9 4 0 0 0 0 0 0 0 0 0 55 0 4 0 0 0 0 56 100 100 100 82 62 100
25 29 19 4 6 6 0 4 12 4 12 15 5 25 23 7 5 5 14 27 2 0 0 3 0 94 19 3 0 2 0 0 0 0 0 0 4 100 100 100 100 99 100
22 16 19 13 17 21 15 15 14 14 8 12 5 0 0 1 5 4 0 0 37 0 0 0 25 98 100 88 100 67 1 8 0 0 1 0 1 84 100 100 100 17 68
12 20 32 34 34 37 16 30 28 26 11 2 1 0 0 5 4 0 0 0 0 0 1 95 77 100 100 83 52 63 5 95 74 0 0 5 0 3 37 62 96 98 100
0 0 8 37 34 30 17 25 18 24 8 0 0 0 0 0 0 2 0 0 3 0 43 81 75 68 94 80 75 94 1 36 10 0 0 3 3 0 2 6 56 43 18
0 0 0 6 18 14 4 2 21 7 1 0 0 0 0 1 0 0 0 0 0 0 0 11 41 0 98 8 100 11 0 4 75 0 0 0 0 0 0 0 5 5 5
0 0 0 0 0 0 0 0 0 0 0 0 0 1 100 91 0 0 1 2 0 0 0 7 1 0 31 18 98 2 5 6 22 23 0 0 0 0 0 0 0 5 5
0 0 0 0 0 0 0 0 0 0 0 0 0 58 0 0 4 37 0 0 0 0 0 0 0 0 0 0 0 0 0 0 0 0 68 44 0 0 0 0 0 0 0
0 0 0 0 0 0 0 0 0 0 0 0 0 0 0 0 0 0 0 0 0 0 0 0 0 0 0 0 0 0 0 0 0 0 0 0 0 44 5 2 5 6 4
0 0 0 0 0 0 0 8 6 0 0 0 0 0 0 0 0 0 0 0 0 0 0 0 0 0 0 0 0 0 0 0 0 0 0 0 4 10 5 5 9 5 73
0 0 0 0 0 0 0 0 0 0 0 0 0 0 0 0 0 0 0 0 0 0 0 0 0 0 0 0 0 0 0 0 0 0 0 0 5 5 5 84 5 47 88
0 0 0 0 0 0 0 0 6 2 2 1 0 0 0 0 0 0 0 0 0 0 0 0 0 0 1 4 0 0 2 0 0 0 0 1 0 3 17 45 40 38 77
0 0 0 0 0 0 0 0 0 0 0 0 0 0 0 0 0 0 0 0 0 0 0 0 0 0 0 0 4 22 46 5 4 5 4 0 0 0 0 0 1 3 5
0 0 0 0 0 0 0 0 0 0 0 0 0 0 0 0 0 0 0 0 0 0 0 0 0 0 0 0 0 4 5 5 5 31 24 5 4 0 0 0 0 0 0
0 0 0 0 0 0 0 0 0 0 0 0 0 0 0 0 0 0 0 0 0 0 0 0 0 0 0 5 5 5 5 8 13 5 26 12 21 4 0 0 0 0 0

GFSSE_prec_cloud_021.txt.gz
Cloud_Cover
100 100 100 100 100 100 100 100 96 78 5 0 1 3 0 0 4 7 0 0 15 0 2 40 6 0 5 8 18 49 100 69 81 96 40 8 1 6 1 0 0 20 11
100 94 100 38 94 100 98 4 5 0 1 5 3 0 0 0 2 4 0 0 0 0 0 5 8 12 1 44 87 31 99 95 86 100 100 100 18 5 14 5 5 10 8
100 84 70 12 100 95 5 2 25 5 95 1 0 0 1 3 1 0 1 0 0 0 4 6 5 3 70 99 88 98 66 13 46 89 28 38 25 14 6 16 5 7 4
100 15 5 48 50 0 0 3 9 0 0 0 0 1 6 3 0 5 2 0 2 2 4 3 0 0 51 100 81 5 94 6 20 20 90 54 42 42 99 100 10 5 5
34 3 4 0 0 0 0 0 0 0 0 0 4 0 0 6 4 0 0 0 64 5 0 5 32 4 19 100 29 100 95 42 91 95 100 47 87 92 89 100 100 84 6
0 0 0 1 0 0 0 0 1 0 0 0 0 1 3 2 1 0 0 0 0 0 0 2 97 98 87 92 100 100 97 57 79 97 100 97 96 85 56 61 8 14 80
5 2 1 0 0 0 0 0 0 0 0 0 0 0 0 4 5 0 0 0 0 0 0 0 2 5 5 58 13 100 100 39 32 74 80 100 84 49 48 39 14 24 99
10 30 25 0 0 0 2 0 0 0 0 0 0 3 0 0 2 4 11 0 1 0 1 0 0 0 5 4 5 11 92 65 81 56 77 100 88 100 100 10 100 65 100
19 19 12 0 0 0 1 0 0 0 0 0 0 0 12 5 1 0 0 0 0 0 0 0 0 0 0 0 0 0 0 2 4 34 100 100 100 100 100 92 100 93 99
24 1 30 0 0 0 0 0 0 0 0 0 3 2 83 5 5 0 0 0 1 0 0 0 0 0 0 0 0 3 0 0 3 5 28 100 100 100 100 100 100 100 35
24 9 1 0 0 0 0 0 2 4 4 0 0 0 5 96 0 5 0 0 2 0 0 0 0 0 0 0 0 0 0 0 0 1 1 96 100 86 100 100 100 78 43
0 0 0 0 0 0 0 0 4 5 3 0 1 5 2 1 0 0 0 0 0 0 0 0 0 0 5 5 4 1 0 0 0 0 0 96 100 100 100 100 100 100 97
0 0 0 0 0 0 0 0 29 5 2 0 0 0 0 0 0 0 0 5 0 0 0 0 0 95 90 2 93 34 0 0 0 0 0 4 72 100 100 100 92 100 76
0 0 0 0 0 0 0 4 0 1 0 0 0 0 0 0 0 0 0 0 0 0 0 0 27 31 94 89 22 38 3 0 0 0 0 3 84 100 23 94 100 100 96
0 0 0 0 0 0 4 0 0 0 0 0 0 0 0 0 0 0 0 0 0 0 4 79 57 33 87 55 24 76 13 0 0 0 0 0 0 1 5 100 35 13 13
0 0 0 0 0 0 0 1 0 0 0 0 0 0 0 0 0 0 0 0 0 0 55 83 100 90 100 73 5 44 3 0 15 1 0 0 0 0 0 16 5 1 14
0 0 1 10 6 7 0 2 0 0 0 0 0 0 0 0 0 0 0 0 0 0 6 3 58 20 77 0 100 16 0 83 0 0 0 0 0 0 0 0 1 53 5
0 0 0 0 5 9 3 3 0 0 0 0 0 0 0 1 0 0 0 0 0 0 0 0 0 0 23 0 0 66 0 0 0 0 0 0 0 0 0 0 0 0 4
0 0 0 0 1 0 5 0 0 0 0 0 0 0 0 3 14 0 0 0 0 0 0 0 0 0 0 0 0 0 0 0 0 0 0 0 0 5 5 5 4 2 2
0 0 0 0 0 2 0 1 0 0 0 0 0 0 0 0 0 0 0 0 0 0 0 0 0 0 0 0 0 0 0 0 0 0 0 0 0 1 0 0 1 5 76
0 0 0 0 0 0 0 0 0 0 0 0 0 0 0 0 0 0 0 0 0 0 0 0 0 0 0 2 5 4 1 5 5 5 5 4 1 0 0 0 0 0 17
0 0 0 0 0 0 0 0 0 0 0 0 0 0 0 0 0 0 0 0 0 0 0 0 0 0 0 0 0 5 5 5 5 5 5 5 5 5 44 12 5 0 0
0 0 0 0 0 0 0 0 0 0 0 0 0 0 0 0 0 0 0 0 0 0 0 0 0 0 0 0 2 5 5 5 5 5 6 6 5 6 20 7 58 51 0
0 0 0 0 0 0 0 0 0 0 0 0 0 0 0 0 0 0 0 0 0 0 0 0 0 0 0 0 0 5 56 41 47 5 52 100 99 99 41 91 81 85 1
0 0 0 0 0 0 0 0 0 0 0 0 0 0 0 0 0 0 0 0 0 0 0 5 0 0 0 0 0 37 10 45 69 21 68 100 96 98 10 51 58 91 26
0 0 0 0 0 0 0 0 0 0 0 0 0 0 0 0 0 0 0 0 0 0 0 2 0 0 0 0 0 4 88 7 7 6 90 100 60 23 64 28 31 28 80

GFSSE_prec_cloud_024.txt.gz
Cloud_Cover
100 100 90 100 100 100 100 100 7 0 0 1 5 0 11 0 0 0 0 0 4 3 0 5 2 0 7 5 97 91 91 100 11 88 9 5 2 0 0 0 6 16 4
100 100 100 99 100 100 100 27 1 1 1 3 3 10 0 0 0 0 0 0 0 5 2 0 0 3 8 5 20 5 5 94 100 100 67 12 7 9 12 6 10 0 12
100 100 9 56 100 100 12 0 0 2 0 0 0 0 0 1 0 0 0 1 0 0 2 5 6 39 15 32 28 66 27 46 70 5 6 100 31 80 100 75 39 5 29
86 47 12 16 4 1 2 0 0 0 0 0 0 1 1 4 0 0 0 0 0 0 2 3 5 100 87 5 71 62 85 57 96 100 94 99 10 27 28 25 82 7 6
100 100 16 0 0 0 5 0 0 0 0 0 0 0 0 2 0 4 0 0 0 4 5 4 0 0 5 82 100 93 92 91 98 100 100 100 82 18 10 72 5 9 42
100 96 0 0 0 0 0 0 0 0 1 2 0 0 0 8 7 0 0 0 0 0 5 5 5 8 91 100 100 100 100 100 100 100 100 100 90 97 100 88 10 5 100
100 66 0 0 0 0 0 0 0 0 0 1 0 0 5 3 3 0 0 0 0 0 0 5 5 84 78 53 78 89 78 40 35 100 98 98 80 100 92 54 99 7 91
100 71 0 0 0 0 0 0 0 0 0 0 0 4 4 1 0 0 4 6 0 0 0 0 0 0 0 0 0 0 2 5 96 100 97 100 100 100 100 82 96 14 39
100 83 0 0 0 0 0 0 0 0 0 5 3 98 5 0 0 0 0 0 0 0 0 0 0 0 0 0 1 0 0 3 62 100 100 82 100 100 100 100 100 89 15
100 20 0 0 0 1 0 1 0 0 4 3 68 12 61 0 0 0 0 0 0 0 0 0 0 0 0 0 0 0 0 0 54 92 69 97 97 100 100 100 100 100 5
99 30 0 0 0 1 0 0 0 4 5 4 5 4 0 70 88 87 8 0 0 0 0 0 0 0 0 0 0 0 0 62 96 95 100 99 99 32 100 100 100 100 100
23 40 3 0 0 0 0 0 3 7 0 4 2 2 61 13 38 53 6 0 0 0 0 0 2 6 51 89 18 55 9 21 38 71 98 89 97 99 18 31 84 99 100
3 7 4 0 0 0 0 3 77 5 0 0 0 0 27 39 16 64 60 79 5 6 98 96 100 72 99 93 34 28 18 12 9 13 1 46 80 100 87 96 91 59 98
1 0 0 2 0 0 1 6 0 0 0 0 0 0 4 18 6 4 43 2 0 36 33 19 57 22 37 85 98 26 40 25 49 11 1 0 0 3 5 45 32 43 65
0 0 0 1 1 0 0 0 0 0 0 0 0 0 0 39 14 18 0 4 9 22 96 38 6 7 63 51 92 50 12 25 37 23 4 0 0 0 3 52 5 7 5
0 0 0 0 0 0 0 0 0 0 0 0 0 0 0 14 2 48 26 32 96 88 94 0 1 52 96 72 53 2 24 38 11 14 1 0 0 0 0 0 0 2 5
0 0 0 0 2 9 8 1 0 0 0 0 0 0 0 0 0 4 56 21 80 18 2 6 6 56 15 7 7 16 58 16 17 38 56 93 30 0 0 0 0 5 6
1 1 4 1 2 5 2 2 0 0 0 0 0 1 0 0 1 4 14 3 51 0 1 43 10 1 10 7 4 6 10 13 21 8 22 88 65 88 4 0 0 0 2
11 16 16 4 6 10 16 1 0 0 0 0 0 0 0 0 0 4 8 27 0 56 2 10 9 3 5 5 5 11 7 5 5 22 43 27 28 98 99 17 0 0 0
6 14 18 4 11 9 8 4 0 0 0 0 0 0 0 0 0 0 85 0 0 62 31 19 4 1 4 5 5 5 7 40 5 12 50 23 11 8 97 99 100 99 2
0 5 6 0 11 1 1 0 0 0 0 0 0 0 0 0 7 0 59 0 0 12 20 7 5 4 0 1 5 5 5 5 5 5 5 86 5 4 12 66 99 100 18
0 0 1 0 1 7 0 0 0 0 0 0 0 0 0 0 0 0 77 0 1 20 1 4 0 28 0 0 2 10 38 11 10 5 5 85 24 0 5 99 98 84 52
0 0 0 0 0 1 0 0 0 0 0 0 0 0 0 0 0 0 1 0 9 3 25 8 3 1 18 0 0 13 37 79 17 52 61 54 88 5 5 96 98 58 23
0 0 0 0 2 5 0 0 0 0 0 0 0 0 0 0 0 0 0 0 0 2 13 8 17 3 0 0 0 0 0 5 50 94 62 30 96 60 5 36 99 100 99
0 0 0 0 0 0 0 0 0 0 0 0 0 0 0 0 0 0 0 0 0 0 8 8 11 0 1 0 0 0 0 0 0 1 99 58 5 6 42 32 63 100 100
0 0 0 0 0 0 0 0 0 0 0 0 0 0 0 0 0 0 0 0 0 0 2 24 45 13 0 0 0 0 0 0 0 2 5 4 31 51 15 25 33 94 98

GFSSE_prec_cloud_027.txt.gz
Cloud_Cover
100 100 97 8 15 92 100 100 100 9 1 0 0 0 0 0 0 0 0 0 9 1 5 3 0 3 10 11 5 36 13 52 80 5 5 5 2 6 4 0 9 17 2
100 100 100 5 5 78 100 100 11 0 0 0 0 0 0 3 1 0 0 0 0 11 3 0 0 0 1 4 4 5 5 17 12 5 6 5 66 100 96 5 21 4 2
100 100 99 5 1 34 72 0 0 0 0 0 6 0 1 5 0 0 0 0 3 6 2 2 1 4 5 5 22 5 37 9 7 6 60 88 6 5 100 89 5 4 6
100 100 55 0 0 0 1 0 1 1 0 1 4 0 0 0 0 0 0 3 1 0 4 5 100 71 5 82 83 96 85 62 34 90 98 81 21 5 20 5 2 73 10
84 100 89 0 0 0 0 0 0 0 0 4 0 0 3 1 0 0 16 0 3 0 0 1 25 6 57 78 99 100 100 100 100 100 100 85 75 5 99 17 5 89 83
100 100 100 0 0 0 0 0 0 0 0 4 0 0 0 10 0 1 0 0 5 0 16 31 36 77 99 100 100 59 24 75 93 99 96 100 88 97 95 36 17 5 97
100 100 100 0 0 1 0 0 0 0 2 0 0 0 0 3 0 2 1 0 0 0 0 0 0 0 0 0 0 0 5 5 100 99 98 99 80 100 88 14 5 6 46
84 95 100 0 0 0 0 0 0 0 0 5 3 0 0 1 4 4 1 0 0 0 0 0 0 0 0 0 0 0 3 58 100 100 86 98 100 100 100 94 88 51 47
100 5 97 0 0 0 0 0 0 0 0 5 5 0 0 0 0 0 0 0 0 0 0 0 0 0 0 0 0 0 0 60 57 90 95 88 66 100 100 100 100 100 39
68 0 0 0 0 0 0 0 0 0 0 5 3 0 0 0 0 0 0 0 0 0 0 0 0 0 0 0 0 0 0 1 18 75 98 69 100 99 100 100 100 100 72
100 1 0 0 0 0 0 3 0 0 3 5 0 0 4 100 21 31 0 0 0 0 0 0 0 0 1 8 0 0 54 69 100 86 99 97 90 5 35 24 99 97 100
89 34 12 0 0 0 0 0 0 0 3 22 55 0 100 44 12 38 0 0 0 0 3 41 7 98 96 100 62 30 37 56 97 100 88 100 94 69 5 89 45 42 95
87 19 5 1 0 0 23 5 4 0 30 34 19 25 92 85 35 68 44 78 11 57 9 65 45 62 5 18 5 67 1 40 39 5 1 7 5 5 5 5 5 5 44
34 29 0 0 0 0 15 5 0 23 67 71 0 0 35 75 22 94 100 76 68 93 99 99 100 90 84 2 36 0 10 99 55 64 0 0 0 5 5 5 3 5 10
13 8 3 0 0 5 7 0 21 25 10 84 20 0 26 88 16 82 21 94 66 95 96 0 14 5 0 100 20 2 77 10 12 100 0 0 0 0 1 2 1 1 4
1 2 5 0 0 0 0 4 3 0 25 11 22 0 0 65 24 100 68 99 99 62 53 19 21 94 26 83 2 3 81 15 4 36 48 4 4 5 4 2 0 4 5
0 0 0 0 0 0 0 0 0 0 2 6 4 0 0 0 1 70 88 66 100 24 15 65 24 99 12 61 70 5 100 52 57 29 99 99 42 63 7 5 0 0 4
2 0 0 4 1 1 0 0 0 0 0 1 0 0 0 0 7 2 68 27 100 4 95 100 96 16 84 69 100 96 44 62 91 92 61 100 100 100 100 48 2 0 0
0 8 0 0 5 3 1 0 0 0 0 0 0 0 0 4 5 10 27 92 0 95 47 56 86 18 9 8 51 67 100 100 100 97 66 28 84 100 100 100 69 35 0
4 1 0 6 26 1 16 0 0 0 0 0 0 0 0 1 6 0 48 0 0 100 15 61 24 3 0 5 9 58 63 92 48 86 56 43 74 91 100 100 100 97 5
0 0 0 1 7 24 27 6 0 0 0 0 0 0 0 0 10 17 25 88 0 81 3 0 14 2 19 0 6 5 66 97 38 23 46 5 24 100 100 100 100 100 100
0 0 0 0 0 0 6 0 0 0 0 0 0 0 0 0 1 100 1 1 28 13 10 1 0 62 0 0 60 95 86 63 35 36 5 50 13 7 100 100 100 97 100
0 0 0 0 0 0 1 2 0 0 0 0 0 0 0 0 0 89 11 0 16 4 82 10 0 6 98 0 0 51 54 98 42 72 5 12 9 22 92 100 100 100 100
0 0 0 0 0 0 0 0 0 0 0 0 0 0 0 0 0 0 2 0 0 0 0 4 0 14 4 6 0 0 0 14 99 90 87 13 5 5 9 90 100 100 23
0 0 0 0 0 0 0 0 0 0 0 0 0 0 0 0 0 0 0 2 1 0 0 0 1 0 4 0 0 0 0 0 0 88 50 80 15 2 13 57 99 98 92
0 0 0 0 0 0 0 0 0 0 0 0 0 0 0 0 0 0 0 0 0 0 2 0 0 2 0 0 0 0 1 3 10 11 51 28 48 34 15 88 100 93 93

GFSSE_prec_cloud_030.txt.gz
Cloud_Cover
100 100 100 100 80 5 99 100 100 83 0 0 0 0 0 0 0 0 0 3 4 4 1 0 6 4 1 4 0 2 5 5 0 0 3 4 97 96 4 4 81 0 0
100 100 100 100 12 0 6 7 4 0 0 0 0 0 0 0 0 0 0 1 4 5 5 0 0 0 6 4 8 4 6 4 5 5 5 3 29 96 99 10 98 2 3
100 100 100 100 1 0 0 0 0 0 0 0 0 0 0 0 0 0 0 0 4 6 1 3 6 5 5 5 6 29 31 5 6 5 40 18 4 14 20 24 5 17 29
100 100 100 100 0 0 0 0 0 0 0 0 0 0 0 0 0 0 6 2 0 2 7 98 58 6 5 17 100 100 100 29 39 99 94 34 5 4 25 5 32 97 15
100 97 20 99 0 0 0 0 0 0 0 4 0 0 0 1 0 5 0 0 0 0 4 7 31 100 98 36 27 7 35 70 84 99 100 69 12 6 29 4 5 6 87
72 95 11 82 0 0 0 0 0 0 0 0 0 1 1 0 6 0 0 0 0 1 4 3 1 0 22 0 0 0 2 34 36 84 100 100 98 98 37 15 54 5 21
91 38 0 5 0 0 0 0 0 0 0 0 0 4 2 3 0 0 0 0 0 0 0 0 0 0 0 0 0 0 5 11 100 73 57 99 89 96 100 6 4 1 22
54 3 0 0 2 0 0 0 0 0 0 4 3 2 17 11 0 0 0 0 0 0 0 0 0 0 0 0 0 5 7 39 100 87 100 100 100 100 100 100 90 18 57
37 0 0 9 1 0 0 0 0 0 9 9 0 0 0 0 0 0 0 0 0 0 0 0 0 0 0 0 0 2 6 6 14 66 47 67 65 68 100 100 99 5 5
6 0 0 0 2 0 0 2 0 0 0 0 0 0 4 1 1 0 0 0 0 0 0 0 0 0 0 0 0 0 52 99 91 20 46 82 57 54 26 79 49 25 80
61 0 0 0 0 0 0 0 0 0 0 2 100 100 100 100 100 0 0 0 0 0 0 0 1 19 74 11 0 84 84 85 76 100 8 5 45 3 6 5 5 13 87
93 0 0 0 0 0 0 0 0 0 0 87 100 100 82 3 2 0 0 0 0 18 0 2 3 12 99 4 87 0 14 1 23 20 20 5 5 5 5 4 5 4 90
95 0 0 0 0 0 0 0 0 0 0 100 100 100 100 40 98 32 52 25 31 98 86 97 2 52 94 0 62 1 100 100 94 5 0 0 5 5 5 1 0 5 9
0 84 1 0 5 4 8 0 0 0 77 1 88 2 54 19 100 49 78 98 100 100 52 7 19 12 5 5 12 0 100 100 100 81 7 4 0 5 5 5 5 6 2
0 96 20 0 0 42 93 0 1 100 0 85 3 0 72 8 76 67 78 85 100 100 78 79 25 10 5 91 88 9 29 91 73 5 7 3 5 5 5 0 4 3 5
28 88 0 0 0 9 26 17 100 19 51 96 92 0 0 82 7 6 23 96 26 24 19 34 33 57 79 46 5 100 82 5 37 56 31 72 43 52 4 1 5 2 16
6 59 17 0 0 0 0 0 4 0 73 1 100 0 0 6 18 69 32 33 34 30 28 42 21 96 97 84 42 98 37 51 5 97 97 99 17 5 5 0 0 0 1
2 0 0 0 0 0 0 0 0 0 1 100 12 0 0 0 0 0 78 61 24 100 78 0 5 100 5 100 65 100 99 38 15 73 98 95 61 99 59 1 4 1 0
0 0 0 0 0 0 0 0 0 0 0 1 24 0 0 0 0 0 5 64 0 89 36 46 2 75 80 37 99 50 60 91 100 99 63 73 47 72 100 48 5 5 2
0 0 0 0 0 0 0 0 2 0 0 0 0 0 0 0 0 0 0 12 0 70 0 37 9 0 0 0 77 25 73 71 91 73 85 100 6 74 100 83 100 91 20
0 0 0 0 0 5 0 0 0 0 2 0 0 0 0 1 12 2 0 46 3 20 3 0 0 0 0 0 0 0 1 6 10 100 100 14 80 100 100 100 34 91 100
0 0 0 0 0 0 0 0 0 0 0 0 0 0 0 99 86 0 0 32 59 73 1 0 0 30 2 0 55 99 90 16 43 37 0 0 9 100 100 100 88 24 24
0 0 0 0 0 0 0 0 0 0 0 0 0 0 0 7 100 99 0 0 30 50 19 0 0 0 0 0 4 39 59 77 46 96 5 3 23 100 98 52 5 13 28
0 0 0 0 0 0 0 0 0 0 0 0 0 0 0 0 7 42 0 0 0 4 2 0 0 0 6 5 0 0 0 18 2 63 5 19 67 89 99 100 77 14 54
0 0 0 0 0 0 0 0 0 0 0 0 0 0 0 0 0 0 10 0 0 0 0 0 0 0 0 0 0 0 0 0 0 27 17 29 5 61 49 97 96 34 100
0 0 0 0 0 0 0 0 0 0 0 0 0 0 0 0 0 0 0 0 0 0 0 0 0 0 0 0 0 0 0 0 3 5 100 63 45 21 9 76 81 29 92

GFSSE_prec_cloud_033.txt.gz
Cloud_Cover
98 100 100 100 100 0 2 0 0 0 2 0 0 0 0 0 0 0 1 3 50 5 0 1 0 3 1 0 0 4 0 0 0 0 4 94 100 23 0 7 0 12 5
66 100 100 100 57 0 0 0 0 4 0 0 0 0 0 0 0 0 5 5 5 5 3 0 1 5 5 5 2 5 0 4 5 5 3 10 9 98 5 4 5 0 1
81 59 77 54 99 0 0 0 4 0 0 0 0 0 0 0 0 0 4 4 4 0 1 8 6 5 4 2 5 5 5 4 2 9 4 0 0 19 9 28 4 10 2
5 8 77 55 79 0 0 0 0 0 0 0 0 0 0 0 0 0 1 3 7 9 100 100 5 46 45 5 4 6 75 56 5 88 94 8 0 41 11 2 4 6 44
0 1 41 2 47 0 0 0 0 0 0 0 0 0 0 0 0 5 3 2 0 24 5 13 94 19 5 1 0 0 5 43 5 52 100 12 5 3 4 5 11 5 8
0 0 4 0 1 0 0 0 0 0 0 0 0 0 1 0 8 0 0 1 3 2 4 0 0 0 0 0 0 0 0 35 71 8 98 100 100 94 61 23 9 0 5
0 0 0 0 0 0 0 0 0 0 1 0 0 0 0 0 0 1 0 0 0 0 0 0 0 0 0 0 4 5 9 97 92 99 67 100 99 100 100 68 40 4 33
0 0 0 0 0 0 0 0 0 0 0 0 0 0 0 0 0 0 0 0 0 0 0 0 0 0 0 0 2 25 5 52 84 19 24 69 64 28 100 100 84 5 5
0 0 0 0 0 0 0 0 2 0 0 0 3 4 15 1 0 0 0 0 0 0 0 0 0 0 0 0 2 30 8 2 3 5 7 6 6 12 89 99 30 34 49
0 0 0 0 0 0 0 0 0 0 96 100 100 100 34 79 0 0 0 0 0 0 0 0 1 0 0 0 0 19 57 5 5 5 5 5 12 5 13 5 5 6 22
0 0 0 0 0 0 0 0 0 1 100 94 100 55 5 0 0 0 0 0 0 0 0 0 4 66 30 1 0 19 100 57 28 5 4 5 4 2 5 5 4 7 5
0 0 0 0 0 0 0 0 0 4 96 91 100 100 53 2 88 63 0 9 8 0 48 0 0 1 0 0 0 15 4 4 25 0 2 5 5 5 3 5 0 6 21
0 0 0 0 0 0 0 0 0 99 85 57 100 100 4 32 39 100 75 55 4 10 8 3 2 12 5 4 2 64 45 91 97 5 5 5 8 5 1 2 5 4 5
0 0 0 0 0 0 0 0 0 79 35 15 100 88 4 8 1 96 80 73 58 84 5 0 3 4 10 21 77 5 61 100 98 12 4 2 5 5 2 1 5 3 1
0 0 0 0 0 0 0 0 0 1 2 98 17 11 0 0 2 5 92 38 28 5 21 6 5 5 32 89 7 5 7 70 81 33 0 1 2 2 12 0 3 2 3
0 0 0 0 0 0 0 0 0 53 40 5 25 0 0 64 10 10 68 8 22 2 6 15 5 5 64 28 5 80 20 12 25 80 12 5 1 0 0 3 0 1 0
0 11 0 0 0 0 34 0 0 2 46 59 93 10 0 3 0 0 28 32 0 0 0 0 13 34 99 100 36 19 37 5 7 6 86 38 65 27 0 0 0 4 11
0 0 0 0 0 0 0 0 0 0 31 0 3 23 0 0 3 1 15 41 0 57 0 0 98 42 37 41 79 95 79 64 0 5 5 14 100 27 8 3 1 0 9
0 0 0 0 0 0 0 0 0 0 0 92 66 0 0 0 3 2 8 29 1 16 12 24 6 79 32 2 97 5 32 100 13 8 38 75 100 61 6 6 7 10 87
0 0 0 0 0 0 0 0 0 0 0 4 98 3 0 0 0 5 4 4 1 27 0 19 11 0 0 0 0 1 2 9 100 57 86 100 98 93 64 78 84 35 86
0 0 0 0 0 0 0 0 0 0 0 0 0 0 7 8 5 5 5 36 12 0 0 0 0 0 0 0 3 16 0 0 64 5 47 97 31 18 5 8 11 69 24
0 0 0 0 0 0 0 0 0 0 0 0 0 1 100 25 4 2 61 67 100 32 0 0 0 0 0 0 0 92 24 0 0 23 64 82 93 50 5 5 94 100 56
0 0 0 0 0 0 0 0 0 0 0 0 0 1 95 60 78 4 23 34 4 3 0 0 0 0 0 0 4 0 0 0 17 89 16 70 6 5 14 42 34 92 61
0 0 0 0 0 0 0 0 0 0 0 0 0 0 1 86 100 44 0 0 0 1 0 0 0 0 0 0 0 0 0 4 0 0 0 5 37 8 5 11 67 85 93
0 0 0 0 0 0 0 0 0 0 0 0 0 0 0 0 0 0 1 0 0 0 0 0 0 0 0 0 0 0 0 0 0 0 3 78 5 4 16 5 27 31 8
0 0 0 0 0 0 0 0 0 0 0 0 0 0 0 0 0 0 0 0 0 0 0 0 0 0 0 0 0 0 0 0 0 0 0 26 2 3 5 14 15 56 38

GFSSE_prec_cloud_036.txt.gz
Cloud_Cover
15 11 5 100 75 3 0 0 1 0 0 0 0 0 0 0 1 0 0 6 2 0 0 0 0 0 0 0 0 0 0 0 0 7 14 92 26 0 12 5 4 0 15
61 5 3 6 3 3 0 0 0 0 2 0 0 0 0 0 0 0 0 5 2 0 0 0 2 5 2 2 4 3 4 4 3 5 9 100 54 41 36 65 5 0 8
3 0 0 3 3 0 0 0 0 0 0 0 0 0 0 0 0 0 6 7 4 0 15 9 4 1 5 5 5 4 7 5 93 6 4 1 1 22 87 86 12 4 2
0 0 0 0 0 0 0 0 0 0 0 0 0 0 4 1 0 0 4 0 3 13 78 87 7 83 62 3 4 5 25 100 86 100 31 12 5 100 10 5 2 1 0
0 0 0 0 0 0 0 0 0 0 0 0 2 0 0 0 0 3 0 0 1 4 5 0 0 0 0 0 0 2 92 100 45 99 55 12 5 4 5 1 0 1 1
0 0 0 0 0 0 0 2 0 0 0 0 0 0 1 0 0 0 0 0 0 2 0 0 0 0 2 6 0 1 10 89 7 18 5 5 5 58 95 4 0 1 11
0 0 0 0 0 0 0 0 0 0 0 4 2 13 4 0 2 0 0 2 0 0 0 0 0 0 0 5 35 16 12 11 95 27 5 95 84 75 100 100 5 5 5
0 0 3 0 0 0 3 0 0 5 29 44 98 60 0 0 0 0 0 0 0 0 0 0 0 0 0 5 5 6 91 60 91 5 10 16 77 67 87 50 5 3 1
0 0 0 0 0 0 0 0 0 10 73 11 94 84 0 0 0 0 0 0 2 0 0 0 0 0 0 0 0 24 4 1 3 1 5 5 5 12 85 95 4 4 5
0 0 0 0 0 0 0 0 0 100 97 5 22 58 0 0 0 0 0 0 0 0 0 0 0 0 0 0 0 0 5 1 0 0 5 66 5 5 23 5 4 5 7
2 10 0 0 0 0 0 0 61 100 18 13 2 3 0 0 0 0 0 0 0 0 0 0 0 0 1 5 8 0 3 1 5 4 4 0 5 5 2 3 0 5 18
10 34 0 0 0 0 0 0 59 72 5 5 4 47 71 4 0 0 0 0 0 0 0 0 2 1 4 5 5 32 17 5 5 0 4 3 0 2 0 0 1 5 5
0 0 0 0 0 0 0 0 20 26 3 5 0 0 71 23 5 4 1 5 0 0 0 0 4 5 5 5 5 55 41 100 98 0 4 5 5 1 0 0 1 1 2
0 0 0 0 0 0 0 0 57 31 24 5 4 0 1 5 25 5 0 0 9 5 5 5 6 42 5 1 36 5 3 45 60 5 1 5 5 2 0 0 0 0 5
0 0 0 0 0 0 0 0 50 46 56 2 0 0 1 2 0 0 0 2 3 5 56 5 5 16 5 4 14 4 3 4 5 7 4 5 0 0 4 3 2 0 0
0 0 0 0 0 0 0 0 10 40 39 4 21 0 0 1 0 0 0 0 10 1 16 24 5 5 5 5 5 65 0 5 8 6 5 0 1 0 0 5 6 7 11
0 0 0 0 0 0 0 0 0 8 5 0 31 0 0 4 0 0 0 0 0 0 0 0 43 2 23 47 9 89 3 5 35 30 0 1 0 0 14 5 20 30 5
0 0 0 0 0 0 0 0 0 0 0 1 43 0 0 0 0 0 0 0 0 0 12 0 21 3 31 65 44 59 5 5 52 5 2 11 1 2 5 5 18 6 34
0 0 0 0 0 0 0 0 0 0 0 0 0 0 4 2 1 0 0 1 0 0 0 1 9 0 0 47 0 3 77 90 49 5 65 5 2 5 7 6 78 23 14
0 0 0 0 0 0 0 0 0 0 0 0 13 2 5 13 37 5 1 0 0 0 0 0 0 0 0 0 1 0 61 100 15 20 5 5 5 49 5 28 77 54 42
0 0 0 0 0 0 0 0 0 0 0 0 0 26 5 52 40 53 4 5 4 0 0 0 0 0 0 0 0 0 22 5 13 6 5 4 5 5 21 23 100 71 100
0 0 0 0 0 0 0 0 0 0 0 0 0 3 63 6 3 7 33 26 7 5 2 0 0 0 0 0 0 0 0 0 15 61 5 5 5 5 18 15 53 12 41
0 0 0 0 0 0 0 0 0 0 0 2 0 90 17 38 34 5 74 38 0 0 0 0 0 0 0 0 0 0 0 0 0 4 0 0 5 5 16 5 5 5 11
0 0 0 0 0 0 0 0 0 0 0 0 0 12 48 33 58 8 3 0 0 3 0 0 0 0 0 0 0 0 0 0 0 1 0 0 0 2 5 41 5 5 17
0 0 0 0 0 0 0 0 0 0 0 0 0 0 1 6 73 41 4 0 0 0 0 0 0 0 0 0 0 0 0 0 0 0 0 0 4 5 5 63 18 46 31
0 0 0 0 0 0 0 0 0 0 0 0 0 0 0 2 0 0 3 0 0 0 0 0 0 0 0 0 0 0 0 0 0 0 0 0 0 6 16 17 17 5 4

GFSSE_prec_cloud_039.txt.gz
Cloud_Cover
9 22 5 5 0 6 1 0 0 0 1 0 0 0 6 0 0 0 1 4 6 7 0 2 12 0 0 8 59 0 0 48 19 90 14 43 14 2 2 5 2 0 19
2 2 0 0 4 3 0 0 0 1 0 0 0 95 2 0 0 1 0 26 7 3 0 3 2 1 46 0 2 0 1 1 5 6 42 100 98 56 76 10 5 5 8
0 0 10 0 0 38 0 6 0 3 0 0 9 0 0 0 0 0 2 14 0 2 4 7 71 5 3 16 5 5 5 5 5 5 5 5 8 97 96 43 5 12 4
0 0 0 0 0 4 0 0 0 0 1 0 5 1 0 1 0 6 3 1 1 1 13 75 17 3 10 0 31 98 17 5 92 12 5 5 27 98 54 5 8 5 3
3 0 0 0 0 0 0 0 0 6 0 2 2 6 0 0 6 2 3 0 1 0 2 9 0 0 1 10 5 20 88 24 66 77 64 8 18 13 6 6 5 4 0
4 0 0 0 0 0 0 0 0 0 0 5 5 3 0 0 0 0 0 0 19 10 5 0 0 0 20 5 34 64 63 73 14 90 92 86 91 55 65 34 5 5 3
0 0 0 0 0 0 0 0 0 0 6 97 85 0 15 1 41 0 1 14 1 0 0 0 0 1 5 3 26 78 90 26 100 45 33 99 100 96 48 5 2 4 0
1 0 0 0 0 3 0 2 4 18 19 100 68 0 0 12 1 3 0 5 0 0 0 0 0 0 5 5 75 70 82 54 22 24 49 51 18 18 75 5 5 5 5
0 0 0 0 0 0 0 1 23 32 46 100 100 0 0 0 0 0 0 4 0 0 0 0 0 0 0 0 5 98 6 1 2 5 6 89 6 96 100 100 16 14 75
12 0 1 0 0 0 0 2 42 74 40 23 3 0 0 0 0 0 0 0 0 0 2 0 2 0 1 0 0 5 4 2 5 6 92 5 2 5 8 5 4 5 59
52 22 12 2 0 0 0 30 19 100 7 3 2 0 0 0 0 0 0 0 0 1 4 3 5 5 5 3 20 0 0 5 0 2 1 4 5 5 1 0 2 8 6
80 75 16 12 10 0 0 50 81 39 5 36 78 2 3 4 4 0 0 0 0 4 5 5 5 5 5 1 0 3 5 5 0 0 0 0 0 18 2 80 3 4 3
36 79 22 7 4 1 0 27 56 10 5 2 14 7 16 0 1 0 1 0 5 8 5 5 3 5 3 0 31 5 43 32 5 0 4 3 0 0 0 10 14 14 1
24 33 6 0 2 0 0 27 30 5 1 0 0 3 5 0 0 4 0 5 2 5 5 5 5 5 0 0 0 5 4 65 2 5 5 5 0 3 5 0 0 2 2
0 0 0 0 0 0 2 11 66 2 0 0 4 1 0 0 1 1 0 0 0 0 5 5 5 5 0 30 98 0 0 0 0 5 8 1 3 5 5 5 5 3 0
0 0 0 0 0 0 0 1 22 5 0 0 3 2 0 0 3 0 0 0 0 0 0 0 1 2 0 0 0 0 0 0 0 0 1 2 5 100 41 18 97 50 3
0 0 0 0 0 0 0 4 19 28 0 0 0 0 0 0 0 0 0 0 0 0 0 0 3 53 0 10 47 0 3 0 0 0 1 3 5 5 18 6 10 2 17
0 0 0 0 0 0 0 0 5 0 0 0 0 0 0 0 0 0 0 0 0 0 0 10 0 95 7 39 65 5 0 0 0 0 0 4 3 6 6 95 24 5 5
0 0 0 0 0 0 0 0 1 3 0 0 0 0 0 0 0 0 0 0 0 0 0 0 41 0 77 0 5 5 6 4 0 0 0 5 16 72 10 34 89 65 100
0 0 0 0 0 0 0 0 0 0 0 0 0 0 4 4 2 0 2 0 0 0 0 0 0 0 0 0 0 0 29 15 4 5 5 23 5 14 50 78 83 61 100
0 0 0 0 0 0 0 0 0 0 0 0 0 0 5 5 5 5 23 98 2 0 0 0 0 0 0 0 0 0 0 1 42 24 5 6 6 49 35 7 21 56 94
0 0 0 0 0 0 0 0 0 0 0 0 0 2 49 7 5 5 25 65 5 0 0 0 0 0 0 0 0 0 0 0 0 4 2 3 5 5 7 6 5 5 53
0 0 0 0 0 0 0 0 0 0 0 0 0 0 5 7 6 56 100 12 1 1 0 0 0 0 0 0 0 0 0 0 0 1 5 5 7 5 6 3 5 9 88
0 0 0 0 0 0 0 0 0 0 0 0 0 16 5 63 100 100 19 0 0 0 0 0 0 0 0 0 0 0 0 0 0 0 1 0 0 5 2 5 2 0 2
6 0 0 0 0 0 0 0 0 0 0 0 0 9 8 23 69 36 5 5 0 0 0 0 0 0 0 0 0 0 0 0 0 0 0 0 0 0 0 0 0 0 0
12 2 0 0 0 0 0 0 0 0 0 0 0 0 68 51 95 36 10 3 0 0 0 0 0 0 0 0 0 0 0 0 0 0 0 0 0 0 0 0 0 0 0

GFSSE_prec_cloud_042.txt.gz
Cloud_Cover
50 9 1 0 0 3 0 0 0 0 0 0 0 0 0 0 0 0 0 1 5 3 4 64 88 0 0 0 0 0 1 2 3 67 69 9 41 24 38 6 5 10 18
5 1 1 0 0 1 0 2 0 0 0 0 0 0 1 1 4 0 3 6 2 0 0 8 13 15 1 6 4 4 3 5 5 9 27 99 100 100 99 12 5 6 6
0 0 0 0 1 0 0 0 0 0 0 0 0 14 15 6 1 0 2 4 2 2 39 6 5 5 5 12 6 7 5 10 99 5 36 49 98 100 76 39 54 5 2
1 0 0 0 0 0 6 0 0 3 1 0 1 2 7 10 2 0 5 1 2 12 0 2 0 0 2 47 72 97 61 7 97 73 14 12 94 82 30 7 5 5 4
7 0 0 0 0 24 0 3 1 3 4 4 0 2 4 4 3 3 12 10 5 0 0 2 0 2 5 54 100 100 100 52 100 100 99 55 95 55 48 5 5 5 5
11 0 0 0 0 2 0 2 4 2 57 5 1 4 0 0 0 0 0 0 1 0 8 0 0 3 7 6 28 56 99 100 96 100 100 55 68 100 93 20 5 20 5
12 0 0 0 0 0 0 0 3 7 100 8 5 0 0 49 10 17 2 0 10 1 0 0 2 3 16 16 100 96 100 94 100 86 100 100 100 100 89 20 10 5 4
3 0 0 2 0 0 0 4 2 7 82 45 0 0 0 5 2 0 2 0 0 0 0 0 2 2 5 83 80 68 5 7 13 55 36 48 76 48 96 97 5 8 5
0 1 0 0 10 2 20 0 3 4 5 51 1 2 2 0 0 0 1 0 0 5 2 5 5 5 5 22 5 3 4 5 18 28 95 10 5 11 9 5 22 6 5
19 11 9 0 2 0 2 5 3 5 2 0 7 1 0 7 0 0 0 0 5 5 5 5 2 0 4 5 4 0 0 0 1 35 9 2 18 8 1 17 17 5 4
38 24 18 0 0 0 0 3 8 2 2 0 0 0 0 0 0 1 4 4 5 4 4 2 4 5 5 4 4 5 0 0 0 0 0 0 0 1 9 5 13 5 2
100 66 27 13 14 1 1 4 5 5 3 4 4 0 0 0 0 5 41 66 5 5 5 3 3 0 0 4 0 0 0 0 0 0 0 0 0 1 0 4 13 17 17
87 94 36 24 16 4 0 5 1 0 0 0 0 0 0 0 0 0 0 5 5 5 5 3 0 0 0 0 0 0 0 0 0 1 4 0 5 4 10 12 2 1 12
61 96 37 20 25 13 6 10 0 0 0 0 0 0 0 0 0 0 0 0 3 5 5 0 0 0 0 0 0 2 71 0 0 5 98 100 28 5 5 16 14 16 4
47 57 49 15 18 20 6 20 7 1 0 0 0 0 0 0 0 0 0 0 0 0 0 0 0 0 0 24 0 0 15 0 0 5 47 86 6 2 5 0 11 5 1
5 40 23 7 1 7 8 8 7 0 0 0 0 0 0 0 1 1 0 0 0 0 0 0 0 0 3 13 0 0 0 0 0 0 0 5 2 3 18 5 0 4 5
0 0 0 0 0 0 1 32 3 5 0 0 0 0 0 0 0 0 0 0 0 0 0 0 0 0 3 16 0 0 0 0 0 5 2 39 5 25 42 7 97 61 4
0 0 0 0 0 0 1 14 15 0 0 0 0 0 0 0 0 2 1 0 0 0 24 15 0 0 27 99 0 0 0 0 2 5 5 5 45 14 14 5 100 7 94
0 0 0 0 0 0 0 4 0 0 0 0 0 0 0 0 0 0 4 0 0 0 14 6 1 0 29 39 0 12 0 0 0 4 9 5 5 29 99 97 77 98 100
0 0 0 0 0 0 0 1 0 0 0 0 0 0 0 0 0 0 8 2 0 0 0 0 0 0 0 0 0 96 6 0 1 0 2 4 5 5 11 66 94 100 100
0 0 0 0 0 0 2 0 0 0 0 0 0 0 0 0 0 0 0 1 5 0 0 0 0 0 0 0 0 1 0 0 9 0 2 0 0 0 0 5 5 30 84
0 0 0 0 0 0 0 0 0 0 0 0 0 0 0 0 0 0 5 0 0 0 0 0 0 0 0 0 0 0 0 0 0 0 1 1 0 0 0 0 2 73 20
3 0 0 0 0 0 0 0 0 0 0 0 4 5 0 0 0 5 2 0 0 0 0 0 0 0 0 0 0 0 0 0 0 0 0 0 0 0 0 0 0 0 7
9 1 0 0 0 0 0 0 0 0 0 0 0 0 0 0 4 5 2 0 0 0 0 0 0 0 0 0 0 0 0 0 0 0 0 0 0 0 0 0 0 0 0
1 13 0 0 0 0 0 0 0 0 0 0 0 0 0 5 5 5 4 0 0 0 0 0 0 0 0 0 0 0 0 0 0 0 0 0 0 0 0 0 0 0 0
5 38 33 0 0 0 0 0 0 0 0 0 0 5 5 4 5 4 5 2 0 0 0 0 0 0 0 0 0 0 0 0 0 0 0 0 0 0 0 0 0 0 0

GFSSE_prec_cloud_045.txt.gz
Cloud_Cover
99 100 99 31 9 0 0 0 0 0 0 9 0 0 0 0 1 14 2 2 1 0 0 1 4 1 6 3 7 6 0 5 35 28 87 54 100 65 97 5 57 73 23
80 21 0 1 7 0 4 0 1 0 0 0 0 0 0 10 5 0 0 5 4 14 19 6 99 34 5 5 4 5 1 5 20 5 80 100 100 98 26 5 56 37 46
16 0 0 0 3 6 1 6 10 1 5 0 15 9 5 5 1 7 0 0 0 3 0 2 0 4 8 10 68 69 21 5 100 16 5 98 100 100 100 89 94 30 5
0 3 4 0 0 2 1 0 1 5 1 4 1 9 3 4 0 3 2 6 5 0 8 2 6 5 15 93 100 100 100 100 100 100 42 93 54 92 7 5 4 4 4
0 8 3 0 4 14 0 0 10 5 2 2 4 5 23 5 30 6 6 14 1 0 6 14 5 91 100 100 100 100 99 100 100 100 60 75 76 77 80 5 5 2 5
0 0 0 0 1 0 8 4 1 46 8 0 0 0 0 0 0 0 0 2 5 2 1 5 5 22 62 73 55 97 100 100 21 76 40 84 100 100 70 38 5 5 7
0 7 1 0 3 6 14 0 9 5 2 3 7 2 0 3 0 0 0 2 6 2 5 3 5 92 96 100 99 88 84 99 72 41 57 99 100 100 100 21 5 63 29
0 0 16 0 0 0 0 1 15 6 4 1 0 0 1 1 0 2 5 5 5 0 3 5 86 58 85 34 4 0 4 5 5 20 32 55 7 33 77 54 14 95 16
0 2 31 0 0 1 6 0 6 7 4 0 0 0 0 2 0 38 76 22 5 1 5 5 5 5 4 0 5 1 5 20 5 9 4 2 78 5 5 12 85 57 5
0 29 28 3 18 35 3 3 0 1 2 2 1 0 1 2 5 5 5 2 0 0 0 0 0 0 0 2 0 2 0 0 0 0 26 34 14 0 1 5 5 2 5
23 36 2 22 11 27 19 7 2 3 3 5 0 0 2 5 5 5 5 1 7 11 5 2 0 0 0 0 0 3 0 0 0 0 26 1 4 5 1 4 3 6 4
20 26 6 0 0 20 33 15 20 2 1 1 1 0 0 0 0 5 5 0 2 5 1 2 0 0 0 0 3 0 78 100 38 5 22 0 0 3 14 6 4 5 0
5 22 22 0 14 1 24 12 18 1 0 0 0 0 0 0 0 0 4 5 0 0 0 0 0 0 0 0 0 2 51 100 18 3 0 0 0 1 6 12 3 0 10
87 45 30 0 8 1 5 0 0 0 0 0 0 0 0 0 0 0 0 0 0 0 0 0 0 0 0 0 5 54 5 3 2 3 0 2 0 1 1 1 14 14 4
4 18 9 0 1 0 14 0 0 0 0 0 0 0 0 0 0 0 0 0 0 0 0 0 0 0 0 0 0 20 1 0 5 5 11 19 5 5 6 5 9 10 9
0 0 0 0 0 0 0 0 0 0 0 0 0 0 0 1 0 0 4 0 0 0 0 0 0 0 25 0 0 0 3 0 1 3 23 5 5 14 95 20 83 8 14
0 0 0 0 0 2 0 0 0 0 0 0 0 0 0 0 0 0 3 0 0 0 0 0 0 0 0 0 0 0 0 0 4 6 5 5 5 5 11 100 100 100 11
0 0 0 0 0 0 0 0 0 0 0 0 0 0 0 0 0 0 0 0 0 0 0 0 0 2 100 10 0 0 0 0 0 5 5 24 5 32 81 48 25 42 100
0 0 0 0 0 0 0 0 0 0 0 0 0 0 0 0 0 0 0 0 0 0 3 0 0 1 70 0 0 0 0 0 0 4 4 4 5 5 13 61 100 100 100
0 0 0 0 0 0 3 0 0 0 0 0 0 0 0 0 2 0 0 0 0 0 0 0 0 0 0 0 42 62 0 0 0 0 0 0 1 6 47 5 19 43 100
0 0 0 0 0 0 3 0 0 0 0 0 0 0 0 0 0 0 0 0 0 0 0 0 0 0 0 0 0 0 0 0 0 0 0 0 0 0 0 0 5 15 16
0 0 0 0 0 0 0 0 0 0 0 0 0 0 0 0 0 3 0 1 0 0 1 0 0 0 0 0 0 0 0 0 0 0 0 0 0 0 0 0 0 1 5
0 0 0 0 0 0 0 0 0 0 0 0 0 0 4 0 0 0 0 0 0 24 1 0 0 0 0 0 0 0 0 12 0 0 0 0 0 0 0 0 0 0 0
0 0 0 0 0 0 0 0 0 0 0 0 0 1 4 1 0 0 0 4 0 0 4 0 0 0 0 0 0 0 0 0 0 2 0 0 0 0 0 0 0 0 0
1 0 0 0 0 0 0 0 0 0 0 0 0 0 5 0 0 0 0 0 0 0 0 0 0 0 0 0 0 0 0 0 0 0 0 0 0 0 0 0 0 0 0
0 0 1 0 0 0 0 0 0 0 0 0 0 0 0 1 1 2 0 0 0 0 0 0 0 0 0 0 0 0 0 0 0 0 0 0 0 0 0 0 0 0 0

GFSSE_prec_cloud_048.txt.gz
Cloud_Cover
100 56 20 64 7 0 4 8 0 0 0 1 0 0 0 0 7 6 0 0 0 4 5 5 5 4 3 3 0 4 4 5 87 28 30 100 50 64 5 2 60 31 38
90 97 25 5 0 0 0 0 3 4 10 5 2 0 0 5 2 0 0 0 6 4 0 0 8 10 4 4 1 0 2 5 19 7 82 100 56 91 29 5 94 5 8
97 26 5 0 0 2 0 5 5 5 1 5 3 3 3 3 18 0 0 0 0 2 1 6 3 10 14 5 22 40 10 83 44 98 100 97 17 100 100 24 46 89 23
15 1 0 0 1 13 6 3 5 3 3 2 9 3 0 3 15 0 0 0 0 7 0 4 13 14 12 77 100 33 100 100 93 51 95 100 17 100 92 51 5 3 0
15 0 0 0 6 5 5 2 7 0 4 8 4 0 2 2 6 13 1 3 0 2 5 5 5 6 81 100 100 100 100 89 36 100 99 100 100 75 84 6 5 5 5
18 0 0 0 0 46 5 9 4 6 0 3 0 0 0 6 0 1 3 4 2 0 5 5 56 27 47 100 100 99 98 12 94 100 84 88 100 100 60 98 92 6 17
0 0 0 1 5 14 11 0 14 0 0 6 0 2 3 3 0 0 19 4 4 5 8 5 5 53 99 90 100 100 100 98 86 97 78 100 100 100 100 100 84 23 6
2 0 0 5 0 3 0 12 4 3 1 0 0 0 1 0 0 4 4 4 5 5 5 5 5 5 5 5 2 5 5 3 35 66 66 60 4 3 41 88 35 99 29
0 2 0 5 2 14 0 0 5 0 0 4 0 0 0 0 0 5 5 5 1 0 3 5 5 4 0 15 40 5 4 22 58 35 21 5 1 3 11 85 99 5 94
13 17 1 2 7 36 0 7 0 0 4 0 0 0 0 2 5 5 1 0 4 0 0 0 5 5 0 0 0 0 0 0 3 18 70 2 0 2 5 4 0 4 5
12 30 0 11 27 59 37 1 0 0 2 0 0 0 6 12 5 22 6 0 0 0 0 0 0 1 5 3 2 0 0 2 30 77 4 0 0 5 7 10 4 1 4
20 29 0 27 27 17 30 19 28 4 3 14 8 22 27 7 2 2 0 0 0 0 0 2 0 0 93 48 0 5 45 6 15 50 0 0 0 6 1 4 0 6 1
0 0 0 14 27 15 33 20 20 32 22 15 29 15 7 26 0 60 10 30 22 2 78 26 39 97 43 96 100 90 16 52 0 22 0 0 0 15 3 1 1 11 10
0 0 0 0 18 80 45 26 15 0 0 0 0 0 0 34 0 9 98 7 35 91 9 63 8 0 0 2 99 95 83 23 27 11 3 5 2 11 11 7 6 5 4
0 0 0 0 10 45 48 27 10 4 9 4 0 0 2 51 24 48 10 79 65 26 5 27 3 0 0 0 63 90 50 0 3 77 79 32 52 83 6 11 5 4 5
0 0 0 0 1 20 43 18 47 33 34 0 1 0 0 66 53 15 0 29 75 40 46 53 0 29 36 16 2 66 84 0 0 3 99 5 5 5 5 5 0 0 0
0 0 0 0 0 1 12 4 1 7 1 21 25 0 0 40 88 0 10 3 54 0 0 0 1 2 88 62 51 24 50 14 0 5 58 70 32 22 5 91 5 0 0
0 0 0 0 0 0 0 0 0 6 28 54 60 5 0 0 38 10 2 6 5 0 1 78 80 66 4 35 92 82 43 41 0 0 23 57 22 98 12 80 11 5 5
0 0 0 0 0 0 0 0 0 0 12 32 27 38 0 0 0 26 78 65 0 8 52 99 70 66 54 41 22 33 35 52 15 14 3 9 3 13 55 7 5 5 1
0 0 0 0 0 0 0 0 0 0 0 0 4 26 0 0 0 0 52 0 42 0 0 77 12 3 96 80 13 12 43 32 0 4 19 12 0 0 11 54 82 64 4
0 0 0 0 0 0 0 0 0 0 0 0 0 0 0 0 0 0 18 4 0 25 59 0 0 0 9 2 4 0 0 0 3 2 13 4 0 3 0 0 12 53 46
0 0 0 0 0 0 0 0 0 0 0 0 1 0 0 0 0 4 4 3 30 15 0 0 0 0 0 0 78 19 39 31 18 40 3 15 8 1 0 0 0 10 2
0 0 0 0 0 0 0 0 0 0 0 0 0 0 0 0 0 0 2 6 5 7 6 0 2 1 14 0 5 88 72 100 76 0 0 0 0 0 0 0 0 0 2
0 0 0 0 0 0 0 0 0 0 0 0 0 3 0 0 3 0 89 1 21 49 0 4 0 0 4 0 0 0 12 10 100 80 0 0 0 0 0 0 0 0 0
0 0 0 0 0 0 0 0 0 0 0 0 0 3 0 0 0 0 57 5 0 0 4 11 0 0 0 10 27 0 0 11 0 98 68 0 0 0 0 0 0 0 0
0 0 0 0 0 0 0 0 0 0 0 0 0 0 0 0 0 0 0 0 0 0 0 2 0 0 0 0 0 0 43 99 37 29 17 4 0 0 0 0 0 0 0

GFSSE_prec_cloud_051.txt.gz
Cloud_Cover
100 17 5 4 0 0 1 5 5 5 5 3 2 0 0 1 19 2 0 19 22 10 0 11 4 5 5 1 1 0 5 5 93 5 98 72 3 9 15 6 84 7 6
100 68 5 0 0 5 61 6 5 4 5 5 3 0 0 7 0 0 7 3 6 10 0 0 4 5 5 4 0 0 2 5 34 80 100 100 100 12 5 5 87 5 5
100 21 10 0 0 29 64 5 4 2 1 8 5 5 1 34 1 4 3 1 7 1 3 1 7 21 3 9 48 88 24 79 42 100 100 97 47 100 100 89 11 92 100
82 14 7 0 3 66 10 12 5 1 5 5 5 2 4 3 10 9 0 0 4 3 5 4 6 47 86 39 100 91 76 83 100 98 100 100 16 100 100 100 11 14 6
6 1 0 1 4 80 5 12 8 3 4 5 4 2 0 3 4 4 0 0 3 5 5 5 78 83 71 100 97 34 64 98 94 100 95 100 98 47 33 98 91 13 86
14 9 0 1 0 52 2 33 4 8 0 0 7 1 3 3 0 3 6 3 5 5 5 96 15 54 100 90 100 11 10 70 91 100 74 100 100 100 100 99 17 15 6
82 49 0 0 1 1 1 5 5 12 2 1 1 2 1 4 0 4 0 4 5 5 5 39 5 38 99 100 100 93 100 76 100 71 92 100 100 100 100 100 84 32 20
82 0 0 0 7 5 0 0 2 0 1 4 6 4 4 0 4 0 0 0 4 5 5 4 5 4 0 11 5 24 5 79 100 82 100 93 19 90 36 87 93 78 100
20 2 0 0 3 0 9 7 4 2 1 14 2 0 0 0 0 0 0 0 2 5 5 5 0 4 0 0 0 0 0 83 37 81 59 6 12 24 99 34 5 68 40
91 0 0 3 21 3 4 4 2 2 3 0 0 1 0 0 0 0 0 0 0 5 2 0 0 0 0 0 0 0 0 0 25 91 51 3 5 5 5 3 5 5 13
89 18 2 2 17 100 24 5 0 0 0 0 0 0 11 12 60 11 0 0 5 1 5 0 0 0 0 0 0 0 0 100 100 59 3 0 0 4 3 0 1 6 5
40 13 18 6 5 98 24 1 25 0 0 25 11 32 100 100 8 0 0 0 2 0 0 0 0 100 99 69 2 0 43 3 100 46 20 2 3 4 5 0 13 3 4
22 20 24 86 20 40 0 10 84 28 90 48 13 96 6 11 17 89 0 6 17 81 50 0 91 74 100 58 67 30 16 47 98 11 91 16 7 5 5 5 2 2 6
29 4 47 14 40 98 19 14 47 97 28 12 11 48 12 100 99 93 13 10 96 66 25 100 28 12 95 100 66 93 99 100 100 5 0 5 5 7 9 7 24 2 0
9 0 24 0 100 31 100 99 73 40 28 43 0 15 100 95 75 88 20 87 95 62 47 71 7 90 0 26 44 100 27 22 10 90 44 0 0 1 5 5 9 89 38
0 0 0 0 4 98 100 40 37 14 99 10 23 100 70 100 87 12 26 96 52 100 100 58 89 89 81 69 34 96 100 20 48 100 1 0 0 0 0 0 5 3 14
0 0 0 0 20 57 100 15 99 100 21 100 95 97 100 27 0 58 88 0 99 15 1 0 1 100 7 69 100 14 31 91 32 72 100 100 23 18 0 0 0 4 5
0 0 0 0 4 21 90 82 75 99 55 100 91 94 100 80 0 2 58 50 88 51 100 67 100 50 53 56 78 99 84 25 42 33 76 100 22 56 15 0 0 0 0
0 0 0 0 0 0 1 17 90 37 100 98 100 41 11 91 51 60 88 23 64 4 83 11 20 47 34 10 79 65 58 39 100 79 54 24 14 97 57 12 0 0 0
0 0 0 0 1 0 8 8 48 45 100 100 100 100 0 10 16 62 18 0 12 6 93 46 78 100 13 100 76 39 78 73 6 53 12 64 0 0 55 3 41 23 0
0 0 0 0 0 0 0 0 19 49 100 98 100 58 0 10 1 46 36 5 31 64 54 0 0 0 36 6 0 0 1 1 38 12 10 28 8 11 0 0 40 28 64
0 0 0 0 0 0 0 0 3 19 40 93 70 1 21 34 1 0 70 68 85 62 0 0 63 80 29 89 90 76 100 76 41 78 3 1 5 22 32 5 0 9 6
0 0 0 0 0 0 0 0 2 0 38 8 99 6 15 37 21 36 84 66 4 54 45 0 0 25 69 20 23 61 100 97 61 0 0 16 8 41 0 0 0 0 1
0 0 0 0 0 0 0 0 0 0 0 0 23 47 36 0 27 87 7 56 100 21 97 37 36 34 91 11 6 9 56 24 87 89 0 1 0 0 1 2 3 0 0
0 0 0 0 0 0 0 0 0 0 0 0 12 63 30 1 0 92 68 2 0 4 3 24 27 0 5 93 99 0 0 3 30 28 100 7 2 0 0 0 1 0 0
4 0 0 0 0 0 0 0 0 0 0 0 0 12 0 7 0 1 0 3 2 6 4 0 0 0 5 10 17 9 100 20 30 25 53 11 8 0 0 0 0 0 0

GFSSE_prec_cloud_054.txt.gz
Cloud_Cover
100 78 29 10 5 5 5 5 0 3 0 0 5 5 0 10 0 0 6 8 0 0 0 1 5 5 2 5 0 0 5 3 51 7 63 1 4 72 100 85 100 96 44
100 93 100 7 5 5 5 0 0 0 0 0 5 6 15 4 1 9 0 4 0 0 1 0 0 5 5 5 2 0 4 2 37 5 37 94 66 31 79 100 82 5 5
100 100 100 1 0 27 5 5 4 4 5 4 5 17 5 0 0 7 2 2 0 2 5 7 2 6 5 4 22 88 30 13 100 100 100 100 10 97 51 98 65 4 57
97 100 15 0 0 52 5 8 1 4 50 4 5 0 2 8 8 0 0 4 13 4 11 6 5 98 5 5 97 38 100 100 92 100 100 75 5 100 100 100 96 74 6
100 57 0 0 8 5 9 22 2 12 9 5 9 8 0 6 1 3 3 4 5 5 98 9 5 37 55 100 60 80 55 100 100 95 77 99 28 14 31 95 100 100 95
92 0 0 0 5 7 5 4 1 1 3 4 2 5 1 1 1 2 2 4 0 56 83 5 96 100 100 79 77 27 76 84 100 55 35 100 100 99 100 100 100 95 56
63 0 0 0 0 0 0 1 5 3 0 6 19 10 1 1 2 0 3 0 6 4 4 5 16 48 100 100 100 100 74 41 73 16 59 100 100 100 100 100 100 100 56
2 0 4 1 3 0 3 2 3 5 2 7 2 0 0 0 0 2 0 2 4 0 2 3 0 0 3 4 3 1 1 73 0 77 3 5 88 100 100 100 95 100 91
3 0 4 4 0 1 7 4 6 1 3 2 0 0 0 0 0 0 0 0 5 5 1 0 0 0 0 0 0 18 1 14 68 5 8 5 5 7 14 84 23 8 5
0 0 0 0 1 3 9 1 4 0 0 0 0 0 0 0 0 0 0 0 5 2 4 0 0 0 0 0 0 2 43 100 48 0 0 1 5 1 2 5 8 8 5
0 0 0 2 0 0 0 1 0 0 0 0 0 0 8 2 0 0 0 0 68 100 100 100 25 1 1 3 5 90 57 100 10 0 0 0 0 7 0 7 0 5 6
0 0 0 0 0 0 0 0 0 0 0 0 0 39 21 20 0 0 0 0 68 100 100 100 73 100 99 0 19 62 98 48 81 5 0 0 0 3 0 9 6 4 3
0 44 17 0 0 48 0 0 0 0 0 12 2 57 32 10 14 24 29 14 98 98 100 63 90 98 100 45 13 91 84 98 4 7 3 0 3 5 4 3 0 0 5
82 14 100 0 25 98 0 0 2 64 40 0 47 54 0 6 8 29 95 92 78 8 80 93 3 2 97 59 2 100 26 72 31 0 5 0 0 2 13 20 86 4 2
36 0 0 14 99 87 0 64 70 88 30 0 0 31 38 98 80 16 65 99 86 95 53 68 45 3 32 70 45 27 25 88 0 0 0 0 0 0 0 10 11 95 19
41 13 71 0 4 17 100 88 100 4 88 10 13 49 92 18 46 8 2 83 76 56 74 97 49 48 100 14 27 59 75 0 82 21 11 4 0 0 0 0 5 5 49
38 0 1 2 2 8 24 50 4 0 15 5 20 0 2 37 0 38 20 60 99 0 0 0 13 87 24 24 73 84 15 2 30 100 78 5 10 0 0 0 1 17 26
0 0 0 0 0 0 66 0 1 79 94 31 6 21 7 0 0 79 6 59 0 54 80 100 56 1 99 31 31 56 62 0 2 11 27 48 0 77 0 0 0 4 5
4 0 0 77 0 14 0 2 88 51 23 99 2 30 11 6 13 84 42 17 96 86 70 8 0 1 20 94 92 53 4 94 100 25 0 10 0 0 0 0 0 0 0
0 0 0 100 1 0 0 0 1 1 45 64 64 26 5 87 91 39 31 0 0 78 83 4 47 65 77 100 100 37 97 49 6 0 18 1 0 1 11 0 0 1 0
0 0 0 54 1 0 0 0 12 22 21 0 94 100 0 90 100 99 0 0 58 1 54 0 53 67 99 75 1 0 3 3 7 1 98 6 29 17 0 0 0 0 0
0 0 0 5 2 0 0 0 10 74 0 5 100 54 0 42 1 0 37 67 6 76 16 0 1 7 81 5 0 19 100 54 100 88 2 25 86 52 9 0 0 0 0
0 0 0 0 0 0 0 0 0 100 52 92 36 0 0 32 8 57 4 25 1 39 0 0 2 98 5 74 100 2 79 95 100 0 0 0 0 3 1 0 0 0 1
0 0 0 0 0 0 0 0 0 0 80 0 3 70 0 0 88 5 0 9 0 60 69 0 0 65 26 0 0 35 46 48 97 79 1 0 0 1 0 0 0 0 0
0 0 0 0 0 0 0 0 0 0 0 80 0 88 16 0 10 60 3 4 0 1 1 2 0 2 0 91 3 0 0 0 52 100 96 0 0 0 0 0 0 0 0
0 0 0 0 0 0 0 0 0 0 0 21 12 100 24 0 4 99 0 0 0 17 5 0 0 0 0 43 65 94 51 0 77 76 66 16 0 0 0 0 0 0 0

GFSSE_prec_cloud_057.txt.gz
Cloud_Cover
82 94 0 0 2 4 5 4 0 0 0 0 0 4 1 1 0 0 0 0 0 0 0 0 4 2 3 0 0 0 0 3 5 3 4 1 6 6 99 100 100 100 53
87 25 0 5 5 40 0 0 0 0 0 0 7 0 0 0 0 0 6 4 0 0 0 0 3 2 4 1 0 1 0 40 9 5 94 53 95 92 95 100 74 10 5
76 0 0 0 5 3 4 3 1 0 5 4 5 4 2 0 0 2 3 0 0 18 5 0 3 2 5 0 0 89 9 77 100 100 100 86 13 100 100 100 100 77 6
18 0 0 3 0 0 7 0 5 5 2 0 4 0 0 2 0 0 0 8 8 14 5 5 5 96 4 0 52 5 100 72 100 100 47 95 67 52 100 100 100 94 98
0 0 0 0 0 2 2 0 0 0 0 1 2 1 4 2 0 0 0 0 5 24 5 5 4 5 86 81 5 4 17 100 100 100 99 6 65 6 44 60 100 92 77
1 0 0 0 0 4 5 7 0 0 0 5 2 0 0 0 1 0 0 0 98 3 5 54 5 5 71 48 3 3 9 100 100 66 86 97 94 96 98 100 88 71 100
1 0 0 0 1 1 3 4 1 0 5 0 0 0 1 4 0 3 0 0 0 3 6 10 67 5 7 5 5 0 15 71 5 2 4 38 89 100 100 100 100 100 100
0 0 0 0 2 0 0 0 0 0 0 0 0 0 0 0 0 0 0 1 0 0 0 0 57 13 5 1 0 5 6 8 1 2 5 70 100 100 100 100 100 84 13
0 0 0 0 0 0 2 0 0 0 2 0 0 0 0 0 0 2 0 0 0 0 0 0 0 0 4 4 0 3 3 0 0 0 5 5 5 49 68 98 72 43 5
0 0 0 0 0 0 0 0 0 0 0 0 0 0 0 0 12 91 0 0 3 17 3 1 0 0 0 2 2 5 5 0 0 0 0 2 0 24 26 7 9 16 5
15 0 0 0 0 0 0 0 0 5 0 2 1 0 0 0 97 12 5 10 7 51 100 85 7 0 0 2 4 45 21 0 0 0 0 5 0 48 0 1 2 4 8
0 0 0 0 0 0 0 0 0 0 3 1 0 20 0 0 0 27 100 100 92 35 100 70 94 1 3 11 0 19 18 2 13 0 0 5 5 1 1 0 0 2 3
0 0 0 0 0 0 0 0 0 0 0 0 0 5 0 0 0 46 80 67 83 1 39 31 16 0 0 0 8 0 4 80 30 0 0 1 52 5 14 3 9 18 0
0 0 0 5 4 0 0 0 0 0 0 0 2 0 0 97 68 41 100 49 34 0 5 2 3 0 2 3 72 9 91 25 46 0 0 0 5 48 94 90 7 10 16
0 0 0 5 8 0 0 1 41 0 0 19 50 5 0 11 97 99 43 88 88 0 1 1 0 3 0 1 64 38 90 87 0 0 0 0 0 4 8 67 94 26 55
56 0 87 1 93 0 0 0 4 14 1 12 75 29 1 17 91 0 4 44 14 14 13 0 67 100 2 50 100 52 0 0 50 15 2 0 0 0 6 5 5 15 59
0 0 0 0 0 0 6 37 0 0 99 33 0 2 4 6 1 78 12 42 14 8 0 4 0 0 0 89 39 46 0 0 88 0 1 0 0 0 0 0 1 9 19
0 0 36 0 0 0 1 21 0 3 9 2 0 0 0 0 11 40 0 1 0 46 69 71 30 99 18 63 70 82 10 4 15 0 0 0 0 0 0 0 0 5 5
0 0 0 0 1 0 0 0 0 0 3 0 10 0 0 77 30 0 0 24 0 75 0 0 46 4 56 26 0 0 43 97 11 0 0 0 0 0 0 0 0 1 3
0 0 0 0 0 0 0 1 1 0 17 4 0 2 12 3 6 4 0 0 10 61 0 0 37 16 96 94 10 100 5 0 0 0 0 0 0 0 0 0 0 0 0
0 0 0 0 0 0 0 0 0 0 0 0 0 67 42 1 1 0 0 0 1 71 0 96 3 14 54 100 1 0 0 100 100 0 0 0 0 0 0 0 0 0 0
0 0 0 0 0 0 0 0 0 0 0 0 0 0 1 4 4 0 1 0 0 0 0 0 0 54 88 1 0 94 42 52 4 1 0 0 0 0 0 0 0 0 0
0 0 0 0 0 0 0 0 0 0 0 0 0 0 0 0 0 8 2 77 0 0 0 0 0 0 0 2 0 41 19 34 0 23 91 0 0 0 0 0 0 0 0
0 0 0 0 0 0 0 0 0 0 0 0 0 0 0 0 3 5 3 1 0 59 0 0 16 0 0 8 0 56 23 5 0 0 16 2 0 0 0 0 0 0 0
0 0 0 0 0 0 0 0 0 0 1 0 0 33 0 1 5 6 4 0 0 5 0 0 16 19 0 0 0 0 0 75 6 6 0 0 0 0 0 0 0 0 0
0 0 0 0 0 0 0 0 0 0 0 16 0 7 47 3 7 44 0 0 0 3 1 3 0 0 0 0 0 0 1 100 0 82 13 0 0 0 0 0 0 0 0

GFSSE_prec_cloud_060.txt.gz
Cloud_Cover
6 5 0 5 47 94 4 5 4 5 5 5 5 5 4 1 4 0 0 0 0 0 0 3 4 2 0 10 29 14 0 5 0 0 2 0 60 63 95 100 100 100 92
5 1 0 10 41 1 0 3 2 0 0 4 0 4 0 0 4 16 0 3 0 0 0 2 0 1 16 6 0 0 2 11 29 86 79 18 74 60 67 99 100 39 40
1 0 0 4 0 0 0 0 0 0 0 1 0 1 5 0 1 0 2 8 4 1 9 5 4 0 5 4 0 42 57 96 100 98 100 100 20 100 100 100 100 100 86
0 0 0 0 0 0 4 1 0 0 5 0 0 1 0 1 5 1 8 4 5 52 6 0 5 59 5 2 51 33 97 95 100 99 85 65 35 14 99 100 99 93 63
0 0 0 0 0 0 2 0 0 3 0 0 4 1 0 3 4 0 1 5 4 5 5 2 5 5 3 22 11 32 100 100 92 94 100 100 52 5 14 24 65 72 47
0 0 0 0 0 0 0 0 4 0 1 2 0 0 0 7 8 0 0 5 1 5 5 4 5 5 20 5 5 26 76 100 100 82 81 71 62 95 97 100 100 66 36
0 0 0 0 0 1 7 0 0 0 5 4 0 0 2 0 0 9 2 1 11 4 28 8 1 1 4 33 5 100 100 78 0 1 3 47 98 100 100 100 100 100 100
0 0 0 0 0 0 3 4 0 0 2 0 6 1 0 3 0 7 0 7 7 0 3 1 2 22 5 0 4 5 5 2 0 5 22 96 100 100 100 100 100 100 100
0 0 1 0 0 0 2 0 0 0 0 4 3 4 0 0 0 0 2 7 3 0 0 0 1 0 4 5 5 0 0 0 2 5 5 29 88 100 100 100 100 100 36
13 0 0 0 0 0 8 0 0 1 0 0 4 5 5 1 46 5 6 83 92 0 0 0 5 94 5 7 3 0 0 0 5 0 0 0 3 100 100 100 96 93 11
1 0 0 0 0 0 6 0 2 4 0 0 20 74 91 53 80 99 24 5 4 62 1 0 0 2 0 3 7 0 0 0 0 5 0 0 0 4 92 7 23 5 9
0 0 4 0 0 0 0 0 0 0 0 0 0 5 22 96 13 5 3 7 83 5 67 4 2 33 0 0 0 0 0 0 0 5 3 2 0 6 4 1 10 3 5
16 0 0 31 0 0 0 0 3 0 0 0 0 0 45 52 98 23 1 0 4 10 5 0 1 0 0 0 0 0 0 6 0 0 5 5 2 2 10 3 1 1 0
0 0 0 5 0 0 0 0 6 0 2 0 0 0 6 43 24 33 0 0 0 0 0 0 0 0 0 0 0 38 0 0 0 0 0 15 5 2 0 0 0 0 4
0 0 0 4 2 0 0 0 0 0 1 0 1 0 0 34 11 35 74 62 2 0 0 0 0 0 4 2 0 0 48 1 0 0 9 2 5 2 18 13 9 7 32
0 0 0 4 52 0 0 4 0 0 3 2 2 5 1 36 0 0 16 17 0 0 0 44 51 0 0 29 0 0 0 0 0 0 0 0 1 4 6 12 5 5 13
0 0 0 3 0 0 0 2 0 0 0 0 0 4 0 4 16 0 4 9 0 0 0 0 72 1 0 1 0 0 0 20 0 0 0 0 0 0 5 5 5 5 5
0 0 0 0 0 0 0 0 0 0 0 0 0 0 0 0 1 0 0 0 0 0 0 0 0 0 0 0 0 2 6 1 0 0 0 0 0 0 0 0 0 0 0
0 0 0 0 0 3 3 8 0 0 0 0 0 0 4 5 5 0 0 0 1 0 0 0 0 0 0 0 0 17 45 1 0 0 0 0 0 0 0 0 0 0 0
15 0 0 0 5 0 0 0 0 9 0 0 1 0 2 2 3 0 0 0 0 0 0 0 0 69 60 39 72 0 0 0 0 0 0 0 0 0 0 0 0 0 0
96 0 0 0 0 0 0 4 8 5 0 0 2 5 0 0 47 0 0 0 0 0 0 0 29 0 20 0 0 35 97 16 0 0 0 0 0 0 0 0 2 5 0
51 0 0 0 0 0 0 0 0 0 0 0 1 5 5 1 2 0 0 0 0 0 0 0 0 11 90 9 0 0 42 2 0 0 0 0 0 0 0 0 0 0 0
18 0 0 0 0 0 0 0 0 0 0 0 0 0 0 0 0 0 3 0 0 0 0 0 6 100 1 0 0 12 0 0 0 0 0 0 0 0 0 0 0 0 0
97 0 0 0 0 0 0 0 0 0 0 0 0 0 0 0 0 0 4 0 0 0 0 0 0 0 0 0 5 36 0 0 0 1 0 0 0 0 0 0 0 0 2
0 0 0 0 0 0 0 0 0 0 0 0 0 0 0 1 0 5 2 0 0 27 0 0 0 0 0 0 4 1 0 30 6 0 0 0 0 0 0 0 0 0 0
16 0 0 0 0 0 0 0 0 0 0 0 0 0 0 0 5 58 2 0 0 1 0 0 0 0 0 0 0 0 4 53 17 14 0 0 0 0 0 0 0 0 0

GFSSE_prec_cloud_063.txt.gz
Cloud_Cover
4 0 5 5 0 0 2 5 2 1 8 0 0 0 2 8 2 0 0 0 0 0 0 25 3 3 0 89 78 67 97 5 10 8 7 5 4 64 44 56 100 100 100
0 0 0 1 0 0 0 0 0 0 14 0 1 1 23 30 2 0 3 1 0 0 0 0 2 10 2 5 5 0 6 8 100 22 11 36 5 95 46 94 100 98 58
0 0 0 1 0 0 1 0 0 0 19 0 0 8 2 1 1 2 8 8 0 17 1 5 12 22 0 5 4 14 100 74 40 81 14 97 33 77 100 100 100 80 97
0 0 3 2 0 1 0 1 0 0 0 1 9 0 2 2 6 13 5 6 5 5 13 5 5 5 3 4 2 100 95 99 100 100 97 98 62 29 100 100 100 100 98
0 0 0 0 0 6 1 0 0 12 0 5 3 0 2 3 2 8 4 4 5 5 5 6 5 0 2 5 73 100 92 96 99 100 44 94 100 69 95 70 10 26 10
0 0 0 0 0 7 10 0 0 7 0 7 2 3 0 2 1 0 1 12 4 5 0 2 4 5 14 58 98 100 100 100 100 100 100 100 100 99 43 98 87 63 5
0 0 0 0 0 0 0 5 0 4 0 1 0 3 3 6 0 0 1 0 2 5 0 0 5 100 100 93 92 60 64 2 0 5 83 100 99 94 96 100 100 99 26
0 0 0 0 0 19 10 0 4 2 0 0 0 0 36 48 18 0 9 0 0 3 4 3 4 2 2 5 0 0 0 1 5 6 90 100 100 100 100 100 100 100 100
0 0 0 0 1 0 0 0 0 0 0 1 0 4 19 95 27 46 9 0 4 11 3 5 5 0 0 0 0 0 0 8 3 0 21 100 100 100 100 100 100 100 100
28 3 2 0 0 0 0 0 1 0 3 5 4 6 5 5 1 1 5 3 0 8 59 0 0 3 65 0 0 0 0 5 0 0 0 5 70 100 100 100 100 100 34
87 27 10 10 0 0 0 4 0 4 9 100 100 56 5 6 4 4 51 18 66 0 0 0 0 0 0 1 0 6 0 0 0 0 0 3 81 96 85 21 44 13 5
84 60 23 16 8 0 0 0 0 0 2 8 57 28 6 34 0 2 8 5 1 1 3 0 0 0 0 0 0 0 0 0 0 0 0 1 2 5 8 100 85 87 42
36 53 22 18 3 0 0 7 17 9 0 2 18 63 5 2 0 0 0 0 2 1 3 0 0 0 0 0 0 0 0 0 0 0 0 0 24 5 2 4 12 14 1
19 16 6 0 2 0 8 19 9 11 6 1 4 13 5 0 0 0 0 0 0 0 0 0 0 0 0 0 0 0 0 0 1 2 0 5 0 13 13 2 13 0 0
0 0 0 0 0 0 11 16 10 0 4 0 0 0 0 0 4 1 4 0 0 0 0 0 0 0 0 0 0 0 0 0 0 11 15 0 0 3 6 6 3 4 6
0 0 0 0 2 1 8 1 3 0 0 4 4 16 0 1 12 0 53 28 0 0 0 0 0 0 0 0 0 0 0 0 0 2 4 0 0 0 4 5 7 5 14
0 0 0 0 0 0 4 0 0 0 0 0 0 0 0 47 1 4 6 8 0 0 86 9 0 0 7 0 0 0 0 0 0 0 0 1 0 1 16 4 5 5 5
26 0 0 0 0 0 5 0 0 0 0 0 2 0 0 10 10 0 0 0 0 0 0 0 0 0 0 0 0 0 0 0 0 0 0 0 0 0 0 3 2 0 3
100 100 32 1 0 0 0 0 0 0 0 0 5 4 0 5 10 0 0 0 0 0 0 0 0 0 0 0 7 0 0 0 0 0 0 0 0 0 0 0 0 0 0
99 100 100 0 0 0 5 0 0 0 0 0 0 4 1 4 0 0 0 0 0 0 0 0 0 0 0 0 0 0 0 0 0 0 0 0 0 0 0 0 0 0 0
100 100 28 0 0 0 0 0 0 0 0 0 0 1 0 1 1 0 0 0 36 0 0 0 0 2 0 0 0 0 0 0 0 0 0 0 0 0 0 0 0 10 6
94 100 24 0 0 0 0 0 0 0 0 0 23 6 1 5 2 0 0 0 0 0 0 0 0 7 0 0 0 94 29 0 0 0 0 0 0 0 0 0 0 0 5
100 89 3 0 0 0 0 0 0 0 0 0 45 0 1 1 4 5 0 0 3 0 0 0 0 4 15 0 0 0 2 1 0 0 0 0 0 0 0 0 0 1 5
100 100 1 0 0 0 0 0 0 0 0 0 1 0 0 3 1 8 0 3 0 0 0 0 3 82 0 0 0 0 0 0 0 0 0 0 0 0 0 0 0 0 1
100 92 0 0 0 0 0 0 0 0 0 0 0 0 0 1 4 62 3 3 0 0 0 0 0 0 0 0 12 0 0 0 0 0 0 0 0 0 0 0 0 0 0
77 19 0 3 0 0 0 0 0 0 0 0 0 0 0 0 6 8 1 1 0 0 0 0 0 0 0 0 36 0 0 42 3 0 0 0 0 0 0 0 0 0 3

GFSSE_prec_cloud_066.txt.gz
Cloud_Cover
0 0 2 2 2 5 41 5 4 5 5 3 5 2 0 0 0 0 0 4 1 0 12 0 7 2 25 99 100 100 35 3 8 33 5 23 5 6 8 93 100 100 100
0 0 0 0 4 5 5 1 1 0 0 1 3 10 60 0 0 2 4 0 0 4 4 4 3 0 2 3 3 20 19 20 100 83 15 32 5 88 11 98 100 96 33
0 0 0 0 1 1 0 3 0 24 0 0 0 0 0 0 1 11 6 5 19 65 7 3 2 0 5 5 10 83 90 70 75 15 8 65 55 90 100 100 100 98 39
0 0 0 0 4 11 4 1 0 0 1 0 0 0 0 2 5 10 5 5 6 7 50 0 0 2 4 5 79 98 98 95 80 77 68 90 40 86 100 100 100 100 100
2 0 0 0 0 0 8 1 1 1 0 8 0 10 2 8 7 5 9 7 5 5 3 0 5 4 9 40 100 100 100 78 100 100 100 98 86 100 100 100 70 98 57
6 0 0 0 0 0 1 3 12 9 13 11 0 6 0 5 8 5 5 5 0 2 0 4 97 100 100 100 100 100 100 62 100 83 98 100 100 100 100 93 54 47 20
8 0 0 0 3 9 0 0 14 0 6 4 5 14 10 0 8 8 1 5 5 0 5 50 5 9 89 36 11 5 1 4 66 100 88 100 100 100 100 100 100 14 10
0 0 0 0 8 0 2 4 3 0 8 7 4 4 6 5 5 4 0 0 0 1 17 0 3 5 5 5 2 4 5 52 94 100 100 100 100 100 100 100 100 100 96
1 0 0 0 2 8 0 0 0 6 4 5 4 10 0 5 4 2 5 4 5 0 0 2 4 5 5 0 0 10 4 5 1 62 99 100 100 100 100 100 62 38 26
20 11 6 13 0 0 2 0 0 2 14 18 4 0 0 0 5 0 0 0 0 0 0 0 0 0 0 0 0 2 0 0 0 10 97 100 100 100 100 100 100 97 89
49 33 13 2 0 0 3 0 6 4 0 0 5 0 5 4 5 5 0 0 0 0 0 0 2 2 0 0 4 5 5 0 0 32 81 35 76 100 100 100 100 5 10
99 81 28 16 12 0 0 0 0 0 0 4 0 0 0 0 0 0 0 1 3 2 0 0 0 1 0 0 0 2 5 3 1 5 12 79 95 46 20 6 5 5 0
100 100 43 24 14 0 2 13 18 6 1 5 5 0 0 0 0 0 4 4 6 3 0 0 0 0 0 0 0 0 19 6 0 2 11 17 50 82 5 5 1 0 0
100 96 39 19 19 0 15 16 20 6 6 1 0 0 0 0 0 0 0 0 3 0 0 0 0 0 0 0 0 0 43 10 7 5 5 5 5 11 1 15 8 1 3
89 43 36 21 20 10 16 29 24 8 3 0 0 0 0 0 0 5 1 0 0 0 0 0 5 0 0 0 0 0 1 6 40 44 9 5 26 1 19 3 3 4 5
11 27 13 16 8 12 17 13 18 1 0 2 0 0 0 38 11 0 0 0 0 0 0 0 0 2 0 0 0 0 0 0 4 13 56 18 5 9 5 4 2 2 8
7 93 99 10 0 8 6 4 0 0 0 0 0 0 0 0 1 0 2 0 0 0 0 0 0 1 8 0 0 0 0 0 0 0 6 60 5 5 5 5 5 5 19
29 31 5 2 0 0 0 1 0 0 0 0 5 0 5 1 0 0 1 0 0 0 0 0 0 0 0 0 0 0 0 0 0 0 1 5 5 7 1 4 5 90 60
70 73 62 37 0 0 0 0 0 0 0 1 0 2 4 2 0 0 18 0 0 0 0 0 1 3 11 2 0 0 0 0 0 0 0 0 4 5 5 2 5 5 5
10 14 98 73 0 0 0 0 0 0 0 0 0 4 5 1 0 0 0 0 0 0 2 0 0 0 3 1 0 0 0 0 0 0 0 0 0 0 0 3 5 5 5
56 5 98 49 0 0 0 0 0 0 0 0 0 2 5 3 0 0 0 0 36 0 0 0 0 0 0 0 0 0 0 0 0 0 0 0 0 0 0 0 0 4 5
77 8 51 14 0 0 1 0 0 0 0 0 0 4 2 3 0 0 0 0 0 0 0 0 0 0 0 0 0 0 0 0 0 0 0 0 0 0 0 0 0 2 5
89 5 5 18 0 0 0 0 0 0 0 0 5 0 5 0 0 0 0 0 0 0 0 0 0 15 0 0 0 0 0 1 0 0 0 0 0 0 0 0 0 1 3
26 5 5 93 0 0 0 0 0 0 0 0 5 0 1 0 1 0 0 0 0 0 0 0 0 1 0 0 0 0 36 16 0 0 0 0 0 0 0 0 0 3 0
4 3 2 13 0 1 0 0 0 0 0 0 0 0 0 0 0 1 0 4 0 0 0 0 0 3 0 0 0 0 5 49 0 0 0 0 0 0 0 0 0 0 0
5 0 0 0 0 11 0 0 0 0 0 0 0 0 0 0 0 0 0 3 0 0 0 0 0 0 0 0 0 0 1 67 0 0 0 0 0 0 0 0 0 0 1

GFSSE_prec_cloud_069.txt.gz
Cloud_Cover
0 2 0 2 1 0 5 5 2 5 5 5 5 5 5 3 1 6 3 0 0 15 0 1 1 0 45 1 0 5 5 93 51 5 5 7 5 5 5 13 6 54 100
0 0 0 0 5 12 5 6 6 5 4 1 0 1 0 1 4 2 2 0 0 0 14 1 4 8 42 10 16 76 97 96 100 99 22 5 5 53 8 6 67 97 17
0 0 0 0 0 5 5 5 5 0 0 0 0 8 9 5 5 9 5 5 4 25 5 11 6 13 15 24 30 100 97 99 93 43 30 25 15 93 95 62 5 6 16
0 0 0 0 0 0 0 3 2 0 10 5 0 57 78 38 12 6 5 5 8 45 34 5 8 14 6 93 100 100 88 100 100 100 58 99 100 100 100 100 81 85 96
0 0 0 0 0 0 0 0 0 1 8 0 0 7 40 34 6 5 6 5 6 44 1 3 18 57 85 90 100 100 100 97 100 100 100 100 100 100 100 100 100 100 56
0 0 0 0 0 10 0 25 3 13 14 4 6 0 0 5 5 5 1 5 0 10 67 77 97 100 100 100 100 100 100 7 16 60 100 100 100 100 100 85 11 19 17
0 0 9 0 2 2 6 8 10 10 2 2 5 2 2 7 3 1 4 4 2 5 1 9 94 16 10 69 5 0 1 24 47 100 85 84 100 100 100 86 100 12 60
0 0 41 0 14 4 2 2 3 2 2 14 0 7 2 0 0 0 11 0 0 0 5 5 5 16 5 5 4 3 5 65 88 72 93 74 100 100 100 100 99 100 100
0 2 58 19 0 0 0 6 5 1 1 0 5 0 0 1 0 0 6 0 0 0 0 5 54 6 3 1 7 5 4 27 59 94 60 77 100 100 100 100 53 94 100
1 4 3 0 34 20 18 1 3 1 10 0 0 2 2 6 6 0 0 0 0 0 0 81 5 5 33 0 0 0 0 2 42 100 66 10 100 65 98 29 98 96 98
23 20 0 37 14 20 24 8 2 11 0 2 0 0 0 0 0 1 0 0 0 0 0 0 0 51 4 5 2 0 0 62 49 44 100 94 100 100 100 99 60 62 5
17 36 1 30 37 13 23 28 27 0 0 1 1 0 0 0 0 4 2 1 0 0 0 0 0 0 0 2 4 5 0 0 4 13 27 98 100 100 100 100 10 3 4
0 4 24 29 24 10 20 4 0 4 0 0 0 0 0 0 0 0 5 5 3 0 0 0 0 0 0 1 5 5 16 2 0 5 76 18 5 7 10 0 7 0 11
58 98 32 20 22 33 14 0 0 0 0 0 0 0 0 0 0 0 0 0 0 0 0 0 0 0 0 0 1 5 51 64 7 1 2 1 0 0 0 1 0 5 5
94 94 26 27 38 33 26 2 0 0 0 0 0 0 0 0 4 0 0 0 0 0 0 0 0 0 0 0 0 3 36 31 99 21 1 0 0 0 0 3 8 2 5
20 0 6 14 33 19 6 0 0 0 0 0 0 0 1 1 0 0 0 0 0 0 0 1 0 0 0 0 0 0 5 5 33 35 68 11 12 5 5 46 28 27 32
81 0 70 0 13 9 17 0 0 0 0 0 0 0 0 5 0 92 0 0 0 0 0 0 0 0 0 0 0 0 0 4 3 12 14 37 36 20 18 99 100 100 65
100 1 43 2 0 0 0 0 0 0 0 0 0 0 0 0 0 0 23 0 0 0 0 0 0 0 0 0 0 0 0 0 3 5 9 11 65 68 86 100 99 92 88
64 6 12 5 0 0 0 0 0 0 0 3 0 0 2 1 0 0 0 0 0 0 0 0 0 0 0 0 0 0 0 0 0 0 4 5 5 8 51 69 9 5 5
74 23 12 14 0 0 0 0 0 0 0 0 0 4 5 1 0 0 0 0 0 0 0 0 0 0 0 0 0 0 0 0 0 0 0 3 3 2 5 29 26 14 7
29 58 0 5 0 0 0 0 0 0 0 0 0 5 2 0 0 0 0 0 0 0 0 0 0 0 0 0 0 0 0 0 0 0 0 0 0 0 0 5 5 5 50
45 17 3 4 39 0 0 0 0 0 0 0 0 5 5 1 0 0 0 0 26 0 0 0 0 0 0 0 0 0 0 0 0 0 0 0 0 0 0 0 4 5 5
20 4 3 3 66 0 0 0 0 0 0 0 0 4 5 0 0 0 0 0 0 0 0 0 0 0 0 0 0 0 0 0 0 0 0 0 0 0 0 0 2 3 1
62 5 6 1 2 0 0 0 0 0 0 0 0 5 2 0 0 0 0 0 0 0 0 0 0 0 0 0 0 0 0 1 0 0 0 0 0 0 0 0 0 0 0
99 4 7 0 0 0 0 0 0 0 0 0 0 3 4 0 3 0 1 4 0 0 0 0 0 40 1 0 0 0 0 6 0 0 0 0 0 0 0 0 0 0 0
90 4 2 0 0 0 0 0 0 0 0 0 0 0 0 0 1 0 0 3 0 0 0 0 0 0 0 0 0 0 0 46 0 0 0 0 0 0 0 0 0 0 4

GFSSE_prec_cloud_072.txt.gz
Cloud_Cover
53 10 1 4 3 4 5 5 5 5 5 5 5 4 4 1 1 1 1 7 1 0 0 0 1 0 0 0 1 4 16 90 83 13 5 2 5 9 6 5 84 89 100
27 3 0 0 4 5 0 1 5 5 2 0 4 0 2 11 3 0 0 5 5 3 82 2 1 4 7 17 2 19 100 100 100 58 71 9 14 5 5 5 49 97 42
0 0 0 5 5 0 1 1 4 1 0 2 16 5 5 6 12 6 8 2 10 50 11 5 4 99 3 19 98 100 100 96 75 99 91 85 83 5 11 6 5 5 6
0 2 2 0 0 0 5 8 1 4 0 11 5 5 5 11 9 5 5 5 4 60 0 1 3 12 76 100 100 100 100 100 90 100 59 58 86 85 47 5 7 6 6
23 50 3 0 0 0 2 3 5 8 0 0 0 1 5 5 5 5 5 3 4 5 5 5 98 100 100 100 100 100 100 100 100 67 100 100 64 98 99 97 91 64 11
0 30 0 8 1 0 0 0 1 16 2 0 0 0 5 6 1 3 5 0 4 5 6 70 95 100 100 94 100 100 28 63 100 100 100 100 100 100 100 100 78 16 6
19 0 0 0 13 1 11 0 9 2 16 11 6 5 6 0 0 0 0 4 3 12 7 5 82 99 99 28 0 5 68 80 7 97 100 96 100 100 94 75 47 14 6
8 21 5 5 7 7 0 1 3 0 0 0 5 0 1 3 0 0 0 0 0 5 10 53 100 20 11 3 0 5 5 13 45 99 100 100 100 100 100 100 72 32 52
38 38 36 8 6 0 4 7 8 3 0 6 1 2 4 0 0 1 0 0 1 100 99 33 8 70 4 0 1 5 14 86 74 100 100 100 100 100 100 100 100 42 7
38 45 6 0 1 21 21 6 5 0 0 3 4 0 0 0 0 0 0 0 0 3 16 2 1 0 0 0 0 0 18 100 40 100 100 100 100 100 100 14 6 13 21
66 17 0 15 42 6 22 5 0 3 4 0 0 0 32 33 29 12 0 0 0 0 0 4 0 0 1 0 0 2 77 100 99 20 74 97 100 88 25 5 12 41 0
36 4 0 57 18 37 86 20 4 11 17 10 14 65 70 32 26 0 0 0 0 0 0 0 0 1 94 40 0 0 16 56 100 99 100 100 100 100 13 14 5 7 9
9 0 26 33 38 58 8 2 3 20 26 41 37 46 53 37 4 0 7 22 2 15 79 24 82 60 63 41 6 0 2 5 46 100 100 100 100 88 76 5 0 1 5
5 0 17 21 41 97 6 0 8 16 44 54 25 12 18 6 0 24 14 0 17 12 0 47 19 2 0 14 10 0 0 4 0 2 2 20 17 4 4 24 0 0 5
12 47 5 9 75 100 0 0 26 9 40 24 9 28 44 27 14 15 1 26 5 0 0 8 0 28 14 27 25 33 9 1 1 0 0 0 0 0 1 0 0 0 1
16 95 1 7 24 80 4 4 9 33 1 44 56 1 1 14 0 0 0 0 0 16 9 16 8 52 72 34 1 13 46 38 14 45 27 2 1 2 3 4 56 100 50
7 94 5 3 6 6 0 3 7 1 43 45 58 0 5 59 1 0 6 3 11 0 0 0 6 9 42 48 2 1 16 28 5 9 45 59 69 99 100 100 95 46 10
9 11 16 0 0 0 0 2 33 69 95 100 55 0 0 6 1 0 0 0 0 0 1 20 95 96 63 86 86 75 9 9 5 5 5 26 16 17 17 62 5 5 5
10 7 3 1 0 0 0 0 17 22 59 100 83 36 2 4 4 0 15 0 10 0 14 41 75 92 40 65 65 51 37 18 6 8 5 5 13 5 5 5 5 5 5
24 5 1 1 3 0 0 1 32 21 30 82 98 100 4 0 18 0 0 0 7 0 14 93 18 24 78 33 100 27 20 0 0 0 0 3 5 5 5 5 5 5 5
10 5 4 0 5 0 0 0 9 10 35 57 76 3 0 0 1 0 36 0 0 1 1 0 0 1 33 0 62 34 0 0 0 0 0 0 0 0 3 5 5 5 5
16 6 5 2 16 0 0 0 0 23 42 98 36 3 2 0 0 0 2 3 0 0 0 0 0 85 19 0 54 33 12 6 0 0 0 0 0 0 0 0 0 3 5
98 38 3 5 6 0 0 0 9 0 0 20 20 4 14 2 0 0 0 6 0 27 9 0 0 9 61 0 0 32 58 23 5 0 0 0 0 0 0 0 0 0 0
18 60 0 2 0 0 0 0 0 2 30 37 48 76 3 19 24 0 0 0 0 9 6 0 0 8 11 0 0 0 0 0 44 0 0 0 0 0 0 0 0 0 0
3 5 2 0 0 0 0 0 0 2 7 1 96 38 10 5 88 0 0 0 0 8 0 0 0 0 0 1 35 14 1 1 0 13 0 0 0 0 0 0 0 0 0
0 5 4 0 0 0 2 0 0 0 6 25 10 10 2 8 59 0 1 1 1 5 0 0 0 0 0 0 30 20 81 99 27 8 2 0 0 0 0 0 0 4 38

GFSSE_prec_cloud_075.txt.gz
Cloud_Cover
39 4 3 3 5 5 5 5 5 5 5 5 5 5 7 3 0 1 4 0 1 0 0 0 0 7 4 4 3 5 12 8 28 4 4 5 12 14 3 92 71 45 20
38 2 1 1 0 4 5 5 5 5 5 4 1 1 15 0 0 5 3 10 0 1 4 5 3 0 4 5 18 5 94 98 98 5 6 5 17 6 21 8 6 80 13
32 0 0 0 0 14 0 0 0 9 22 5 2 12 5 5 9 2 1 4 8 6 4 1 2 22 10 52 83 100 98 100 100 98 100 84 5 96 5 5 14 61 5
1 0 4 0 0 0 0 7 0 1 4 10 5 5 3 4 9 5 5 4 30 1 5 12 41 100 100 100 100 100 80 96 100 100 77 83 46 9 36 8 37 59 72
12 2 0 0 0 0 0 8 0 1 0 0 5 4 5 5 5 5 5 5 5 5 75 100 100 100 100 100 100 100 93 100 100 78 98 98 76 29 98 90 5 5 11
40 17 0 0 0 10 11 0 1 0 0 0 2 8 3 3 4 5 2 2 2 2 100 68 100 100 98 57 100 100 100 100 100 99 45 71 93 98 100 100 98 99 45
94 7 0 0 0 1 0 1 4 0 1 10 3 0 6 3 2 1 0 0 2 5 11 99 100 100 100 74 9 11 8 93 52 100 100 95 100 100 100 99 78 33 7
67 62 3 1 0 3 8 0 3 0 3 9 0 7 0 2 2 0 0 2 17 95 100 100 93 31 2 0 3 5 5 81 62 76 100 95 100 100 89 95 29 8 5
96 13 43 11 0 0 0 0 3 0 0 1 0 0 0 10 0 0 0 5 10 6 15 6 4 1 0 2 5 37 32 85 28 98 100 100 100 100 100 100 73 5 26
100 76 32 16 3 15 10 12 1 0 0 3 3 0 0 0 0 0 0 4 4 3 5 0 1 0 0 0 5 44 6 100 100 100 100 98 100 100 100 45 15 37 5
17 73 11 46 27 63 50 1 0 0 0 0 0 0 79 15 59 23 0 0 5 0 0 0 0 0 0 0 45 100 74 100 100 100 100 100 100 100 35 5 5 59 1
90 47 85 98 63 76 91 23 0 88 11 72 88 78 100 100 2 0 0 0 0 0 0 0 0 2 94 7 47 100 98 78 98 100 100 100 72 5 6 6 6 19 5
27 83 98 62 98 97 11 55 87 40 10 9 97 100 16 18 0 1 0 1 0 1 37 95 26 100 36 96 15 70 100 100 100 100 100 98 6 5 4 5 1 0 1
32 28 100 62 100 50 19 100 100 100 71 53 99 68 9 78 100 100 100 31 100 88 23 51 95 94 4 12 18 1 52 100 100 100 5 8 4 4 23 0 0 0 3
2 8 49 98 94 95 14 90 60 40 84 28 100 100 100 94 78 100 100 100 88 97 38 82 100 30 60 84 79 35 12 14 60 37 84 59 3 1 0 0 0 0 5
5 5 12 18 100 6 45 72 42 100 30 89 80 87 100 64 97 6 51 89 100 99 100 97 97 51 65 31 99 100 100 54 30 82 0 0 0 0 1 0 3 4 5
8 0 1 37 45 19 0 0 98 45 89 100 100 91 11 39 3 38 18 100 100 21 1 0 15 37 17 43 81 100 39 100 63 95 99 51 41 42 17 5 5 5 5
25 5 0 10 39 13 0 0 100 100 81 100 98 69 70 1 0 23 68 67 57 8 100 92 89 25 86 64 91 96 54 10 7 22 97 83 45 22 5 5 5 5 5
5 5 3 5 20 1 0 17 100 71 100 99 96 100 19 32 1 64 71 37 86 85 32 99 9 64 78 74 51 57 56 59 100 19 5 7 5 46 7 5 5 5 5
7 5 7 3 12 0 0 8 99 16 100 64 100 48 2 26 0 0 79 9 54 29 71 11 68 96 3 100 100 2 86 32 5 25 37 6 7 0 2 0 4 4 5
8 0 5 10 3 2 0 10 95 29 100 100 77 8 0 98 0 0 28 0 0 99 64 0 0 28 17 0 48 28 6 0 6 0 20 9 0 0 3 5 5 5 5
38 7 0 39 5 0 7 78 39 100 98 21 100 11 95 95 11 0 84 4 64 44 0 18 96 56 66 82 62 99 78 4 0 18 0 0 0 0 0 0 0 1 4
79 5 0 0 5 0 17 17 0 43 95 65 66 17 28 18 8 75 8 100 5 46 5 0 4 72 91 0 83 14 95 81 46 0 0 0 0 0 0 0 0 1 5
50 2 0 0 0 0 0 13 92 0 29 0 14 100 0 55 90 78 20 16 0 95 86 0 0 77 70 31 2 1 0 44 19 0 0 0 0 0 0 0 0 0 1
39 0 0 0 0 0 0 86 32 15 100 62 51 77 8 2 54 99 61 42 4 0 1 99 14 0 36 12 95 37 0 0 28 56 0 0 0 0 0 0 0 1 34
84 1 0 0 0 0 1 0 10 21 23 99 95 37 7 10 23 86 91 98 12 91 2 0 0 0 5 15 11 22 3 46 25 18 5 3 0 0 0 0 4 16 4

GFSSE_prec_cloud_078.txt.gz
Cloud_Cover
11 0 4 5 5 5 10 5 5 4 4 13 4 0 9 22 44 27 0 0 0 0 0 0 0 2 0 0 0 2 5 5 19 10 4 5 7 5 5 71 79 4 4
4 2 5 5 5 3 5 5 5 5 4 2 5 9 0 0 0 0 0 0 0 0 9 1 0 0 0 0 0 5 10 70 16 5 5 5 60 41 9 51 5 50 10
12 2 2 0 0 0 1 4 9 7 5 5 7 5 5 14 0 3 8 0 4 3 45 5 4 5 66 4 9 100 88 93 100 100 22 5 7 17 52 7 94 16 5
0 2 1 0 0 0 10 9 6 12 5 5 3 4 1 9 5 3 2 1 7 0 6 80 100 100 98 86 96 76 99 100 100 100 100 93 37 84 46 80 95 55 58
0 0 0 0 0 0 5 0 5 0 1 0 2 2 4 3 6 5 5 3 3 6 80 96 99 97 98 100 100 100 100 97 100 100 89 13 92 98 100 99 99 5 5
0 0 0 0 2 0 8 16 2 2 0 0 0 0 0 5 5 0 2 0 10 5 5 50 80 100 100 100 100 100 100 95 100 100 100 18 81 75 100 100 16 5 10
1 0 0 0 0 0 1 4 1 1 2 10 1 2 16 2 0 12 1 3 5 20 92 100 99 88 54 70 4 100 100 100 100 100 100 93 75 100 100 100 17 34 36
1 1 0 0 0 4 0 8 7 2 9 0 0 0 0 0 0 2 4 4 16 93 100 26 4 0 0 2 3 5 54 53 94 100 98 100 100 100 100 99 40 14 5
0 2 10 4 0 1 1 0 0 0 1 0 0 0 0 0 5 2 2 4 5 5 5 5 1 1 5 5 5 5 68 72 64 100 100 100 100 100 66 70 13 10 12
6 0 0 0 2 0 1 1 0 0 2 2 3 0 0 0 0 0 0 0 5 4 0 0 0 0 0 5 10 6 16 98 100 100 100 100 100 100 100 85 12 7 17
36 57 0 0 32 0 0 0 0 0 0 0 2 32 21 6 0 0 0 2 0 1 0 0 0 0 1 42 33 100 100 100 99 100 100 100 100 100 75 98 5 3 0
77 87 0 18 17 15 0 3 77 0 0 19 81 100 0 2 0 0 0 0 0 0 0 0 0 63 5 7 71 100 100 100 100 100 100 100 100 100 49 10 30 7 0
80 8 70 25 21 84 0 2 10 0 45 93 15 4 0 0 0 0 0 15 6 97 92 0 0 96 11 38 45 29 96 100 100 100 100 100 5 5 5 5 1 0 2
37 3 50 0 46 3 37 88 65 45 3 91 95 14 80 70 100 100 0 74 70 100 100 12 6 43 91 89 24 100 100 100 98 95 99 16 5 2 16 0 0 1 3
82 5 0 12 53 3 100 29 94 65 5 2 8 6 36 97 9 58 44 15 78 39 11 96 87 54 1 100 2 17 9 58 40 6 16 5 0 0 0 0 0 4 5
0 100 1 0 60 29 83 100 60 25 87 74 22 24 98 97 8 22 19 100 35 67 58 39 47 6 85 15 76 21 86 95 99 81 29 5 2 0 0 5 5 5 8
2 51 0 0 59 29 0 16 100 96 6 98 2 47 100 9 83 12 70 44 60 11 4 70 40 1 10 14 76 2 94 48 17 58 7 0 0 0 5 5 10 51 96
0 100 6 10 0 0 0 2 0 21 52 36 23 23 1 1 7 2 97 52 43 47 6 94 19 65 2 19 0 39 3 11 1 1 7 22 3 5 48 61 100 100 99
2 49 2 97 0 18 0 0 58 74 16 32 94 84 74 0 5 99 89 43 1 100 18 79 84 0 12 45 12 69 5 50 36 10 5 2 4 5 5 5 66 98 100
0 0 0 100 0 37 0 47 56 70 89 78 73 98 72 2 0 0 81 0 71 0 39 72 6 0 100 70 65 5 64 93 100 7 0 4 4 5 5 5 5 65 99
0 0 0 99 0 0 0 0 90 21 7 72 8 5 0 47 0 0 1 0 90 59 100 42 2 65 77 100 3 100 6 5 34 34 100 15 3 5 32 56 40 25 31
1 0 0 10 0 0 0 8 37 33 17 97 67 70 66 12 0 0 14 0 72 56 0 0 94 95 31 20 95 99 34 19 98 41 5 0 0 0 1 3 2 5 5
96 0 0 0 0 0 0 7 100 47 98 100 88 0 8 5 0 26 0 0 98 0 0 18 23 97 0 0 0 91 68 98 6 0 0 0 0 0 0 0 5 5 5
57 23 0 0 0 0 0 14 3 63 93 8 2 100 5 1 18 6 2 2 0 0 9 0 0 8 0 3 0 100 62 46 0 0 0 0 0 0 0 0 5 5 5
25 17 0 0 0 0 0 0 0 0 54 53 55 99 90 50 39 100 29 0 5 97 97 0 24 97 0 98 2 2 2 69 98 20 0 0 0 0 1 0 0 5 3
9 0 0 0 0 0 0 0 0 0 74 95 4 79 77 2 36 91 84 34 5 55 76 91 0 0 0 72 90 5 0 0 35 86 6 0 0 0 0 1 1 5 4

GFSSE_prec_cloud_081.txt.gz
Cloud_Cover
2 5 5 4 1 5 4 0 2 2 17 12 13 43 100 100 100 100 100 100 100 100 100 52 18 0 1 4 2 5 5 10 25 82 33 36 20 9 40 78 95 22 12
0 0 0 0 4 0 0 4 2 0 3 12 5 8 68 47 20 58 58 20 13 0 0 0 0 0 2 0 0 0 5 7 39 5 6 6 31 39 72 100 5 49 5
0 0 2 0 0 0 2 0 11 0 0 0 0 1 4 0 2 1 3 1 5 0 0 0 0 0 4 0 4 8 28 82 100 100 7 7 91 88 6 10 28 14 66
0 0 0 0 0 0 0 2 5 1 0 0 3 3 0 0 0 0 0 0 5 5 7 61 83 5 6 5 11 58 85 99 95 43 96 47 10 21 22 94 100 7 7
0 0 1 0 0 0 0 0 0 0 0 1 0 1 0 1 1 0 0 0 4 4 44 74 84 81 32 13 73 100 100 100 100 100 69 75 98 74 62 50 5 5 8
0 0 0 0 0 0 5 0 0 0 1 0 0 0 0 2 0 1 0 4 2 5 6 6 7 6 76 69 28 99 100 100 100 100 82 100 87 89 14 5 30 6 11
0 0 0 0 0 2 0 0 2 0 3 0 0 7 0 0 0 0 1 5 2 4 5 5 87 72 35 92 100 93 100 100 100 100 100 96 100 100 92 61 58 100 24
0 0 0 0 0 0 0 0 5 1 0 0 4 2 0 0 0 1 1 5 5 1 1 0 2 0 0 0 0 5 100 100 100 100 100 100 100 100 100 100 62 22 5
0 0 0 0 0 0 4 0 0 0 0 4 0 0 0 0 0 0 0 5 5 5 1 0 1 4 4 4 1 13 100 100 100 100 100 81 100 100 100 100 80 5 4
0 0 0 0 0 0 0 0 0 44 100 100 78 0 0 0 0 0 0 4 3 0 0 0 0 0 28 8 29 5 33 73 100 100 92 100 100 100 98 26 31 46 4
0 0 0 0 0 0 0 0 0 4 62 97 22 0 0 0 0 0 0 0 2 12 3 26 0 5 4 94 100 75 100 70 100 73 100 100 100 100 100 6 52 5 1
28 2 0 0 0 0 0 0 0 0 0 2 0 0 0 0 0 0 0 13 100 22 100 86 96 7 5 46 100 100 31 100 100 100 100 100 100 60 45 89 16 0 0
4 0 6 0 0 0 11 0 57 0 0 1 0 0 0 90 97 0 33 46 100 80 91 33 10 0 5 8 100 99 64 100 100 100 100 100 100 57 5 0 1 0 3
0 0 2 0 3 0 17 16 3 0 33 0 81 0 6 8 32 0 58 34 90 11 3 0 0 41 3 66 100 68 90 100 100 100 100 92 41 5 0 0 0 3 5
0 0 0 0 0 18 55 91 46 15 8 85 26 73 95 14 78 1 0 5 0 12 2 0 0 40 5 0 94 89 72 100 100 96 77 6 4 0 0 0 5 5 5
0 0 0 0 0 35 0 5 0 0 0 68 100 12 19 19 1 0 36 6 6 59 0 0 0 7 12 0 0 2 0 12 2 1 0 0 0 0 0 2 5 5 86
3 0 54 0 0 32 0 19 40 0 45 73 42 0 6 0 0 0 0 0 0 0 3 2 0 0 22 1 3 5 28 2 5 0 0 0 0 3 5 5 18 94 100
1 2 0 0 0 0 0 0 0 18 55 100 100 2 0 21 0 0 61 50 0 2 4 96 6 0 0 0 20 0 0 0 0 0 0 0 3 5 6 34 100 100 100
0 12 0 0 0 0 0 0 0 0 73 100 91 2 0 0 0 0 56 0 19 0 1 0 0 16 0 0 3 38 0 0 2 0 0 0 0 3 5 5 49 98 100
0 0 20 54 0 0 0 0 0 65 7 5 5 39 0 0 0 3 4 20 79 2 0 0 4 100 0 1 10 28 5 4 5 0 0 0 5 6 49 61 33 39 74
0 0 0 100 0 0 0 0 0 4 10 78 100 11 55 0 0 44 0 0 0 0 0 0 0 4 34 0 23 0 97 2 0 0 0 2 4 5 5 7 13 5 5
2 0 0 16 0 0 0 3 0 2 100 86 62 17 8 0 0 0 0 56 100 26 0 0 0 0 9 0 5 15 28 28 0 0 0 0 0 3 0 5 5 5 5
5 0 0 0 0 0 0 0 30 0 2 5 6 96 5 1 0 29 0 0 79 1 0 0 11 0 0 0 98 0 86 11 0 0 0 0 0 4 0 5 5 0 5
1 0 0 0 0 0 0 4 100 50 9 31 59 100 5 0 0 0 0 0 8 0 0 0 95 10 0 0 0 44 0 41 0 0 0 0 0 1 0 5 5 5 11
1 6 6 0 0 0 0 1 0 4 100 100 63 97 5 0 0 35 0 0 0 3 34 0 0 0 0 0 8 0 0 73 0 0 0 0 0 0 3 5 5 4 5
8 88 56 0 0 0 0 0 0 4 65 98 86 99 46 45 59 99 73 0 0 45 69 0 33 0 0 0 0 0 0 27 0 0 0 0 0 0 0 1 2 2 1

GFSSE_prec_cloud_084.txt.gz
Cloud_Cover
2 0 0 2 5 5 7 11 41 87 100 100 100 100 69 100 100 100 42 59 68 78 95 93 83 100 86 50 5 29 19 5 15 6 55 55 89 30 42 99 62 78 9
1 0 0 0 6 2 0 0 0 5 46 8 84 100 100 100 100 100 100 100 92 86 52 13 5 5 35 5 5 5 5 5 6 6 11 10 6 10 12 65 64 30 5
0 0 0 0 0 0 0 4 0 0 0 5 4 0 5 4 1 2 4 0 7 6 5 0 29 3 3 5 5 7 43 70 100 94 6 7 26 40 32 49 7 5 6
0 0 0 0 0 0 3 3 6 0 0 2 5 0 0 1 0 5 4 12 13 5 21 100 54 9 18 47 40 88 89 100 100 95 90 28 5 31 8 40 16 12 5
0 0 0 2 0 0 2 0 1 0 0 0 0 0 0 5 2 0 2 1 8 5 79 89 51 27 47 82 100 100 100 100 91 100 99 88 71 8 9 96 35 18 7
0 0 0 2 0 0 0 2 3 0 1 4 2 1 0 5 0 2 0 34 5 5 6 5 6 5 6 58 95 100 100 100 100 100 100 100 97 11 22 6 6 20 11
0 0 0 0 1 2 1 0 2 0 1 1 13 1 5 4 1 2 0 0 1 5 39 36 69 35 73 100 100 100 100 100 100 100 100 98 64 98 10 15 5 7 10
0 0 0 0 0 0 0 5 6 25 16 1 3 13 0 1 7 3 0 0 0 0 0 0 0 0 5 12 65 100 100 100 100 100 100 91 58 68 92 69 42 5 76
0 0 0 0 0 1 5 54 98 6 2 0 0 0 0 0 0 0 14 10 2 4 1 0 2 0 0 0 5 93 99 100 100 100 97 96 52 97 99 100 33 34 4
0 0 0 0 0 0 0 5 0 5 2 0 0 2 4 0 0 4 1 51 79 0 0 0 5 5 37 0 37 100 100 100 100 100 75 20 100 100 100 44 94 10 2
0 0 0 0 0 0 0 0 0 0 1 0 0 5 31 0 1 2 12 13 4 0 2 4 4 58 12 4 38 100 100 100 100 100 82 100 100 98 40 9 28 3 5
0 0 0 0 0 0 0 0 0 0 0 4 0 5 5 0 5 44 46 6 5 2 4 0 82 100 96 91 90 87 52 83 100 86 100 100 100 100 79 38 3 0 0
0 0 0 0 0 0 0 0 0 89 45 30 2 0 3 0 4 44 92 97 6 5 2 0 6 98 37 6 98 98 98 32 36 99 100 100 99 17 10 6 13 0 1
0 0 0 1 0 0 0 0 4 74 99 3 3 0 41 0 1 5 1 4 6 0 0 0 0 73 100 100 29 8 99 14 31 80 100 100 99 5 5 1 0 0 2
0 0 0 1 0 0 0 0 0 28 4 0 0 73 0 0 0 0 1 5 0 0 0 0 0 3 88 77 17 9 55 23 70 100 85 25 2 1 0 0 0 4 5
0 0 0 0 0 0 0 0 66 97 5 3 0 0 0 0 0 0 0 2 0 2 0 0 0 0 1 4 5 42 94 79 63 28 5 0 0 0 0 4 3 5 80
0 0 0 0 0 0 1 2 15 100 12 25 0 3 0 0 0 0 0 15 36 8 0 0 0 0 0 0 5 4 2 0 1 0 0 0 2 5 5 5 69 76 54
0 0 0 0 0 0 0 1 4 29 90 3 0 0 0 2 0 0 0 0 4 5 22 0 0 0 0 0 1 0 0 0 0 0 0 0 0 5 5 5 30 28 59
0 0 4 0 0 0 0 0 1 33 36 4 10 7 2 0 0 3 0 0 0 0 0 0 0 0 0 0 2 0 0 0 0 0 0 0 1 4 7 5 5 24 15
0 0 0 0 0 0 0 0 5 5 100 92 5 30 4 0 0 0 0 1 28 0 0 2 2 0 0 0 0 0 0 0 0 2 5 3 5 5 5 5 21 20 6
0 0 0 0 0 0 0 0 9 61 71 63 94 37 0 0 20 0 0 0 0 0 0 0 5 0 0 0 0 0 0 0 0 0 0 0 3 4 5 5 5 5 5
0 0 0 0 0 0 0 0 1 76 97 5 99 6 0 0 4 0 0 5 0 1 0 0 0 0 0 0 6 0 0 0 0 0 0 1 0 3 5 0 5 4 5
4 11 0 0 0 0 0 0 3 6 4 5 96 67 1 0 2 5 2 100 52 3 0 0 0 0 0 18 18 0 0 0 0 0 0 3 0 5 5 5 5 5 4
0 0 0 4 2 0 0 0 0 5 7 72 80 86 43 6 1 5 6 15 14 3 0 1 0 0 0 5 1 0 0 0 0 0 0 0 4 2 5 0 5 5 4
20 0 5 5 4 0 0 0 12 53 90 89 5 100 13 16 5 5 15 8 40 99 0 0 39 0 0 0 14 0 0 0 0 0 0 0 4 4 5 5 5 52 5
28 46 3 7 5 0 0 0 0 0 87 55 86 95 82 17 4 78 22 16 47 61 43 5 2 3 0 0 0 0 0 0 0 0 0 0 0 3 5 0 5 5 5

GFSSE_prec_cloud_090.txt.gz
Cloud_Cover
0 0 0 3 2 4 10 91 97 100 49 100 100 100 100 100 100 100 100 100 100 100 100 100 100 100 100 93 93 88 74 30 60 62 68 37 14 13 99 76 99 64 34
0 2 38 1 9 4 4 5 9 98 100 100 97 100 100 100 100 100 100 100 99 90 100 100 100 98 52 51 12 8 11 22 5 23 6 5 61 32 21 95 54 39 66
1 2 0 3 5 5 0 8 5 0 19 98 100 100 100 100 100 100 100 100 100 100 94 33 84 89 5 1 6 20 5 5 22 5 5 10 90 73 90 5 13 34 56
0 3 1 4 8 8 8 2 11 23 6 8 6 51 82 91 100 90 80 64 15 45 56 28 97 78 74 5 5 5 5 25 88 99 32 80 100 59 72 35 87 5 41
2 0 1 11 9 7 0 0 16 8 14 0 4 5 4 11 1 4 8 60 58 100 26 32 56 33 39 11 66 6 60 48 42 77 88 92 77 65 81 97 85 96 75
3 0 1 12 3 2 0 0 2 7 5 0 2 5 7 2 5 5 24 25 5 9 22 91 98 100 98 100 96 100 100 100 89 70 82 89 88 27 100 46 96 68 36
5 29 3 0 1 0 0 1 3 6 5 7 0 2 8 2 7 4 4 1 1 0 1 3 5 69 100 100 100 100 100 100 100 98 97 91 89 59 90 53 78 65 5
8 6 0 0 0 0 1 1 1 3 3 0 0 4 7 2 0 1 4 5 0 0 0 4 5 80 100 100 100 100 100 100 100 100 100 100 100 87 87 88 63 18 5
0 0 0 0 0 8 1 0 7 2 2 0 2 2 5 5 80 100 8 0 0 5 5 5 31 64 100 99 100 99 100 100 100 100 100 100 100 100 100 100 98 13 21
13 3 1 4 0 2 5 2 0 0 1 2 9 2 7 100 51 1 0 1 0 6 36 7 22 41 100 100 100 100 100 100 100 100 100 97 100 100 100 98 29 5 5
50 24 21 27 0 1 5 4 1 0 0 1 5 0 2 9 94 5 2 4 0 0 67 42 78 100 100 100 100 99 100 100 100 100 100 100 100 98 33 24 5 5 5
78 54 12 6 0 0 6 4 12 0 0 0 0 0 5 4 0 5 2 0 4 5 18 48 38 100 90 100 98 100 91 100 100 100 100 100 100 58 23 5 5 4 5
22 29 17 7 0 2 2 1 0 0 0 0 0 0 5 1 3 4 7 3 8 98 99 34 5 100 96 98 100 78 100 100 96 99 100 84 77 16 8 12 5 6 50
1 0 0 0 0 5 8 0 0 0 0 0 0 0 0 0 0 0 0 0 4 65 98 16 5 38 89 92 82 100 100 96 100 100 100 86 5 5 0 4 5 70 89
0 0 0 0 0 0 0 0 4 0 0 0 0 0 0 0 0 0 0 0 4 34 83 17 5 9 12 91 98 100 100 100 88 79 86 8 3 1 5 21 21 96 47
0 0 0 0 0 0 1 5 3 5 0 0 0 0 0 0 0 0 0 0 0 0 5 5 5 54 68 43 99 100 25 5 5 87 2 0 1 5 29 61 70 28 58
1 0 0 0 0 0 5 7 22 0 0 0 0 0 0 0 0 0 0 0 0 0 0 1 0 6 5 6 67 68 5 5 6 0 0 5 6 72 100 100 63 47 61
0 0 0 0 1 0 5 5 15 5 0 0 0 0 0 0 0 0 0 0 0 0 0 0 0 0 0 0 1 0 0 0 0 4 5 6 60 87 70 100 100 67 64
0 0 0 0 0 0 3 5 9 93 0 4 3 1 0 0 0 0 0 0 0 0 0 0 0 0 0 0 0 0 0 0 4 5 9 58 56 73 77 95 100 61 94
0 0 0 0 0 0 0 5 4 5 5 0 2 5 0 4 2 0 0 0 0 0 0 0 0 0 0 0 0 0 4 5 5 5 5 5 6 34 100 100 87 57 97
0 0 0 0 0 0 0 1 5 5 4 4 0 1 5 5 5 5 5 5 0 0 0 0 0 1 0 0 0 0 0 0 3 5 5 5 29 67 55 5 5 83 9
0 0 0 0 0 0 0 0 5 5 2 5 5 5 5 5 5 14 11 5 6 5 5 0 0 0 0 0 0 0 0 5 5 4 0 0 5 5 5 5 7 8 3
0 0 0 0 0 0 0 1 4 4 4 5 5 5 6 5 27 5 87 38 36 49 7 5 0 0 0 0 0 0 0 0 0 0 0 0 5 5 0 5 4 5 1
0 0 0 0 0 0 0 0 0 0 4 5 5 5 5 4 7 6 48 100 82 72 96 32 5 2 0 0 0 0 0 0 0 0 3 4 5 2 0 5 4 5 4
88 45 35 0 0 0 0 0 0 0 3 3 5 38 38 4 5 5 35 54 63 100 55 5 15 5 2 7 0 0 0 0 0 0 2 4 5 0 0 1 5 5 5
30 100 66 0 0 2 0 0 0 0 0 16 5 20 91 85 0 5 9 71 6 100 26 14 6 5 5 4 0 0 0 0 0 0 2 3 5 4 0 5 2 5 4

GFSSE_prec_cloud_093.txt.gz
Cloud_Cover
1 5 2 3 4 48 19 37 88 100 100 100 100 100 99 99 92 95 91 69 100 100 77 64 30 93 100 100 100 82 66 92 79 77 97 100 100 100 100 85 61 42 80
3 3 0 4 1 5 5 5 5 9 83 100 100 100 100 97 98 55 98 100 100 100 100 93 99 100 100 100 75 18 35 42 48 5 29 72 88 99 9 52 7 58 50
0 2 1 0 0 0 17 1 0 0 21 100 72 100 100 100 100 100 100 100 100 100 100 100 94 20 55 9 10 5 5 5 5 5 38 76 94 100 28 32 98 95 18
0 10 2 0 6 3 6 8 9 1 10 44 100 100 100 100 100 100 100 100 100 100 74 63 52 100 100 68 9 5 19 14 20 52 94 91 100 100 60 78 89 12 5
14 0 0 8 14 4 2 4 3 6 0 16 5 2 18 51 82 81 57 61 90 100 100 100 74 93 68 100 100 91 60 60 100 100 83 79 67 42 93 99 95 11 25
0 0 3 6 7 2 0 8 5 2 8 5 15 4 5 4 6 50 98 84 68 99 100 100 100 100 80 99 100 100 100 98 80 78 50 62 35 43 20 100 97 66 5
0 26 19 5 1 0 0 1 2 2 0 3 5 35 5 5 6 9 5 4 2 1 3 20 61 96 100 100 100 100 100 100 90 79 66 53 62 32 49 17 98 5 6
4 2 14 0 1 7 0 0 9 0 2 2 4 7 4 10 16 77 94 31 5 0 5 5 86 100 100 100 100 100 100 100 100 100 100 100 60 69 100 82 38 5 32
0 24 25 7 13 0 0 0 5 14 4 9 9 12 99 100 100 100 24 5 5 5 5 32 6 29 100 100 100 100 100 100 100 100 100 100 96 97 99 100 31 12 16
2 17 30 22 32 11 4 2 0 0 6 3 2 25 100 66 0 0 0 0 10 21 83 97 5 38 100 100 100 100 100 100 100 100 100 47 100 100 97 98 5 5 1
12 39 22 2 1 3 11 2 2 0 13 11 4 5 4 6 3 3 0 5 96 28 6 73 89 98 100 100 100 100 100 100 100 100 65 80 100 44 7 5 5 0 4
19 48 37 0 12 7 4 0 6 6 6 2 0 5 0 7 19 0 5 92 34 4 18 99 99 100 100 100 100 99 100 100 100 34 92 100 10 22 7 5 3 5 34
1 7 11 0 28 1 2 0 0 0 0 0 0 1 0 2 0 0 4 17 50 5 13 86 96 100 99 100 100 100 100 100 73 100 100 71 5 9 3 5 15 97 92
0 0 0 0 3 4 2 0 0 0 0 0 0 0 0 0 0 0 5 5 5 5 14 71 9 100 91 100 99 100 53 72 100 97 64 5 53 4 5 5 76 47 21
0 0 0 0 0 0 0 0 0 0 0 0 0 0 0 0 0 0 5 5 5 5 5 30 29 56 16 88 94 57 100 78 42 100 30 2 5 5 5 47 7 14 22
0 0 0 0 0 5 0 0 0 0 0 0 0 0 0 0 0 0 0 4 1 5 5 5 5 14 34 6 10 11 5 51 7 2 0 1 5 33 32 68 29 69 100
0 0 0 0 0 2 5 0 0 0 0 0 0 0 0 0 0 0 0 0 0 0 4 6 26 6 5 4 2 5 5 5 0 0 5 5 5 43 50 38 7 60 44
0 0 0 0 0 0 0 4 0 0 0 0 0 0 0 0 0 0 0 0 0 0 0 0 0 0 0 0 0 3 0 0 0 5 5 5 7 57 99 100 29 36 100
0 0 0 0 0 0 3 0 0 0 0 0 0 0 0 0 0 0 0 0 0 0 0 0 0 0 0 0 0 0 5 5 33 38 11 5 12 99 100 100 29 99 37
0 0 0 0 0 0 0 0 0 0 0 5 3 0 0 5 5 4 1 0 0 0 0 0 0 0 0 0 0 0 2 3 1 5 5 5 6 96 100 45 73 9 1
0 0 0 0 0 0 0 0 5 1 2 4 3 0 0 1 5 5 5 5 0 0 0 0 0 0 0 0 0 0 0 0 1 5 5 5 29 49 4 4 5 0 34
15 0 0 0 0 0 0 0 2 5 5 5 5 5 5 5 5 5 7 5 5 2 0 0 0 0 0 0 0 0 1 0 0 0 0 3 0 3 5 2 0 4 5
69 0 0 0 0 0 0 1 4 2 5 5 5 8 5 5 5 5 8 4 5 5 4 0 0 0 0 0 0 0 0 0 0 0 0 0 4 5 5 5 2 2 5
50 0 0 0 0 0 0 0 0 0 1 5 1 0 0 5 6 5 81 44 4 5 5 5 0 0 0 0 0 0 0 0 0 0 0 0 5 5 5 5 5 5 25
5 12 0 0 0 0 0 0 0 0 0 0 5 5 0 0 4 4 9 100 47 5 5 5 5 5 0 0 0 0 0 0 0 0 0 0 1 3 0 0 5 5 5
7 4 6 1 0 0 0 4 0 1 0 0 4 5 2 0 0 5 5 14 100 74 5 5 5 5 5 0 0 0 0 0 0 0 0 0 0 0 2 4 4 5 58

GFSSE_prec_cloud_096.txt.gz
Cloud_Cover
21 2 5 61 98 100 100 100 100 100 100 100 100 100 100 94 25 74 96 74 76 99 93 100 100 99 80 76 85 100 100 53 77 95 87 100 55 95 100 78 97 45 57
2 2 6 0 13 5 6 5 75 100 100 100 100 100 100 100 100 100 100 100 91 100 84 100 100 100 100 100 78 85 99 92 15 11 55 20 95 99 99 100 44 22 48
6 6 19 2 2 0 5 0 0 7 45 89 100 100 99 45 100 100 91 60 75 100 100 100 100 100 98 100 99 97 37 9 11 9 98 99 100 82 46 24 78 8 11
100 92 1 0 5 7 10 0 0 1 1 3 70 96 29 100 100 100 82 100 100 100 100 100 100 33 58 99 84 6 7 59 28 31 62 74 100 100 51 7 6 15 39
100 16 0 0 0 3 5 5 1 4 2 8 6 86 100 100 100 100 100 100 100 100 100 98 79 86 14 62 76 5 13 96 94 73 62 65 74 100 99 100 73 5 31
19 74 3 0 0 0 11 2 2 5 5 6 12 8 5 5 7 68 80 100 86 75 85 100 100 100 54 6 69 100 100 96 100 95 75 60 32 83 85 72 5 5 5
37 15 8 0 1 2 2 5 0 2 1 8 12 5 26 78 97 100 31 7 45 72 100 100 88 100 88 91 74 100 99 100 87 41 88 72 76 7 86 54 42 16 5
13 48 24 0 0 1 0 5 1 6 0 2 9 70 100 100 93 100 99 73 24 18 68 96 100 66 100 100 100 100 100 100 100 96 97 77 8 45 78 68 86 27 22
3 56 60 10 0 1 0 0 2 3 0 8 100 100 100 100 99 100 100 59 5 5 4 7 85 100 100 100 100 100 100 100 100 100 100 98 12 100 86 100 45 5 4
48 92 22 27 75 81 18 0 2 1 0 5 88 100 100 7 0 0 1 5 5 5 5 9 21 100 100 100 100 100 100 100 100 100 100 19 100 100 100 81 5 5 4
33 51 6 6 31 4 50 1 0 2 1 0 1 76 75 100 60 56 37 5 5 5 5 5 88 100 100 100 100 100 100 100 100 100 98 100 99 79 11 5 5 24 99
16 14 0 41 42 57 2 87 25 56 54 37 30 94 100 51 43 7 3 5 10 64 82 98 100 100 100 100 100 100 100 100 100 98 100 100 28 29 18 5 67 93 42
0 0 0 28 62 11 5 10 36 27 8 24 86 98 45 2 0 5 0 5 18 100 75 95 99 100 100 72 97 100 100 100 100 100 100 14 54 54 31 82 55 64 8
0 0 0 18 90 27 14 5 5 3 2 14 0 0 0 0 0 2 0 5 8 24 16 100 100 98 99 100 100 100 81 100 100 100 42 28 5 8 19 53 49 28 39
0 0 0 7 59 50 44 24 24 4 11 0 0 0 0 0 0 11 7 6 5 23 86 96 100 100 100 84 69 59 100 92 7 90 31 0 5 5 12 5 5 5 5
0 0 0 1 11 34 7 32 19 12 0 0 0 0 4 2 0 0 8 36 0 2 22 5 5 25 14 16 5 28 23 21 37 3 0 5 5 5 5 5 5 22 6
0 0 0 2 0 0 0 2 37 0 6 15 1 0 0 2 0 0 2 17 0 0 0 3 5 5 4 3 5 5 5 5 5 5 5 5 5 6 5 5 15 100 0
0 0 0 0 0 0 9 22 57 42 46 26 2 0 0 0 0 7 27 54 0 0 10 14 12 5 5 5 5 8 13 50 99 99 6 5 5 5 40 5 5 1 5
0 0 0 1 7 3 0 2 49 7 82 26 19 15 0 0 0 27 64 14 0 4 20 19 0 7 1 3 5 5 47 55 48 5 5 5 5 49 5 5 0 10 42
0 0 0 13 8 7 11 4 51 40 44 4 34 24 0 0 0 9 1 0 33 38 1 0 0 0 3 2 12 5 5 5 5 5 5 30 51 100 1 3 1 18 13
0 0 7 9 5 6 4 36 38 50 25 6 26 0 0 0 0 0 5 0 0 12 7 0 0 0 0 0 0 0 0 2 5 5 5 5 5 3 3 5 5 32 94
0 0 0 6 0 0 3 43 90 73 60 58 30 0 3 0 0 0 0 7 3 4 0 0 0 13 0 0 1 0 0 0 0 0 0 0 0 0 0 5 5 11 8
0 0 0 0 0 0 14 8 7 23 2 5 9 8 0 4 4 0 0 7 0 22 17 0 0 1 11 0 0 13 14 6 0 0 0 0 0 0 5 5 5 8 82
4 0 0 0 0 0 0 1 4 10 20 45 55 58 0 2 42 32 0 0 0 4 0 3 0 0 0 0 0 0 1 0 0 0 0 0 0 4 2 5 5 51 37
2 0 0 0 0 0 0 0 5 4 81 17 47 11 38 1 0 26 28 0 5 5 4 0 0 0 0 2 0 0 0 0 0 0 0 0 0 0 5 35 38 80 9
4 0 0 0 0 0 2 5 5 16 7 63 48 18 43 68 14 1 16 31 7 12 5 5 1 0 0 0 0 0 20 45 10 0 0 0 0 0 5 11 42 59 83

GFSSE_prec_cloud_099.txt.gz
Cloud_Cover
4 4 23 42 99 100 100 100 100 100 100 100 100 100 100 100 100 100 96 92 87 99 49 7 45 87 86 100 100 100 100 100 100 64 91 50 68 100 100 100 100 100 80
6 0 0 2 22 100 100 100 100 100 100 100 100 100 100 100 100 100 62 45 100 99 100 97 100 95 78 98 99 100 75 90 46 73 82 75 6 99 100 100 100 100 43
46 2 3 0 5 47 68 27 76 100 82 100 100 100 100 100 100 100 100 100 100 100 100 77 84 100 100 100 100 97 93 93 96 98 75 19 95 68 100 100 98 90 74
79 19 3 0 5 0 5 2 4 1 5 69 100 94 100 100 93 85 78 100 98 68 84 99 100 100 100 100 100 100 100 53 94 100 100 99 94 97 100 92 68 49 100
33 30 0 5 0 1 5 0 0 0 1 1 3 5 22 17 84 100 100 100 100 100 100 100 100 100 100 57 88 100 99 78 43 59 79 96 100 100 100 100 100 66 70
84 8 0 0 0 12 6 4 1 1 3 3 6 5 5 30 97 68 91 100 100 100 100 100 100 100 100 100 98 100 85 94 100 86 83 97 100 100 100 100 100 24 8
53 9 0 0 10 2 0 0 4 4 5 6 3 12 17 18 5 77 53 81 93 96 100 100 100 100 100 100 41 100 100 100 75 100 98 100 100 100 86 72 61 11 7
81 82 1 0 1 0 0 5 0 0 0 6 97 100 99 100 30 39 42 100 72 99 94 100 100 100 100 100 100 100 100 100 96 94 99 100 79 83 74 31 79 26 5
22 48 15 0 0 0 13 0 4 4 90 100 100 100 100 100 100 100 82 63 77 11 5 61 99 100 100 100 100 100 100 100 100 95 100 100 94 98 23 21 86 5 7
31 88 97 96 95 8 0 1 2 2 4 52 100 100 100 92 4 54 2 5 5 5 6 32 73 100 100 100 100 100 100 100 100 100 100 97 100 100 100 8 5 4 33
22 70 100 100 25 12 5 0 0 3 5 3 90 100 99 66 5 62 5 3 64 16 90 58 100 97 100 100 100 100 100 100 100 100 100 100 100 84 7 5 10 60 6
73 100 100 100 100 42 0 56 24 41 48 48 83 33 100 50 0 5 5 5 7 70 17 71 87 100 100 100 100 100 100 100 100 100 100 100 49 5 5 5 12 5 5
30 0 100 98 17 3 36 65 48 99 42 99 24 88 24 12 1 10 35 97 76 77 97 100 100 100 100 100 100 100 100 100 100 100 100 100 16 6 5 5 5 5 5
0 0 73 65 99 14 4 95 100 27 31 98 94 39 1 40 100 95 98 62 100 100 99 100 100 100 100 100 100 100 100 96 100 50 5 5 5 5 16 47 6 5 5
0 0 90 36 85 29 25 45 83 18 88 7 64 42 95 100 78 93 87 94 44 85 85 100 88 100 100 81 100 28 97 100 30 95 72 4 5 69 86 5 5 5 4
0 0 49 68 91 100 26 8 21 92 0 65 73 40 98 86 100 38 35 100 89 100 100 100 100 94 92 40 100 96 21 5 41 23 48 84 94 38 5 5 5 4 5
0 0 26 64 46 98 71 42 46 15 100 100 20 43 4 11 21 21 38 94 61 0 6 9 24 6 13 5 5 60 93 42 35 97 100 100 15 5 5 5 0 5 63
0 0 17 98 20 63 98 90 100 100 97 40 85 36 17 0 0 42 48 100 2 64 89 87 77 82 20 19 15 50 18 100 99 27 44 22 9 5 1 0 5 85 11
1 3 13 85 100 100 3 100 29 75 80 96 97 100 33 37 17 100 71 63 97 88 59 82 58 92 7 16 34 6 31 6 5 6 5 17 86 46 0 32 100 42 76
1 36 18 35 100 100 19 66 98 96 34 99 84 92 0 68 1 90 20 8 24 100 52 35 1 22 32 10 100 1 3 4 5 6 8 52 6 1 22 99 58 75 35
21 14 100 99 11 6 2 81 90 90 100 100 100 6 9 41 16 0 87 0 5 82 53 0 31 34 30 0 72 0 0 0 1 15 7 7 0 0 58 26 63 51 52
12 21 13 100 3 10 17 100 88 100 97 100 100 6 87 52 9 4 61 55 98 16 24 0 0 26 10 6 85 93 10 4 11 12 2 0 1 4 36 45 92 70 96
4 2 1 32 2 5 100 86 100 100 98 83 92 48 38 49 24 88 2 99 0 40 16 0 0 7 97 0 12 60 47 95 1 0 0 2 0 4 44 24 22 49 100
7 19 0 0 15 0 13 63 55 93 21 5 100 100 97 76 53 81 12 4 0 55 64 8 0 0 24 60 0 0 88 2 100 55 0 0 0 5 9 12 9 43 94
45 98 22 0 1 40 0 71 9 69 100 100 100 95 100 5 76 88 31 21 0 3 2 97 2 0 13 17 95 30 0 0 0 28 96 1 3 5 5 5 5 99 100
90 100 94 0 0 0 0 0 13 18 48 100 94 92 88 96 14 20 58 10 10 39 2 2 13 1 0 6 19 1 100 35 62 38 12 7 65 0 5 5 26 80 97

GFSSE_prec_cloud_102.txt.gz
Cloud_Cover
0 0 1 5 66 100 100 100 100 100 100 100 100 100 100 100 100 100 100 100 100 100 98 73 52 7 13 78 89 100 97 100 92 100 100 66 100 100 100 100 100 100 100
0 0 0 5 14 5 5 100 100 100 100 100 100 100 100 100 100 100 100 98 98 96 94 94 59 100 100 100 78 100 100 100 100 99 98 88 100 100 100 100 100 100 91
0 2 3 5 8 6 98 100 100 100 100 100 100 100 100 100 100 100 100 100 100 100 100 100 100 100 68 79 100 100 100 100 100 100 82 76 90 63 100 100 100 97 20
20 0 1 4 48 49 92 49 94 99 100 100 100 100 100 100 100 100 100 100 100 100 100 94 100 100 98 95 100 100 100 100 100 100 75 81 99 83 100 100 73 86 33
53 0 0 1 0 1 3 10 13 4 10 13 36 88 71 73 100 100 100 100 100 100 100 100 100 86 99 100 100 92 94 100 100 100 98 77 100 100 100 100 91 66 28
5 0 0 0 2 3 0 0 0 4 1 1 0 3 10 25 5 5 28 97 100 100 100 100 93 100 100 96 100 97 100 62 100 71 77 99 100 100 100 84 5 18 42
0 0 0 0 1 2 4 1 0 8 6 5 27 32 95 71 82 5 34 38 31 50 100 100 100 100 100 100 100 82 92 100 84 11 23 68 95 73 58 34 8 9 11
0 0 0 1 0 1 0 0 1 21 39 17 8 5 25 99 53 29 24 12 36 62 100 100 100 100 100 100 100 97 47 97 100 93 14 25 33 5 42 35 14 5 6
0 0 0 0 0 2 0 1 1 100 7 5 16 5 5 5 5 2 11 5 5 26 78 100 100 100 100 100 100 94 100 75 37 54 25 44 15 66 42 5 5 5 1
28 65 58 0 3 0 2 0 3 2 5 5 6 99 94 13 10 3 0 0 0 2 3 5 47 100 100 100 100 100 100 98 81 100 100 19 100 100 100 80 5 4 5
10 6 6 70 0 0 0 0 0 0 0 5 11 9 1 2 2 5 0 4 5 0 5 95 25 6 80 100 100 100 100 28 100 100 100 49 100 68 7 5 5 5 5
93 100 19 91 6 0 0 0 0 0 2 9 79 4 90 23 3 0 0 0 0 36 34 25 5 88 98 99 96 100 99 100 100 100 76 100 100 10 6 58 56 5 2
100 7 79 79 99 1 0 29 25 77 100 100 5 17 6 1 4 4 2 85 94 100 100 80 21 100 100 100 97 100 100 100 100 97 100 56 6 5 27 27 5 1 0
0 0 51 58 53 44 8 91 35 26 75 57 83 0 39 73 44 100 100 100 74 100 100 82 42 100 100 88 87 100 100 88 64 68 14 8 40 23 71 5 5 0 5
9 5 14 29 0 74 100 75 97 81 89 0 24 54 95 48 31 100 88 90 100 51 85 93 99 74 63 86 100 86 92 85 58 8 31 84 79 74 5 4 0 4 5
14 1 91 5 1 97 34 5 59 100 0 6 100 100 29 99 100 6 87 47 95 93 99 99 100 97 100 100 100 97 31 6 5 6 86 84 65 5 5 4 4 82 100
10 15 99 5 7 37 0 44 47 20 49 0 25 33 100 56 100 0 48 92 7 86 100 98 85 21 4 6 5 5 5 5 38 97 49 13 5 5 0 5 5 98 100
2 0 18 40 91 25 19 0 44 100 93 3 0 0 0 0 70 1 90 10 0 0 46 2 27 5 5 5 5 5 5 7 5 6 5 5 4 0 0 5 5 20 100
0 0 100 42 36 74 93 68 24 21 8 51 39 2 0 14 20 18 98 1 28 53 7 94 0 79 66 75 49 1 0 0 0 2 5 67 6 0 5 5 5 84 96
0 27 100 43 3 7 76 36 7 8 99 69 23 5 2 2 28 6 35 0 2 18 95 0 69 0 86 10 84 4 0 3 1 0 0 0 5 11 10 5 94 100 100
0 80 100 100 46 10 92 56 44 5 95 1 99 96 19 0 0 0 4 2 100 2 0 0 2 0 35 98 1 0 0 0 0 0 42 2 19 3 5 29 100 100 100
0 71 45 43 4 26 38 98 76 100 2 46 1 0 1 24 1 84 48 9 35 20 0 0 0 0 0 0 0 10 12 0 40 2 19 0 0 7 5 98 100 100 100
0 0 19 90 0 5 17 86 85 64 10 49 52 79 18 32 0 98 100 43 100 100 54 1 0 0 0 8 0 0 10 64 3 0 0 0 2 3 11 95 17 5 5
1 0 0 0 0 1 23 83 23 34 97 53 100 100 58 85 22 8 1 5 75 100 49 5 0 61 0 0 8 72 55 20 0 3 2 3 3 0 0 2 0 1 5
4 0 0 0 0 2 25 21 20 47 84 99 75 74 9 14 66 13 6 1 100 100 94 12 5 0 23 5 18 100 100 14 78 76 36 0 0 82 100 100 100 99 81
10 2 2 0 0 0 0 49 15 5 100 100 100 29 100 100 90 13 92 61 100 100 5 22 5 5 0 3 100 100 100 100 49 89 100 100 99 100 100 100 100 100 100

GFSSE_prec_cloud_105.txt.gz
Cloud_Cover
0 0 2 28 95 85 100 100 100 100 100 100 100 100 100 95 99 100 100 100 100 100 100 100 100 100 17 55 100 96 100 100 100 100 100 85 100 99 86 100 100 100 100
0 0 2 4 6 7 100 97 100 100 100 100 100 100 100 100 100 100 100 100 100 100 100 100 100 89 99 100 92 100 100 100 91 100 45 41 98 100 100 100 100 100 100
0 0 0 3 0 2 5 5 16 99 99 40 97 98 100 100 97 100 100 100 100 100 100 100 100 100 100 100 100 100 100 100 98 100 64 30 5 98 100 100 100 95 34
0 0 0 0 5 0 7 8 4 5 89 100 99 100 100 100 100 100 100 100 100 100 100 100 100 100 100 97 100 100 100 100 100 67 44 27 89 24 78 90 45 7 33
0 0 0 0 0 2 10 4 5 14 100 100 100 100 100 100 100 100 100 100 100 100 100 100 100 100 100 100 100 100 82 100 100 96 36 44 28 74 31 7 18 5 70
0 0 0 0 0 0 11 5 3 5 5 6 19 90 100 100 100 100 100 100 100 100 100 100 100 58 84 100 100 100 99 81 18 94 93 84 47 5 5 5 13 5 40
0 0 0 0 0 0 0 0 3 1 2 6 8 5 8 54 60 13 16 57 45 68 97 100 100 96 100 100 100 100 85 60 97 60 76 93 85 55 79 36 7 27 26
0 0 0 0 0 0 0 5 2 4 4 8 12 4 22 46 22 47 86 8 12 38 91 100 97 100 100 100 100 92 100 95 68 6 84 31 6 76 82 90 28 22 5
0 0 0 0 0 0 0 6 3 3 5 5 4 4 4 2 3 5 5 5 5 9 100 100 100 100 100 100 100 93 47 81 12 21 18 46 84 54 93 100 29 5 5
5 0 0 0 0 0 0 1 0 2 2 1 2 5 5 4 3 5 5 5 4 4 16 96 99 100 100 100 65 100 100 38 12 49 66 82 38 100 98 41 5 5 1
0 0 0 0 0 0 0 0 0 0 28 96 7 1 5 4 2 3 4 17 5 5 5 13 80 100 67 100 100 90 57 76 90 66 64 100 100 98 88 5 5 1 0
0 6 0 0 0 0 0 1 2 7 99 98 9 2 0 1 2 54 36 100 70 100 12 55 58 100 100 100 89 100 68 58 26 98 100 100 58 38 93 70 5 0 2
53 0 0 0 0 0 0 1 4 0 4 10 3 1 89 47 97 70 100 97 81 74 100 100 100 82 65 86 78 100 100 90 100 100 80 9 8 10 76 31 5 5 30
4 0 6 26 0 0 0 0 0 0 0 0 0 5 61 100 100 100 100 100 100 100 100 100 100 100 100 99 99 100 100 89 76 73 5 5 5 13 30 22 6 6 5
0 0 5 26 68 14 0 44 0 89 10 22 3 49 77 100 100 100 100 100 100 57 80 98 100 100 59 100 71 100 99 6 5 4 2 5 5 5 96 80 97 7 81
0 0 0 0 84 98 13 24 22 90 100 61 37 8 1 10 42 100 100 100 100 99 91 97 100 91 96 39 18 9 5 5 2 5 5 5 2 68 6 71 20 38 100
0 9 0 0 99 88 30 43 100 0 31 0 3 60 0 0 1 0 2 1 93 40 100 100 29 4 3 3 5 5 5 5 1 0 0 1 5 5 5 6 91 85 60
0 0 0 0 21 11 97 6 6 51 47 0 0 0 63 8 4 98 8 6 3 5 60 29 3 66 33 4 6 3 5 4 3 0 0 0 0 1 5 5 35 100 100
0 4 32 10 3 0 0 0 86 25 3 0 0 0 2 2 5 66 94 95 18 0 1 4 99 33 24 80 14 0 0 0 2 0 0 0 1 40 4 6 100 41 76
0 5 38 93 55 5 4 1 26 47 49 0 2 2 19 9 56 100 100 19 98 0 0 52 39 53 62 97 11 0 0 0 0 0 2 5 4 6 88 100 100 94 91
0 0 7 26 7 90 17 1 4 76 100 52 11 45 68 100 90 90 100 98 90 33 0 47 25 100 54 67 0 0 0 0 0 2 48 2 2 62 100 15 5 5 20
0 0 96 9 82 57 93 9 40 94 96 32 52 0 1 56 26 100 82 83 100 0 0 81 3 3 75 0 0 0 0 0 11 62 5 5 66 85 43 100 100 100 100
0 0 0 64 5 22 98 59 27 93 99 23 5 4 75 100 91 100 100 100 20 2 0 4 15 95 5 3 0 0 1 30 61 5 30 91 100 74 100 100 100 100 100
1 0 0 0 4 24 22 100 93 99 100 98 91 64 49 96 82 100 99 70 74 19 5 7 31 100 100 85 3 50 10 14 5 98 100 100 100 100 100 100 100 100 100
4 0 0 1 0 5 73 92 100 100 100 100 89 100 100 100 84 12 16 7 5 44 6 3 4 7 100 100 59 97 56 60 86 35 100 100 100 100 100 100 100 100 100
3 3 0 0 0 0 34 4 90 100 100 94 99 100 100 100 100 100 97 14 19 73 100 66 5 1 17 100 25 84 99 100 100 100 99 100 100 100 100 100 100 100 100

GFSSE_prec_cloud_108.txt.gz
Cloud_Cover
0 52 100 100 100 100 100 100 94 74 72 95 100 100 100 100 100 100 100 100 100 95 100 100 100 100 100 95 100 61 96 96 100 100 42 5 12 52 49 39 92 84 93
0 0 0 12 100 100 100 100 100 100 100 100 100 100 100 100 100 100 100 100 100 100 100 100 100 100 100 100 99 100 100 96 100 100 100 61 86 100 95 100 100 100 100
0 0 0 0 12 85 100 99 100 86 99 100 100 100 91 97 100 100 100 100 100 100 100 100 100 100 100 100 100 78 100 100 100 100 100 23 57 98 100 100 100 24 49
0 0 0 0 0 1 5 31 41 100 100 100 69 100 96 60 100 90 100 100 95 97 100 89 100 100 100 100 100 100 99 100 100 100 90 74 77 100 47 21 24 45 76
0 0 0 1 0 0 0 5 5 5 25 76 100 96 86 90 92 69 97 98 88 90 100 100 100 100 100 100 100 100 100 100 100 91 90 91 85 100 82 91 100 92 77
0 0 0 0 3 0 4 1 4 3 13 2 6 85 98 100 100 100 100 100 100 100 100 100 100 100 100 100 100 100 98 79 90 100 71 100 100 99 98 100 62 8 5
0 0 0 0 0 1 5 6 5 3 3 5 5 5 58 53 67 100 100 100 100 100 100 100 100 100 100 100 100 100 100 100 100 100 100 100 98 98 86 80 41 82 24
3 0 0 0 0 0 3 5 6 5 5 5 5 8 7 12 79 71 100 100 100 100 100 100 100 100 100 100 100 100 100 100 100 100 100 74 12 22 91 90 6 5 4
0 0 0 0 0 0 5 2 4 5 4 2 5 48 66 100 100 63 100 100 100 100 100 100 100 100 100 100 100 100 100 100 100 100 82 25 9 68 51 5 5 0 0
0 0 0 0 0 2 4 4 2 0 8 5 68 75 55 24 12 94 78 5 71 100 100 100 100 100 100 100 100 100 98 100 100 70 44 29 100 7 5 5 17 10 2
0 0 0 0 0 0 5 70 70 91 54 0 25 20 56 23 73 95 4 2 1 100 100 100 100 100 100 100 100 67 94 95 94 97 100 100 51 21 5 26 100 42 31
0 0 0 0 0 0 0 2 7 8 63 100 100 98 94 39 78 35 3 5 5 5 6 82 100 100 100 100 100 86 80 96 100 100 92 95 45 5 36 52 96 88 5
0 0 0 0 0 0 0 0 5 5 32 74 83 95 68 46 14 69 2 5 32 37 94 100 88 100 100 100 100 99 100 100 37 5 64 8 5 17 92 96 14 22 46
0 0 0 0 0 0 0 0 4 29 4 41 58 8 31 87 82 5 56 7 5 22 53 98 40 78 100 100 96 28 91 5 5 7 55 5 2 53 36 7 65 8 100
0 0 0 0 0 0 0 27 0 0 5 100 32 28 27 78 91 98 88 27 5 98 96 88 65 88 5 79 82 5 9 5 38 76 6 5 5 5 12 12 5 14 100
0 0 0 0 0 0 0 6 4 24 7 41 1 39 71 73 43 15 70 100 100 73 91 46 33 93 6 3 1 4 5 39 97 15 0 1 5 84 100 100 39 12 5
0 0 0 10 39 1 23 20 0 0 2 5 0 5 5 5 4 4 100 100 100 100 51 92 71 5 5 5 5 5 5 6 5 0 5 27 65 90 84 99 100 100 98
4 0 0 7 56 64 99 0 10 7 38 1 4 3 41 44 8 5 100 100 100 100 15 4 11 21 5 0 0 5 0 0 0 10 5 5 5 69 100 99 100 100 100
0 5 5 5 87 74 89 4 90 74 34 5 7 5 70 100 93 17 0 17 58 15 3 28 6 94 71 2 0 4 0 1 54 11 4 5 99 100 100 100 100 100 100
0 4 5 5 0 5 14 9 51 8 0 3 5 56 100 100 99 100 0 0 1 2 13 56 31 0 1 0 0 0 4 5 6 5 18 100 100 100 100 100 100 100 100
0 0 5 5 5 3 5 5 1 5 5 8 97 40 73 98 100 54 0 0 5 0 0 15 12 0 68 0 0 2 0 2 2 58 100 100 100 100 100 100 100 100 100
0 0 0 4 3 2 5 67 5 98 8 28 61 28 67 8 5 5 1 5 5 45 5 16 0 20 0 0 5 0 0 1 75 100 100 100 100 100 100 100 100 100 100
0 0 0 0 0 5 5 97 79 30 97 75 100 19 5 85 13 15 5 5 0 6 20 66 4 3 0 0 0 1 0 4 5 58 65 100 100 100 100 100 100 100 100
4 0 0 0 0 2 5 28 76 99 100 100 100 100 5 62 64 86 32 9 0 0 5 23 5 2 5 0 1 0 0 6 100 100 100 100 100 100 100 100 100 100 100
3 4 0 0 0 0 5 96 26 6 100 76 98 90 100 94 96 92 33 8 31 5 5 4 21 11 73 100 52 15 6 95 100 100 100 100 97 99 99 100 100 100 100
4 4 0 0 0 0 0 5 5 5 91 100 100 100 100 100 100 100 37 6 87 14 86 28 54 7 68 7 27 100 24 90 100 100 100 91 66 100 84 100 100 100 100

GFSSE_prec_cloud_111.txt.gz
Cloud_Cover
25 30 68 99 100 100 100 100 100 100 100 100 100 100 80 71 100 84 100 94 100 87 88 100 91 100 100 92 99 100 93 93 100 46 92 100 100 91 93 74 31 65 100
4 8 100 66 82 100 100 100 100 100 100 100 100 82 83 100 100 97 100 62 100 100 100 100 100 100 100 100 100 86 99 100 100 100 100 100 100 63 62 100 100 90 95
4 3 52 100 100 98 100 100 98 100 97 98 100 100 100 100 100 100 100 100 100 100 100 100 100 100 100 91 94 100 97 99 92 100 98 98 85 94 57 86 100 100 100
2 5 3 13 8 5 92 99 99 100 100 88 100 100 100 100 100 100 100 100 100 100 100 100 100 100 100 100 100 100 100 80 79 100 95 78 100 58 82 87 99 84 18
0 3 5 0 0 0 0 31 88 97 94 100 100 100 100 100 100 100 100 100 100 100 100 100 100 100 100 97 100 100 100 100 98 98 92 100 100 99 6 12 19 64 8
0 0 3 0 0 0 1 45 76 100 100 100 100 100 100 100 100 100 100 100 100 100 100 100 100 100 100 100 100 100 100 100 96 85 99 88 70 7 8 18 5 16 8
1 0 0 1 1 0 4 76 95 48 57 62 99 98 89 98 100 100 100 100 100 100 100 100 100 100 100 100 100 100 100 100 100 95 36 5 42 25 9 22 40 38 8
1 0 0 0 2 0 0 5 5 5 6 5 5 8 6 39 13 5 72 100 100 100 100 100 100 100 100 100 100 100 100 100 95 40 5 9 5 53 13 16 12 10 16
3 5 0 0 2 5 5 7 5 5 5 5 5 31 100 100 100 100 100 100 100 100 100 100 100 100 100 100 100 100 100 100 58 5 5 5 65 8 100 7 1 2 2
0 0 0 1 5 78 56 10 6 4 5 7 9 8 20 88 98 78 5 100 100 100 100 100 100 100 100 100 100 100 100 70 5 5 5 7 5 55 47 8 1 0 0
5 0 0 7 0 48 74 100 74 86 100 11 16 98 71 5 5 5 35 76 74 100 100 100 100 100 100 100 100 98 10 11 86 37 8 5 5 7 86 96 36 5 5
23 2 0 0 0 0 47 100 41 98 95 13 5 6 8 17 34 5 14 5 33 100 100 100 98 100 100 100 100 29 35 23 17 28 5 8 5 17 82 98 100 39 13
0 2 0 0 0 2 11 80 18 74 22 7 42 93 36 3 1 0 0 0 13 73 100 100 85 91 100 100 81 74 6 5 5 5 5 79 36 100 100 100 100 100 100
0 0 0 0 0 3 14 90 12 71 42 5 5 4 5 2 5 3 1 35 100 98 41 24 68 68 7 38 64 5 8 6 5 20 87 95 100 100 98 20 30 96 100
5 30 2 0 2 4 0 1 4 0 1 7 29 16 5 5 5 5 38 20 5 20 41 62 40 21 32 5 5 4 5 5 20 97 95 100 100 80 44 62 99 87 92
3 40 10 0 0 8 96 4 5 0 0 20 39 6 5 89 98 90 100 65 41 79 91 28 4 4 5 3 0 0 5 46 100 60 100 61 62 66 100 100 93 100 100
0 5 70 0 2 0 0 0 0 0 1 24 64 2 5 87 65 11 99 100 100 40 4 0 3 5 1 5 0 1 6 100 7 88 71 90 100 100 100 100 100 100 100
0 4 5 28 0 0 0 0 0 0 5 6 92 72 0 4 55 100 87 100 63 6 4 0 0 0 0 0 4 32 50 10 5 5 46 100 100 100 100 100 100 100 100
0 2 5 3 5 5 4 0 34 92 5 15 100 84 10 1 30 90 100 92 1 0 0 0 0 0 0 0 5 10 40 3 20 100 100 100 100 100 100 100 100 100 100
0 2 0 2 15 9 48 5 22 3 0 18 90 95 7 0 5 20 6 0 0 0 0 0 0 0 0 0 0 0 0 67 100 100 100 100 9 100 100 100 100 100 100
0 1 1 0 5 5 22 96 100 6 11 5 5 87 5 0 0 5 5 7 0 0 0 0 0 0 0 0 0 0 25 100 5 100 100 31 5 24 100 84 100 100 100
0 0 2 0 47 5 5 59 100 100 44 69 68 69 38 1 1 5 59 5 5 0 0 0 5 7 23 5 5 2 65 100 100 100 100 100 99 100 98 84 100 100 98
0 0 0 0 12 71 5 61 47 100 100 100 99 77 100 52 42 3 3 4 37 8 27 0 5 9 75 78 52 7 40 7 100 100 100 68 50 100 100 100 74 100 99
0 0 0 0 2 45 5 5 92 42 95 100 100 100 83 59 55 23 16 3 48 81 59 89 67 88 54 100 64 52 82 42 100 100 84 5 94 100 100 100 97 98 97
0 0 0 0 5 5 7 5 13 54 38 100 84 100 100 84 17 56 99 6 5 5 52 65 54 94 98 10 66 10 55 98 79 5 5 5 4 21 35 92 99 100 100
0 0 0 0 0 4 5 30 5 93 72 16 98 71 100 99 100 82 10 69 63 11 6 5 5 14 5 5 5 8 54 10 5 11 5 44 90 34 88 76 76 62 100

GFSSE_prec_cloud_114.txt.gz
Cloud_Cover
18 96 100 100 100 100 100 100 100 100 100 100 100 100 100 100 100 90 99 97 100 88 62 98 100 85 100 99 97 100 100 100 50 94 55 53 91 50 8 13 70 73 7
88 100 100 100 100 100 100 100 100 100 100 100 60 51 100 88 100 100 91 100 97 98 88 84 90 100 100 100 100 100 100 100 100 100 97 100 20 6 5 9 5 18 18
38 98 96 100 100 100 100 99 100 100 100 95 95 87 97 90 93 100 92 100 88 100 100 100 43 100 70 100 93 98 46 100 100 99 65 14 5 73 6 10 5 5 5
4 85 27 39 100 100 100 100 98 100 100 100 100 100 100 100 100 100 99 100 100 100 100 100 98 75 76 100 100 100 46 100 96 32 100 28 24 5 5 5 7 5 4
3 0 1 0 0 2 81 82 84 97 99 95 89 100 100 100 100 100 100 100 100 100 96 98 100 100 100 100 100 99 100 100 16 99 19 5 1 1 4 7 5 3 4
4 0 0 0 0 0 2 12 7 85 99 100 100 100 100 100 100 100 100 100 92 100 100 89 97 100 100 100 29 100 100 14 100 9 5 5 5 7 8 2 9 5 4
3 0 0 1 0 0 2 3 87 90 100 100 100 100 100 100 100 100 100 100 100 100 100 99 100 97 70 95 100 100 60 88 45 6 5 5 52 10 2 8 41 18 16
4 0 3 82 5 4 5 5 13 74 100 100 100 100 99 100 100 100 100 100 100 100 100 100 98 43 100 94 86 100 62 67 29 5 5 5 7 14 14 7 5 14 29
0 0 4 5 5 5 6 9 7 91 100 100 100 100 100 100 100 100 100 100 100 100 100 100 100 100 100 24 88 100 100 16 62 5 14 88 97 77 70 5 5 5 5
1 0 0 5 5 5 4 5 5 5 5 5 5 65 89 100 100 100 100 100 100 100 100 100 100 98 100 100 65 44 5 12 51 92 84 93 96 100 100 100 71 5 5
33 8 0 4 5 60 83 22 36 5 5 28 51 98 93 100 100 100 100 100 100 100 100 100 100 100 100 7 5 5 5 74 100 26 36 100 100 100 100 100 100 9 10
66 36 14 21 4 32 41 15 35 72 87 14 40 9 43 5 5 51 46 100 100 100 100 88 100 100 5 5 5 5 20 100 11 80 80 100 100 74 100 98 100 100 72
9 28 15 8 5 23 5 14 36 60 12 14 5 0 0 3 6 10 5 100 90 100 100 100 98 31 14 5 5 6 100 54 66 76 81 81 81 88 100 77 94 100 89
2 11 0 2 4 2 5 19 4 5 36 5 0 0 1 1 0 0 5 6 84 100 98 54 32 5 5 5 5 57 79 5 66 12 6 33 86 84 90 100 100 96 22
0 0 0 0 2 0 5 3 0 5 5 5 18 3 4 4 3 4 5 10 12 8 88 87 5 5 5 5 5 73 5 65 5 11 42 100 100 100 100 100 99 89 100
0 0 0 2 4 0 0 0 4 1 2 5 16 56 95 61 42 46 8 4 5 59 33 5 5 1 5 5 5 5 5 5 5 18 98 100 100 100 100 100 10 5 85
3 1 0 0 0 0 0 0 3 3 0 2 5 5 46 57 80 68 96 61 8 14 2 0 0 0 4 5 1 0 5 5 54 100 100 100 100 100 100 92 44 99 100
21 6 5 0 0 0 0 5 12 64 85 6 5 5 7 83 81 100 39 38 5 2 0 0 0 0 0 0 0 0 5 42 100 100 31 65 99 23 99 100 100 97 100
0 5 5 15 16 1 0 0 7 45 65 54 5 29 17 28 84 18 2 0 5 0 0 0 0 0 0 0 0 5 75 100 100 100 49 57 99 8 76 100 100 100 57
2 0 4 6 100 5 5 5 5 28 3 5 5 7 98 22 5 4 0 0 1 0 0 0 1 2 0 0 5 88 33 87 38 12 9 12 78 46 94 100 100 96 98
0 5 4 4 5 100 85 100 52 5 4 5 10 4 5 17 1 0 0 0 0 0 0 0 5 5 5 5 5 7 100 100 37 100 100 100 100 100 100 100 100 100 99
0 0 4 5 1 5 21 99 56 44 40 56 6 0 1 3 5 0 0 0 0 4 0 3 2 5 20 48 31 100 100 100 98 84 63 99 100 99 76 94 100 100 100
0 0 5 25 5 5 5 20 67 50 86 9 10 4 2 5 5 5 0 0 2 5 5 52 72 86 96 75 62 100 100 23 5 26 44 92 94 70 97 100 100 96 100
1 0 0 0 2 3 1 5 39 48 45 87 88 95 43 0 5 5 5 5 6 9 23 9 5 27 69 29 5 17 31 65 54 11 13 21 10 27 81 98 97 44 98
0 0 0 0 2 1 0 2 4 12 92 11 84 100 100 20 5 5 5 4 1 5 5 5 5 5 5 5 6 5 6 28 30 5 5 5 5 100 100 56 85 28 92
0 4 0 0 0 3 8 5 14 5 78 100 87 100 100 100 13 3 0 0 0 2 5 3 5 5 5 5 5 5 5 5 31 56 95 23 75 5 37 7 7 12 89

GFSSE_prec_cloud_117.txt.gz
Cloud_Cover
39 97 100 100 100 100 100 100 100 100 100 100 100 100 100 100 100 100 100 100 80 60 57 90 43 65 52 51 75 96 100 93 100 100 100 100 98 5 5 5 6 5 8
100 100 100 100 92 100 100 100 100 100 100 100 100 100 100 100 82 86 68 100 37 22 79 27 60 64 62 83 95 98 100 100 100 100 100 100 5 5 5 33 5 10 5
100 100 95 100 100 100 100 100 100 100 99 99 58 89 87 87 9 100 74 100 100 64 98 41 100 100 66 96 100 100 100 100 100 100 65 68 27 8 5 5 5 1 2
60 93 97 100 100 100 100 100 100 100 100 100 82 95 99 15 30 97 82 97 82 93 100 100 100 94 100 61 99 78 65 98 100 93 96 83 42 7 5 6 5 10 0
26 1 46 100 100 100 100 100 99 100 100 96 60 62 56 94 100 100 100 88 89 100 99 100 100 100 97 62 72 53 91 100 59 97 100 96 36 26 8 0 4 2 4
0 0 0 32 100 100 100 98 100 100 100 100 100 100 97 100 96 99 72 71 100 100 100 100 100 98 89 88 100 100 100 53 98 100 100 81 84 9 4 6 0 2 4
0 0 0 6 0 8 4 5 12 36 35 80 60 26 76 48 100 100 100 100 100 100 100 100 100 93 100 100 100 100 100 88 100 100 90 63 32 5 3 0 2 11 5
11 94 59 1 11 10 16 9 5 5 21 46 97 100 100 100 100 100 100 100 100 100 100 100 100 100 100 100 100 100 100 100 80 83 34 38 100 68 13 5 13 28 16
0 3 18 10 3 6 9 7 5 5 18 64 100 100 100 100 100 100 100 100 100 100 100 100 100 100 96 100 100 96 94 100 75 13 5 13 100 100 40 7 5 8 5
22 2 31 16 65 97 99 97 22 10 62 88 100 100 100 100 100 100 100 100 100 100 100 100 100 100 79 99 28 70 100 94 4 5 5 5 5 70 100 41 5 5 5
34 22 28 98 100 100 98 94 23 24 5 29 100 100 99 80 100 100 100 100 100 100 98 89 62 9 18 41 39 78 27 5 5 5 15 5 67 68 88 99 89 28 7
22 28 11 45 52 5 60 100 41 34 5 5 5 44 50 58 79 100 100 100 100 100 49 99 100 55 5 10 14 5 5 11 11 9 87 100 100 99 92 100 100 88 100
0 7 22 39 14 7 5 26 5 5 5 3 0 0 0 4 5 6 48 76 100 88 37 66 55 5 8 26 5 5 5 9 37 69 100 100 100 97 100 56 19 11 88
0 14 41 4 17 16 5 5 5 4 1 0 0 0 0 4 5 5 54 88 77 99 58 39 5 2 20 3 1 5 5 54 88 59 100 100 91 100 100 100 92 100 100
0 0 15 6 24 11 5 1 5 7 5 0 0 0 0 0 1 5 5 5 12 5 11 5 4 5 4 0 5 6 75 20 100 100 100 100 100 100 100 100 100 93 100
0 0 0 1 2 2 4 0 0 4 5 4 1 0 0 0 0 5 5 5 2 5 0 5 5 5 0 5 5 5 45 100 100 89 87 100 100 97 100 100 100 100 89
0 0 0 0 0 0 3 5 0 0 3 5 5 5 5 5 4 0 0 0 5 0 0 0 0 5 5 4 3 9 100 96 50 28 56 94 100 100 100 100 100 100 100
0 0 0 0 0 1 5 5 4 3 0 1 5 5 22 98 63 3 5 5 0 0 0 0 0 0 4 5 11 100 96 20 26 24 14 98 100 100 100 100 100 100 100
4 5 0 0 0 0 3 2 4 3 1 0 0 1 4 3 4 0 0 0 0 0 0 0 2 5 36 27 61 100 49 19 78 26 7 24 100 100 100 100 99 100 100
4 24 5 5 0 2 3 1 5 0 5 6 3 0 0 0 0 0 0 0 0 0 0 0 5 63 68 97 69 13 5 25 33 78 41 81 68 100 100 100 92 99 100
0 5 34 5 5 4 4 0 0 0 4 17 5 0 0 5 3 0 0 0 0 0 0 5 33 50 6 14 0 5 23 100 100 98 5 6 61 16 100 100 69 82 82
0 0 5 5 8 7 7 5 4 1 0 2 0 5 1 0 0 0 0 0 0 4 5 5 7 5 20 100 57 100 100 97 12 82 48 5 5 5 69 59 91 100 95
0 0 0 0 14 5 34 4 11 5 5 3 3 0 4 4 0 0 0 3 5 5 30 20 65 5 12 95 100 5 6 5 29 35 10 6 53 63 34 60 62 70 100
0 0 0 0 0 3 5 5 5 5 5 4 0 0 0 2 1 0 0 2 5 5 47 5 5 5 53 44 5 2 4 5 5 5 6 62 90 87 98 99 96 97 99
0 2 0 0 0 0 0 0 2 5 5 99 98 0 0 0 0 0 5 5 0 0 3 0 0 5 3 5 3 11 23 23 22 11 5 5 7 72 5 59 52 82 72
0 0 0 0 0 0 0 0 0 5 39 5 49 100 9 0 0 0 2 1 4 3 2 5 5 5 5 5 5 5 5 56 86 70 5 5 5 5 6 5 5 5 11

GFSSE_prec_cloud_120.txt.gz
Cloud_Cover
58 53 95 61 93 100 100 100 100 100 100 100 100 100 87 100 100 100 100 100 100 100 100 100 100 100 100 97 98 83 97 97 100 100 100 100 18 93 5 5 13 5 10
94 82 86 100 100 100 100 100 100 100 100 100 100 100 100 100 100 100 100 100 100 100 100 100 100 100 100 100 100 94 100 100 100 100 100 100 31 12 5 5 5 0 2
100 100 100 91 100 100 100 100 100 100 100 100 100 100 100 100 100 100 94 100 100 100 100 100 94 100 100 100 75 100 100 98 100 100 100 60 5 5 5 4 3 4 10
91 99 81 89 99 100 100 100 100 100 74 79 100 98 100 58 84 88 87 100 100 100 100 100 100 100 100 94 89 100 100 100 100 100 100 78 10 7 3 13 4 0 0
13 38 99 100 100 100 100 100 100 100 98 78 100 82 25 99 100 91 91 100 100 100 100 100 100 100 81 95 98 100 100 100 50 58 97 56 13 13 0 0 1 11 0
3 32 6 76 84 6 100 100 100 100 100 100 100 92 78 32 100 94 96 100 100 100 100 100 100 100 100 100 100 100 100 64 63 88 28 39 69 5 18 1 0 0 5
19 1 1 48 5 5 40 100 91 100 100 100 100 100 100 100 99 100 100 100 100 100 100 100 100 100 100 100 100 100 86 69 81 89 99 44 52 5 2 1 11 0 0
10 14 1 4 90 11 35 100 82 99 100 100 100 100 100 100 100 100 100 100 100 100 100 100 100 100 100 100 100 100 95 80 5 5 6 49 100 86 12 10 14 30 5
62 38 35 7 5 11 50 47 58 18 44 100 100 100 100 100 100 100 100 100 100 100 100 100 100 100 100 100 100 54 76 5 5 5 6 15 12 100 8 27 6 57 41
55 66 63 42 22 22 5 68 65 71 13 100 84 5 27 100 100 100 100 100 100 100 100 100 100 100 100 100 43 6 5 1 5 5 15 5 23 78 97 23 100 23 38
78 60 86 92 100 84 65 23 31 17 5 5 8 97 100 100 100 100 100 100 100 100 100 98 100 99 83 52 5 5 1 5 5 75 100 100 86 6 15 5 92 99 7
13 11 59 40 73 61 38 62 85 42 25 30 52 100 100 100 100 100 100 100 100 100 92 99 89 97 70 8 2 4 5 7 13 100 100 48 8 5 9 40 94 86 99
0 4 39 28 42 28 13 51 7 5 8 5 6 31 83 100 100 100 100 100 100 100 86 75 77 5 5 4 5 5 5 7 99 93 72 44 100 91 85 74 100 100 100
0 10 38 13 53 79 25 27 15 18 2 2 90 98 87 20 98 100 100 100 82 70 6 86 2 5 2 5 2 5 72 75 79 100 69 96 100 99 15 45 55 5 6
0 3 10 11 72 56 12 17 6 1 13 0 1 0 3 5 25 100 97 61 5 5 99 0 4 0 0 2 3 44 100 99 92 71 70 98 100 100 100 100 100 95 23
0 0 0 10 89 22 2 5 5 5 7 22 16 6 0 3 8 6 5 7 5 3 2 5 0 0 0 5 77 100 64 37 100 74 32 69 99 100 100 100 100 95 100
0 0 0 18 30 24 0 0 1 1 5 28 12 0 0 0 0 0 2 1 0 0 0 1 0 5 5 5 100 98 5 11 99 95 5 29 86 96 100 100 100 100 100
0 0 0 5 7 35 38 8 8 3 20 73 47 1 0 0 0 0 0 0 0 0 0 1 5 9 17 53 5 5 5 36 100 100 78 20 40 85 98 100 100 100 100
0 0 0 3 3 7 4 13 29 8 7 25 4 10 0 0 0 0 0 0 0 1 3 27 5 6 56 7 5 5 7 5 72 100 100 94 76 39 82 100 100 100 100
0 0 0 0 0 2 4 19 38 16 1 2 2 15 0 0 0 0 0 0 2 31 15 31 6 0 10 2 4 5 5 4 5 6 23 67 95 86 100 98 100 100 100
0 0 0 3 8 0 0 18 3 3 49 10 0 0 0 0 0 0 0 0 0 9 11 5 24 5 12 2 0 5 20 88 5 5 5 32 93 97 100 100 94 100 99
0 0 0 2 5 13 1 16 56 16 46 36 0 0 0 0 0 0 0 0 0 5 5 5 5 51 0 0 5 5 51 19 29 9 8 29 66 31 76 98 96 98 76
1 0 0 5 5 4 24 5 6 55 0 0 3 0 0 0 0 0 0 0 2 6 5 5 4 4 65 5 4 5 12 49 46 28 55 51 11 89 69 13 53 83 40
0 0 0 0 4 5 5 67 5 2 37 30 1 0 2 0 0 0 0 2 5 6 5 4 5 36 4 3 1 1 5 5 9 63 5 5 5 17 27 5 12 15 5
0 0 0 0 5 2 10 4 2 9 23 0 35 6 0 0 0 5 5 5 5 5 1 5 3 6 5 5 5 5 9 98 55 5 30 82 5 5 12 6 7 5 5
0 1 0 0 0 0 95 2 3 9 5 23 0 12 10 9 1 2 5 5 5 11 6 8 5 41 43 6 5 12 6 6 22 18 33 38 22 80 100 100 97 61 39

GFSSE_prec_cloud_123.txt.gz
Cloud_Cover
100 7 66 100 100 100 100 100 100 100 100 100 100 100 100 100 100 100 100 100 100 100 100 100 100 81 97 100 100 49 81 100 36 98 100 90 100 86 4 5 54 8 2
12 7 77 100 100 100 100 100 100 100 100 100 100 100 100 100 100 100 100 100 100 100 100 100 97 100 100 97 100 96 99 100 100 100 100 100 53 5 4 3 4 5 10
85 6 88 100 100 100 100 100 100 100 100 100 100 100 100 100 100 100 100 100 100 100 100 100 100 100 100 100 100 100 96 100 64 100 100 32 8 6 1 0 0 12 3
77 92 25 84 100 100 100 100 100 100 100 100 100 100 100 100 100 100 100 100 97 97 100 98 100 83 96 100 100 100 99 5 100 91 100 76 87 9 2 0 4 2 0
23 18 85 21 89 100 100 100 100 100 100 100 100 100 100 100 100 100 100 100 88 94 100 94 83 94 100 100 100 100 22 58 94 100 100 93 41 2 5 5 1 5 0
100 56 96 100 86 100 100 100 100 100 98 100 100 100 100 100 100 100 98 98 81 100 100 95 100 56 100 100 100 47 84 52 88 95 31 19 36 81 5 0 0 3 4
100 9 5 62 18 83 100 100 100 100 93 100 100 100 100 100 84 100 61 99 99 100 64 100 16 100 100 100 99 76 63 46 95 82 5 46 25 96 1 7 6 5 5
100 67 0 5 5 77 92 97 100 100 100 100 100 89 100 100 89 62 60 79 100 100 80 93 100 100 100 100 6 84 89 14 5 19 10 5 10 100 13 100 30 9 8
88 22 0 3 5 3 5 7 58 100 100 100 100 98 98 100 96 96 99 100 100 100 100 100 100 100 100 47 79 98 44 5 4 8 19 5 5 7 5 100 89 5 4
94 25 99 1 5 8 7 33 77 100 100 100 100 100 100 100 100 99 69 100 100 100 100 100 100 100 84 100 100 11 5 5 29 97 99 13 24 5 5 87 100 5 5
74 71 88 98 50 83 20 88 100 100 100 96 100 100 100 100 100 100 100 100 100 100 100 100 100 39 99 100 42 5 5 18 55 14 92 5 5 5 5 5 9 100 100
91 29 100 98 100 100 100 99 100 100 59 49 9 58 99 100 100 100 100 100 100 100 100 100 78 37 96 23 4 5 66 11 19 20 75 90 23 28 54 94 100 100 91
92 100 100 76 100 97 57 98 82 26 54 6 61 87 93 97 100 100 100 100 100 100 75 48 19 43 39 91 19 26 9 84 20 31 72 100 44 10 27 38 58 9 10
84 100 99 85 96 100 85 86 100 100 25 38 84 96 100 100 100 100 100 100 95 48 33 98 9 5 5 8 6 5 5 59 72 79 82 100 84 18 100 100 100 90 64
42 89 59 98 95 100 93 77 100 42 89 98 79 62 65 43 98 100 100 100 100 21 10 12 33 22 7 5 11 5 12 94 99 81 100 100 100 13 74 100 100 100 100
62 84 34 100 100 18 96 90 37 82 68 98 100 6 10 90 100 100 100 71 65 83 55 24 49 50 19 70 93 32 11 76 13 13 86 45 100 100 100 100 100 100 100
59 66 5 100 79 67 1 4 53 68 84 100 100 0 21 100 100 85 14 98 41 9 3 3 4 6 100 94 17 40 6 23 12 30 100 100 100 100 100 100 100 100 100
31 15 0 100 100 100 72 9 91 94 78 21 100 3 2 4 3 3 39 32 0 1 2 17 15 69 100 12 5 98 48 44 7 5 10 26 8 91 100 100 94 100 100
2 0 0 71 100 100 81 98 100 8 91 56 70 67 0 1 3 52 100 5 0 20 19 70 9 89 5 5 4 13 14 17 10 40 12 26 44 75 34 97 7 85 100
0 0 0 20 100 100 0 100 100 25 99 66 97 81 0 4 0 0 29 0 8 62 54 100 50 28 42 33 90 5 5 12 64 92 20 5 24 7 42 36 41 100 74
5 0 0 10 0 75 35 64 100 75 100 100 100 46 1 0 19 0 86 0 73 100 65 2 5 5 8 5 5 21 45 66 100 98 69 94 100 100 61 26 87 81 92
7 5 3 5 1 35 42 78 96 90 80 100 94 0 56 32 5 2 49 3 80 31 96 15 49 10 80 8 87 31 91 95 100 100 26 5 18 96 78 82 76 65 39
36 83 5 5 5 5 100 72 75 56 96 24 48 1 13 67 12 27 2 54 1 31 54 4 2 5 79 5 5 98 100 100 100 100 100 100 14 13 90 74 6 5 5
8 14 27 3 68 99 55 86 48 4 74 24 88 81 54 31 55 36 0 0 0 6 8 4 5 2 5 91 9 8 70 100 100 100 100 100 86 5 57 10 63 79 5
3 0 9 5 16 27 98 52 2 0 100 69 12 58 9 0 91 54 8 5 5 0 4 5 5 5 3 5 8 99 5 26 52 100 100 100 97 73 99 97 48 37 74
32 13 7 2 97 94 16 5 4 0 100 8 94 62 54 33 9 15 22 22 5 5 5 5 5 5 5 0 3 5 13 36 39 100 38 20 43 98 100 77 58 100 34